Casey Cardina HPV Festrival on Casey Cardinia Criterian Track
Laptimes of Casey Round 1 - Casey Bass Coast 6 Hr Round 1


Time of Day Lap LeadLap Lap Tm Speed Hits Strength Noise
69 - Tru Blu Tru Blu R - Comm
10:04:08.7 1 1 1:49.918 55.678 33 143 8
10:06:04.7 2 2 1:56.047 52.737 39 142 9
10:08:03.3 3 3 1:58.563 51.618 37 141 6
10:10:02.9 4 4 1:59.642 51.153 41 141 9
10:12:03.5 5 5 2:00.559 50.764 38 144 9
10:14:03.9 6 6 2:00.392 50.834 41 142 8
10:16:06.1 7 7 2:02.248 50.062 38 142 6
10:18:07.6 8 8 2:01.482 50.378 37 143 5
10:20:08.2 9 9 2:00.577 50.756 41 141 5
10:22:10.8 10 10 2:02.585 49.925 37 148 7
10:24:14.3 11 11 2:03.486 49.560 41 144 4
10:26:18.0 12 12 2:03.771 49.446 39 144 5
10:28:23.2 13 13 2:05.171 48.893 41 146 8
10:30:28.8 14 14 2:05.634 48.713 35 146 6
10:32:37.8 15 15 2:08.979 47.450 41 142 6
10:34:46.0 16 16 2:08.225 47.729 42 143 6
10:36:49.4 17 17 2:03.393 49.598 41 142 5
10:38:50.5 18 18 2:01.019 50.571 42 144 3
10:40:53.1 19 19 2:02.682 49.885 43 142 4
10:42:59.6 20 20 2:06.494 48.382 46 141 4
10:45:05.8 21 21 2:06.163 48.509 45 142 5
10:47:15.6 22 22 2:09.792 47.152 42 149 6
10:49:25.8 23 23 2:10.239 46.991 41 143 5
10:51:34.7 24 24 2:08.902 47.478 41 143 5
10:53:41.7 25 25 2:06.957 48.205 42 142 3
10:55:46.8 26 26 2:05.105 48.919 46 142 1
10:58:48.2 27 27 3:01.387 33.740 38 145 2
11:00:48.2 28 28 1:59.979 51.009 37 143 3
11:02:47.3 29 29 1:59.099 51.386 40 143 1
11:04:48.9 30 30 2:01.655 50.306 40 142 1
11:06:50.1 31 31 2:01.192 50.498 30 147 3
11:08:51.3 32 32 2:01.156 50.513 40 142 2
11:10:52.2 33 33 2:00.902 50.620 41 143 0
11:12:53.1 34 34 2:00.898 50.621 39 149 2
11:14:56.8 35 35 2:03.722 49.466 41 142 0
11:17:05.6 36 36 2:08.840 47.501 46 145 0
11:19:15.3 37 37 2:09.637 47.209 42 143 0
11:21:23.7 38 38 2:08.422 47.655 42 139 1
11:23:28.7 39 39 2:04.974 48.970 41 143 0
11:25:34.6 40 40 2:05.982 48.578 45 142 1
11:27:52.4 41 41 2:17.780 44.419 39 144 1
11:29:56.2 42 42 2:03.747 49.456 44 140 0
11:31:58.5 43 43 2:02.374 50.011 42 143 1
11:34:00.3 44 44 2:01.800 50.246 42 142 1
11:36:02.4 45 45 2:02.054 50.142 42 143 1
11:38:04.9 46 46 2:02.467 49.973 44 143 0
11:40:18.1 47 47 2:13.198 45.947 47 140 0
11:42:20.4 48 48 2:02.292 50.044 43 143 0
11:45:02.0 49 49 2:41.607 37.870 37 145 0
11:46:55.5 50 50 1:53.572 53.887 39 143 0
11:48:50.9 51 51 1:55.408 53.029 42 141 0
11:50:48.1 52 52 1:57.118 52.255 41 142 1
11:52:44.5 53 53 1:56.406 52.575 40 144 0
11:54:41.1 54 54 1:56.667 52.457 44 141 0
11:56:46.0 55 55 2:04.894 49.002 38 148 0
11:58:51.1 56 56 2:05.092 48.924 32 138 0
12:01:01.6 57 57 2:10.449 46.915 46 145 0
12:03:13.2 58 58 2:11.613 46.500 47 142 0
12:05:23.9 59 59 2:10.711 46.821 45 141 0
12:07:33.6 60 60 2:09.741 47.171 48 142 0
12:09:39.0 61 61 2:05.332 48.830 45 143 0
12:11:43.4 62 62 2:04.394 49.199 46 142 0
12:13:47.9 63 63 2:04.569 49.129 48 140 0
12:17:08.0 64 64 3:20.036 30.594 46 140 0
12:19:11.8 65 65 2:03.876 49.404 42 143 0
12:21:12.6 66 66 2:00.756 50.681 39 143 0
12:23:12.5 67 67 1:59.927 51.031 42 141 0
12:25:15.1 68 68 2:02.627 49.907 43 144 0
12:27:17.2 69 69 2:02.028 50.152 44 142 0
12:29:20.1 70 70 2:02.918 49.789 44 141 0
12:31:21.9 71 71 2:01.778 50.255 44 141 0
12:33:22.7 72 72 2:00.792 50.666 44 143 0
12:36:49.4 73 73 3:26.752 29.601 46 140 0
12:38:55.2 74 74 2:05.773 48.659 43 144 0
12:40:58.0 75 75 2:02.800 49.837 45 141 0
12:43:03.4 76 76 2:05.402 48.803 43 143 0
12:45:06.0 77 77 2:02.593 49.921 46 142 0
12:47:14.4 78 78 2:08.454 47.644 41 149 0
12:49:21.8 79 79 2:07.358 48.054 42 145 0
12:51:28.9 80 80 2:07.084 48.157 41 140 0
12:53:33.9 81 81 2:05.009 48.956 45 143 0
12:55:39.0 82 82 2:05.064 48.935 40 142 0
12:59:41.5 83 83 4:02.508 25.236 44 140 0
13:01:42.9 84 84 2:01.437 50.397 43 145 0
13:03:48.9 85 85 2:06.004 48.570 44 143 0
13:05:54.3 86 86 2:05.439 48.789 43 140 0
13:08:00.6 87 87 2:06.254 48.474 40 143 0
13:10:06.5 88 88 2:05.910 48.606 44 142 0
13:12:11.7 89 89 2:05.204 48.880 40 142 0
13:14:17.2 90 90 2:05.499 48.765 45 142 0
13:16:29.1 91 91 2:11.863 46.412 44 141 0
13:18:34.8 92 92 2:05.734 48.674 46 141 0
13:20:44.0 93 93 2:09.230 47.357 46 140 0
13:23:34.4 94 94 2:50.346 35.927 41 141 0
13:25:26.6 95 95 1:52.191 54.550 40 144 0
13:27:21.4 96 96 1:54.787 53.316 42 141 0
13:29:16.7 97 97 1:55.383 53.041 43 144 0
13:31:12.7 98 98 1:55.931 52.790 43 141 0
13:33:09.3 99 99 1:56.643 52.468 43 142 0
13:35:06.1 100 100 1:56.803 52.396 44 140 0
13:37:04.4 101 101 1:58.242 51.758 42 141 0
13:39:01.6 102 102 1:57.216 52.211 41 143 0
13:40:58.6 103 103 1:57.057 52.282 40 143 0
13:42:58.1 104 104 1:59.497 51.215 36 142 0
13:46:29.0 105 105 3:30.895 29.019 45 143 0
13:48:29.5 106 106 2:00.508 50.785 45 142 0
13:50:31.0 107 107 2:01.422 50.403 35 149 0
13:52:30.1 108 108 1:59.130 51.372 43 141 0
13:54:30.9 109 109 2:00.776 50.672 42 143 0
13:56:33.4 110 110 2:02.559 49.935 45 142 0
13:58:36.8 111 111 2:03.334 49.621 41 144 0
14:00:34.7 112 112 1:57.957 51.883 40 141 0
14:05:53.7 113 113 5:19.023 19.184 44 140 1
14:08:00.3 114 114 2:06.542 48.363 42 145 0
14:10:04.3 115 115 2:04.067 49.328 43 141 0
14:12:10.8 116 116 2:06.476 48.389 41 141 1
14:14:31.1 117 117 2:20.290 43.624 47 142 0
14:16:44.4 118 118 2:13.317 45.906 44 143 0
14:18:56.0 119 119 2:11.589 46.508 46 140 0
14:21:06.5 120 120 2:10.508 46.894 39 142 0
14:23:18.8 121 121 2:12.247 46.277 44 148 0
14:25:31.5 122 122 2:12.779 46.092 42 147 0
14:27:40.8 123 123 2:09.267 47.344 42 147 0
14:29:53.7 124 124 2:12.869 46.060 44 143 0
14:32:48.5 125 125 2:54.790 35.013 44 143 0
14:34:50.6 126 126 2:02.140 50.106 40 141 0
14:36:54.3 127 127 2:03.731 49.462 45 142 0
14:38:56.8 128 128 2:02.487 49.964 44 142 0
14:41:01.8 129 129 2:04.943 48.982 44 142 0
14:43:04.4 130 130 2:02.673 49.889 47 143 0
14:45:07.3 131 131 2:02.827 49.826 44 144 0
14:47:12.1 132 132 2:04.787 49.044 40 141 0
14:49:19.7 133 133 2:07.602 47.962 45 143 0
14:51:29.3 134 134 2:09.644 47.206 47 141 0
14:53:36.6 135 135 2:07.291 48.079 44 143 0
14:55:42.6 136 136 2:06.027 48.561 46 141 0
14:57:50.2 137 137 2:07.526 47.990 47 141 0
14:59:59.6 138 138 2:09.431 47.284 46 140 1
15:02:12.4 139 139 2:12.779 46.092 47 143 0
15:05:15.3 140 140 3:02.941 33.453 43 146 1
15:07:11.9 141 141 1:56.564 52.503 40 143 0
15:09:07.5 142 142 1:55.587 52.947 40 142 0
15:11:04.0 143 143 1:56.510 52.528 41 141 2
15:13:03.0 144 144 1:59.033 51.414 40 142 0
15:15:01.5 145 145 1:58.489 51.650 44 143 1
15:16:59.8 146 146 1:58.269 51.746 42 143 4
15:18:59.6 147 147 1:59.813 51.080 43 142 5
15:20:59.4 148 148 1:59.806 51.083 40 142 0
15:23:01.5 149 149 2:02.080 50.131 38 144 2
15:25:06.7 150 150 2:05.266 48.856 42 143 1
15:27:08.9 151 151 2:02.162 50.097 45 141 3
15:29:12.2 152 152 2:03.321 49.627 41 139 2
15:31:15.8 153 153 2:03.592 49.518 43 141 1
15:33:22.0 154 154 2:06.199 48.495 43 143 1
15:35:30.1 155 155 2:08.086 47.780 47 141 2
15:37:39.8 156 156 2:09.734 47.173 45 142 2
15:39:53.2 157 157 2:13.421 45.870 46 140 0
15:42:40.8 158 158 2:47.568 36.522 37 144 0
15:44:29.6 159 159 1:48.841 56.229 37 141 1
15:46:25.6 160 160 1:55.998 52.760 34 145 2
15:48:21.2 161 161 1:55.531 52.973 39 143 2
15:50:15.8 162 162 1:54.637 53.386 38 142 0
15:52:10.6 163 163 1:54.800 53.310 40 140 1
15:54:07.3 164 164 1:56.665 52.458 40 143 1
15:56:03.8 165 165 1:56.501 52.532 37 139 5
15:57:57.7 166 166 1:53.893 53.735 38 142 3
15:59:57.2 167 167 1:59.516 51.207 41 142 7
16:01:57.6 168 168 2:00.458 50.806 41 141 3
16:04:03.2 169 169 2:05.563 48.740 41 142 3
60 - Aurora Aurora R - Comm
10:04:18.5 1 1 2:00.451 50.809 47 167 9
10:06:20.2 2 2 2:01.771 50.258 49 165 8
10:08:23.0 3 3 2:02.770 49.849 50 165 9
10:10:26.5 4 4 2:03.540 49.539 47 164 7
10:12:31.8 5 5 2:05.299 48.843 51 164 10
10:14:42.0 6 6 2:10.167 47.017 51 168 7
10:18:07.1 7 7 3:25.094 29.840 61 186 5
10:22:56.7 8 10 4:49.581 21.134 49 164 6
10:24:55.2 9 11 1:58.559 51.620 49 165 5
10:26:55.7 10 12 2:00.466 50.803 48 168 9
10:28:54.5 11 13 1:58.773 51.527 48 166 7
10:30:51.8 12 14 1:57.334 52.159 48 172 5
10:32:49.2 13 15 1:57.416 52.122 48 166 6
10:34:48.8 14 16 1:59.574 51.182 48 165 5
10:36:50.7 15 17 2:01.854 50.224 44 164 4
10:38:49.7 16 17 1:59.079 51.394 50 166 3
10:40:50.1 17 18 2:00.402 50.830 50 166 4
10:42:52.6 18 19 2:02.453 49.978 48 169 4
10:44:53.4 19 20 2:00.853 50.640 49 164 6
10:46:54.0 20 21 2:00.578 50.756 49 165 5
10:48:55.0 21 22 2:00.985 50.585 50 163 6
10:50:57.9 22 23 2:02.887 49.802 50 164 3
10:53:54.0 23 25 2:56.121 34.749 49 166 4
10:56:00.3 24 26 2:06.276 48.465 51 165 3
10:58:03.8 25 26 2:03.517 49.548 50 165 3
11:00:10.4 26 27 2:06.540 48.364 47 164 0
11:02:15.2 27 28 2:04.871 49.011 50 162 6
11:04:18.3 28 29 2:03.031 49.744 48 164 2
11:06:24.8 29 30 2:06.547 48.361 51 164 3
11:08:31.0 30 31 2:06.160 48.510 50 163 0
11:10:38.8 31 32 2:07.850 47.869 51 164 0
11:12:47.5 32 33 2:08.672 47.563 52 164 2
11:14:56.4 33 34 2:08.925 47.469 51 165 0
11:17:05.2 34 35 2:08.760 47.530 49 165 0
11:19:14.9 35 36 2:09.713 47.181 51 166 0
11:21:23.2 36 37 2:08.363 47.677 49 165 1
11:24:17.8 37 39 2:54.543 35.063 49 164 1
11:26:23.9 38 40 2:06.096 48.534 51 163 2
11:28:32.2 39 41 2:08.271 47.711 51 165 2
11:30:39.3 40 42 2:07.175 48.123 49 165 2
11:32:47.7 41 43 2:08.328 47.690 50 164 1
11:34:56.8 42 44 2:09.103 47.404 52 165 1
11:37:07.5 43 45 2:10.724 46.816 52 164 0
11:39:18.4 44 46 2:10.903 46.752 52 164 1
11:41:27.8 45 47 2:09.451 47.277 53 165 2
11:43:36.7 46 48 2:08.858 47.494 52 164 1
11:45:47.9 47 49 2:11.251 46.628 47 166 1
11:47:58.7 48 50 2:10.778 46.797 51 164 1
11:50:10.5 49 51 2:11.758 46.449 52 163 1
11:52:22.7 50 52 2:12.183 46.299 53 165 0
11:54:35.9 51 53 2:13.273 45.921 54 165 0
11:56:46.0 52 55 2:10.096 47.042 49 163 0
11:58:52.8 53 56 2:06.806 48.263 52 164 0
12:01:03.4 54 57 2:10.580 46.868 54 164 0
12:03:12.6 55 57 2:09.137 47.392 53 166 0
12:05:23.4 56 58 2:10.841 46.774 52 163 0
12:07:33.3 57 59 2:09.867 47.125 52 164 0
12:10:37.2 58 61 3:03.907 33.278 51 164 0
12:12:45.0 59 62 2:07.842 47.872 51 163 0
12:14:52.7 60 63 2:07.717 47.918 52 167 0
12:17:02.6 61 63 2:09.873 47.123 52 166 0
12:19:12.5 62 65 2:09.889 47.117 50 163 0
12:21:21.7 63 66 2:09.165 47.381 53 167 0
12:23:31.9 64 67 2:10.255 46.985 52 165 0
12:25:43.1 65 68 2:11.221 46.639 51 165 0
12:27:56.2 66 69 2:13.021 46.008 53 165 0
12:30:10.0 67 70 2:13.807 45.738 55 164 0
12:32:23.2 68 71 2:13.211 45.942 46 165 0
12:34:35.8 69 72 2:12.610 46.150 52 167 0
12:36:49.0 70 72 2:13.225 45.937 53 167 0
12:39:02.2 71 74 2:13.163 45.959 51 162 0
12:41:18.3 72 75 2:16.172 44.943 52 164 0
12:44:17.9 73 76 2:59.527 34.090 49 167 0
12:46:27.1 74 77 2:09.196 47.370 51 165 0
12:48:35.6 75 78 2:08.537 47.613 52 172 0
12:50:45.6 76 79 2:10.037 47.064 51 165 0
12:52:57.3 77 80 2:11.639 46.491 53 165 0
12:55:11.2 78 81 2:13.888 45.710 52 165 0
12:57:24.2 79 82 2:12.984 46.021 53 163 0
12:59:38.4 80 82 2:14.222 45.596 54 166 0
13:01:54.6 81 84 2:16.263 44.913 54 165 0
13:04:09.2 82 85 2:14.608 45.465 52 162 0
13:06:25.4 83 86 2:16.178 44.941 53 165 0
13:08:45.4 84 87 2:20.007 43.712 55 164 0
13:11:09.6 85 88 2:24.217 42.436 55 167 0
13:14:17.4 86 90 3:07.786 32.590 50 165 0
13:16:26.6 87 90 2:09.149 47.387 52 166 0
13:18:33.7 88 91 2:07.147 48.133 51 164 0
13:20:41.4 89 92 2:07.662 47.939 51 164 0
13:22:47.9 90 93 2:06.471 48.391 50 163 0
13:24:55.4 91 94 2:07.563 47.976 50 163 0
13:27:04.6 92 95 2:09.174 47.378 51 169 0
13:29:14.9 93 96 2:10.255 46.985 52 167 0
13:31:25.3 94 98 2:10.405 46.931 51 168 0
13:33:36.9 95 99 2:11.632 46.493 53 166 0
13:35:49.7 96 100 2:12.764 46.097 53 167 0
13:38:04.0 97 101 2:14.387 45.540 53 165 0
13:40:20.6 98 102 2:16.577 44.810 53 169 0
13:42:36.7 99 103 2:16.109 44.964 53 165 0
13:44:54.3 100 104 2:17.554 44.492 55 166 0
13:47:13.0 101 105 2:18.710 44.121 55 164 0
13:49:36.4 102 106 2:23.359 42.690 54 166 0
13:51:57.5 103 107 2:21.168 43.353 54 165 0
13:54:13.8 104 108 2:16.266 44.912 53 167 0
13:59:16.3 105 111 5:02.529 20.229 48 164 0
14:01:16.8 106 112 2:00.445 50.812 49 162 0
14:03:16.3 107 112 1:59.536 51.198 49 164 0
14:05:16.0 108 112 1:59.663 51.144 49 163 0
14:07:16.2 109 113 2:00.269 50.886 50 164 1
14:09:16.5 110 114 2:00.276 50.883 50 163 0
14:11:16.6 111 115 2:00.071 50.970 48 163 0
14:13:16.3 112 116 1:59.739 51.111 50 164 0
14:15:15.6 113 117 1:59.304 51.298 49 166 0
14:17:16.0 114 118 2:00.420 50.822 49 164 0
14:19:17.0 115 119 2:00.934 50.606 49 163 0
14:21:17.9 116 120 2:00.941 50.603 50 163 0
14:23:29.7 117 121 2:11.780 46.441 50 163 0
14:25:32.0 118 122 2:02.325 50.031 51 169 0
14:27:39.2 119 122 2:07.173 48.123 51 163 0
14:29:41.0 120 123 2:01.762 50.262 46 164 0
14:31:45.1 121 124 2:04.120 49.307 51 165 0
14:34:58.0 122 126 3:12.937 31.720 50 165 0
14:37:08.2 123 127 2:10.213 47.000 53 164 0
14:39:19.7 124 128 2:11.527 46.530 51 164 0
14:41:31.4 125 129 2:11.696 46.471 52 163 0
14:43:41.7 126 130 2:10.228 46.995 49 163 0
14:45:51.4 127 131 2:09.765 47.162 51 165 0
14:48:04.8 128 132 2:13.356 45.892 51 164 0
14:50:20.0 129 133 2:15.233 45.255 52 164 0
14:52:34.8 130 134 2:14.751 45.417 53 165 0
14:54:49.9 131 135 2:15.111 45.296 54 163 0
14:57:06.8 132 136 2:16.887 44.708 51 164 0
14:59:24.5 133 137 2:17.684 44.450 52 165 0
15:01:38.9 134 138 2:14.476 45.510 53 169 1
15:03:54.4 135 139 2:15.448 45.183 54 163 0
15:06:10.7 136 140 2:16.309 44.898 52 166 0
15:10:49.7 137 142 4:39.008 21.935 52 164 1
15:12:57.8 138 143 2:08.068 47.787 47 163 3
15:15:04.0 139 145 2:06.195 48.496 50 165 1
15:17:11.6 140 146 2:07.611 47.958 51 164 4
15:19:22.0 141 147 2:10.447 46.916 51 165 1
15:21:32.6 142 148 2:10.534 46.884 50 164 1
15:23:46.4 143 149 2:13.868 45.717 53 163 2
15:25:58.6 144 150 2:12.133 46.317 52 163 3
15:28:13.6 145 151 2:15.025 45.325 52 164 3
15:30:28.7 146 152 2:15.146 45.284 52 164 0
15:32:43.4 147 153 2:14.700 45.434 52 164 2
15:34:56.5 148 154 2:13.088 45.985 48 165 3
15:37:11.4 149 155 2:14.907 45.365 50 165 1
15:40:20.9 150 157 3:09.490 32.297 51 166 0
15:42:30.1 151 157 2:09.149 47.387 51 170 0
15:44:39.1 152 159 2:09.006 47.440 51 163 0
15:46:49.5 153 160 2:10.396 46.934 52 169 2
15:48:59.0 154 161 2:09.575 47.231 51 165 3
15:51:09.7 155 162 2:10.649 46.843 53 166 1
15:53:22.3 156 163 2:12.576 46.162 52 164 2
15:55:36.7 157 164 2:14.444 45.521 51 165 3
15:58:01.6 158 166 2:24.925 42.229 52 164 5
16:00:19.9 159 167 2:18.226 44.275 54 165 4
16:02:40.3 160 168 2:20.405 43.588 53 166 7
16:05:01.2 161 169 2:20.962 43.416 52 166 1
105 - FONC FONC - Comm
10:10:53.8 1 4 8:33.851 11.910 71 150 8
10:13:06.2 2 5 2:12.373 46.233 54 146 11
10:15:18.3 3 6 2:12.091 46.332 56 146 6
10:17:35.6 4 7 2:17.305 44.572 56 147 6
10:20:46.2 5 9 3:10.572 32.114 74 149 5
10:22:58.2 6 10 2:12.063 46.342 53 146 6
10:25:02.3 7 11 2:04.060 49.331 48 146 6
10:27:10.7 8 12 2:08.368 47.675 54 144 7
10:29:18.1 9 13 2:07.388 48.042 55 145 7
10:31:25.6 10 14 2:07.526 47.990 53 144 7
10:33:35.7 11 15 2:10.129 47.030 55 145 8
10:35:48.5 12 16 2:12.745 46.103 55 146 5
10:37:57.8 13 17 2:09.342 47.316 56 143 5
10:40:08.6 14 18 2:10.843 46.774 54 147 4
10:42:18.2 15 19 2:09.571 47.233 55 142 4
10:44:29.6 16 20 2:11.336 46.598 55 143 5
10:46:41.2 17 21 2:11.644 46.489 52 144 5
10:48:51.8 18 22 2:10.561 46.875 54 144 6
10:51:06.2 19 23 2:14.424 45.528 54 143 3
10:53:20.4 20 24 2:14.178 45.611 56 145 4
10:55:32.7 21 25 2:12.309 46.255 57 144 3
10:57:44.5 22 26 2:11.872 46.409 56 145 3
10:59:58.6 23 27 2:14.043 45.657 56 144 4
11:02:19.9 24 28 2:21.275 43.320 58 143 3
11:04:38.1 25 29 2:18.274 44.260 56 144 1
11:06:50.9 26 31 2:12.739 46.106 53 144 3
11:09:06.0 27 32 2:15.154 45.282 59 143 1
11:11:25.4 28 33 2:19.380 43.909 57 143 1
11:13:45.6 29 34 2:20.230 43.643 55 144 1
11:17:20.8 30 36 3:35.118 28.450 74 151 0
11:19:53.8 31 37 2:33.096 39.975 57 149 2
11:22:11.0 32 38 2:17.167 44.617 56 143 1
11:24:31.0 33 39 2:20.025 43.706 56 146 1
11:26:51.5 34 40 2:20.421 43.583 57 147 2
11:29:16.9 35 41 2:25.428 42.083 57 145 1
11:31:36.5 36 42 2:19.658 43.821 56 145 2
11:33:57.1 37 43 2:20.550 43.543 58 143 1
11:36:15.2 38 45 2:18.058 44.329 58 144 1
11:38:41.3 39 46 2:26.140 41.878 60 143 1
11:41:08.2 40 47 2:26.918 41.656 57 147 1
11:45:44.8 41 49 4:36.561 22.129 67 150 1
11:48:10.8 42 50 2:26.042 41.906 55 143 0
11:50:34.5 43 51 2:23.657 42.601 58 143 2
11:53:03.1 44 53 2:28.630 41.176 60 143 0
11:55:31.8 45 54 2:28.724 41.150 59 142 0
11:58:08.0 46 55 2:36.196 39.182 59 143 0
12:00:41.3 47 56 2:33.293 39.924 61 143 0
12:03:10.4 48 57 2:29.091 41.049 59 143 0
12:06:22.4 49 59 3:12.042 31.868 73 151 0
12:08:49.0 50 60 2:26.516 41.770 54 144 0
12:11:01.2 51 61 2:12.253 46.275 54 147 0
12:13:10.6 52 62 2:09.364 47.308 54 144 0
12:15:19.5 53 63 2:08.967 47.454 57 143 0
12:17:28.0 54 64 2:08.482 47.633 55 143 0
12:19:37.2 55 65 2:09.155 47.385 56 144 0
12:21:48.7 56 66 2:11.545 46.524 55 147 0
12:23:57.3 57 67 2:08.530 47.615 54 145 0
12:25:59.9 58 68 2:02.670 49.890 56 146 0
12:28:08.2 59 69 2:08.307 47.698 56 145 0
12:30:18.3 60 70 2:10.099 47.041 55 144 0
12:32:26.7 61 71 2:08.314 47.695 56 142 0
12:34:33.5 62 72 2:06.859 48.243 55 143 0
12:36:41.2 63 72 2:07.738 47.911 55 144 0
12:38:50.5 64 73 2:09.210 47.365 54 144 0
12:40:59.7 65 75 2:09.255 47.348 55 144 0
12:43:10.8 66 76 2:11.123 46.674 56 145 0
12:45:21.9 67 77 2:11.104 46.680 54 143 0
12:47:34.8 68 78 2:12.903 46.049 56 142 0
12:49:50.3 69 79 2:15.492 45.169 59 144 0
12:52:05.5 70 80 2:15.140 45.286 56 144 0
12:54:15.0 71 81 2:09.530 47.248 48 144 0
12:57:20.1 72 82 3:05.060 33.070 76 153 0
12:59:49.4 73 83 2:29.298 40.992 56 142 0
13:02:14.2 74 84 2:24.842 42.253 57 144 0
13:04:38.7 75 85 2:24.459 42.365 57 144 0
13:07:03.3 76 86 2:24.612 42.320 57 144 0
13:09:30.0 77 87 2:26.724 41.711 57 143 0
13:11:54.1 78 88 2:24.134 42.460 58 143 0
13:14:19.0 79 90 2:24.901 42.236 58 146 0
13:16:46.3 80 91 2:27.271 41.556 60 142 0
13:19:14.4 81 92 2:28.112 41.320 60 145 0
13:21:44.8 82 93 2:30.419 40.686 60 144 0
13:24:23.5 83 94 2:38.702 38.563 59 147 0
13:27:04.0 84 95 2:40.495 38.132 60 141 0
13:30:23.0 85 97 3:18.962 30.760 74 151 0
13:32:51.7 86 98 2:28.721 41.151 56 146 0
13:35:08.5 87 100 2:16.827 44.728 56 143 0
13:37:26.6 88 101 2:18.070 44.325 57 144 0
13:39:45.4 89 102 2:18.758 44.106 59 145 0
13:42:07.4 90 103 2:22.051 43.083 57 144 0
13:44:30.1 91 104 2:22.646 42.903 58 144 0
13:46:52.4 92 105 2:22.295 43.009 59 145 0
13:50:04.6 93 106 3:12.256 31.833 73 151 0
13:52:20.3 94 107 2:15.722 45.092 49 144 0
13:54:23.2 95 108 2:02.880 49.805 52 145 0
13:56:30.3 96 109 2:07.095 48.153 53 147 0
13:58:35.0 97 110 2:04.673 49.088 53 146 0
14:00:40.5 98 112 2:05.542 48.749 54 144 0
14:02:51.5 99 112 2:10.948 46.736 54 145 0
14:05:00.3 100 112 2:08.850 47.497 52 145 0
14:07:10.5 101 113 2:10.190 47.008 51 145 0
14:09:23.2 102 114 2:12.662 46.132 56 143 0
14:11:38.4 103 115 2:15.197 45.267 54 145 0
14:13:51.5 104 116 2:13.132 45.969 52 144 0
14:16:04.6 105 117 2:13.077 45.988 54 145 0
14:18:14.7 106 118 2:10.090 47.044 52 144 0
14:20:25.6 107 119 2:10.955 46.734 54 144 0
14:22:35.8 108 120 2:10.186 47.010 53 144 0
14:24:50.1 109 121 2:14.260 45.583 58 144 0
14:27:04.3 110 122 2:14.226 45.595 54 144 0
14:29:19.1 111 123 2:14.771 45.410 54 144 0
14:31:37.9 112 124 2:18.844 44.078 57 143 0
14:33:54.8 113 125 2:16.874 44.713 54 144 0
14:36:10.3 114 126 2:15.466 45.177 55 145 0
14:38:28.1 115 127 2:17.879 44.387 58 143 0
14:40:48.6 116 128 2:20.458 43.572 51 144 0
14:43:01.6 117 129 2:13.050 45.998 56 143 0
14:47:06.3 118 131 4:04.693 25.011 69 149 0
14:49:17.5 119 132 2:11.185 46.652 53 144 0
14:51:27.2 120 133 2:09.662 47.200 53 145 0
14:53:36.8 121 135 2:09.589 47.226 54 145 0
14:55:42.9 122 136 2:06.173 48.505 51 145 0
14:57:50.4 123 137 2:07.471 48.011 55 144 0
15:00:00.1 124 138 2:09.724 47.177 53 143 1
15:02:12.7 125 139 2:12.547 46.172 57 146 0
15:04:31.7 126 139 2:18.966 44.040 57 145 1
15:06:49.5 127 140 2:17.886 44.384 54 144 1
15:09:10.2 128 142 2:20.701 43.496 58 144 0
15:11:34.2 129 143 2:23.913 42.526 58 144 1
15:13:58.8 130 144 2:24.622 42.317 57 144 1
15:16:20.1 131 145 2:21.283 43.317 57 143 4
15:19:37.3 132 147 3:17.198 31.035 79 153 2
15:22:13.0 133 148 2:35.704 39.305 56 144 2
15:24:31.5 134 149 2:18.528 44.179 56 145 2
15:26:49.0 135 150 2:17.518 44.503 56 145 3
15:29:08.1 136 151 2:19.092 44.000 56 144 2
15:31:23.9 137 153 2:15.848 45.050 56 143 4
15:33:43.3 138 154 2:19.304 43.933 57 143 1
15:36:01.1 139 155 2:17.799 44.413 57 143 3
15:38:19.5 140 156 2:18.486 44.192 55 147 1
15:40:30.8 141 157 2:11.215 46.641 52 146 3
15:43:37.2 142 158 3:06.454 32.823 73 150 0
15:46:03.9 143 159 2:26.687 41.721 58 143 3
15:48:25.8 144 161 2:21.951 43.113 54 146 2
15:50:49.6 145 162 2:23.745 42.575 57 144 3
15:53:20.5 146 163 2:30.918 40.552 56 144 2
15:55:51.1 147 164 2:30.638 40.627 59 144 4
15:58:22.1 148 166 2:30.988 40.533 58 145 5
16:00:56.9 149 167 2:34.731 39.553 59 146 3
16:03:32.2 150 168 2:35.336 39.398 59 145 2
16:06:10.6 151 169 2:38.406 38.635 56 148 2
100 - Aurora 2 Aurora R - Comm
10:04:26.6 1 1 2:07.048 48.171 49 175 8
10:06:36.2 2 2 2:09.666 47.198 54 174 8
10:09:27.6 3 3 2:51.380 35.710 81 180 8
10:16:15.4 4 7 6:47.787 15.008 50 173 6
10:18:26.8 5 8 2:11.424 46.567 52 174 8
10:20:39.1 6 9 2:12.256 46.274 53 182 7
10:22:53.3 7 10 2:14.239 45.590 51 173 6
10:25:07.9 8 11 2:14.539 45.489 53 176 7
10:27:24.3 9 12 2:16.498 44.836 53 174 7
10:29:40.3 10 13 2:15.936 45.021 52 176 5
10:31:57.3 11 14 2:16.994 44.673 54 173 7
10:34:14.1 12 15 2:16.870 44.714 51 173 6
10:36:29.3 13 16 2:15.133 45.289 54 174 3
10:38:44.1 14 17 2:14.796 45.402 54 173 5
10:42:09.5 15 19 3:25.438 29.790 52 175 5
10:44:29.3 16 20 2:19.791 43.780 53 172 5
10:46:50.9 17 21 2:21.603 43.219 55 174 9
10:49:03.7 18 22 2:12.756 46.100 51 174 7
10:51:19.8 19 23 2:16.125 44.959 55 173 4
10:53:37.2 20 24 2:17.415 44.537 54 173 3
10:55:56.6 21 26 2:19.401 43.902 53 173 3
10:58:15.2 22 26 2:18.562 44.168 54 174 3
11:00:33.7 23 27 2:18.569 44.166 48 173 2
11:02:50.1 24 29 2:16.383 44.874 55 172 1
11:05:07.2 25 30 2:17.036 44.660 55 174 2
11:07:27.5 26 31 2:20.387 43.594 55 174 1
11:09:44.1 27 32 2:16.561 44.815 54 173 0
11:12:05.5 28 33 2:21.430 43.272 53 176 0
11:14:26.8 29 34 2:21.285 43.317 55 174 0
11:16:44.8 30 35 2:17.995 44.349 54 172 0
11:19:05.3 31 36 2:20.502 43.558 50 175 0
11:21:26.0 32 38 2:20.725 43.489 54 173 1
11:23:50.4 33 39 2:24.362 42.393 52 173 1
11:26:18.2 34 40 2:27.792 41.410 57 174 2
11:29:38.2 35 41 3:20.002 30.600 51 172 2
11:31:51.2 36 42 2:12.995 46.017 47 175 1
11:34:02.3 37 44 2:11.070 46.693 54 175 1
11:36:14.7 38 45 2:12.408 46.221 53 175 1
11:38:38.7 39 46 2:24.041 42.488 52 183 1
11:40:53.7 40 47 2:15.037 45.321 54 173 2
11:44:04.5 41 48 3:10.707 32.091 55 174 1
11:46:25.3 42 49 2:20.852 43.450 55 173 0
11:48:47.4 43 50 2:22.071 43.077 56 178 0
11:51:15.0 44 52 2:27.646 41.450 58 176 0
11:53:48.8 45 53 2:33.757 39.803 57 175 0
11:56:26.5 46 54 2:37.740 38.798 57 175 0
11:58:53.3 47 56 2:26.754 41.702 53 174 0
12:01:07.0 48 57 2:13.730 45.764 56 175 0
12:03:55.8 49 58 2:48.773 36.262 60 178 0
12:07:30.4 50 59 3:34.631 28.514 53 174 0
12:09:46.7 51 61 2:16.291 44.904 52 174 0
12:12:03.7 52 62 2:16.998 44.672 53 176 0
12:14:22.9 53 63 2:19.212 43.962 49 174 0
12:16:41.1 54 63 2:18.235 44.272 54 176 0
12:19:04.2 55 64 2:23.032 42.788 54 176 0
12:21:28.2 56 66 2:24.007 42.498 46 183 0
12:23:56.9 57 67 2:28.669 41.165 55 174 0
12:26:25.6 58 68 2:28.734 41.147 55 174 0
12:28:54.7 59 69 2:29.097 41.047 56 173 0
12:31:24.8 60 71 2:30.132 40.764 55 175 0
12:33:54.0 61 72 2:29.231 41.010 56 173 0
12:36:25.7 62 72 2:31.669 40.351 56 174 0
12:40:02.1 63 74 3:36.384 28.283 51 175 0
12:42:10.5 64 75 2:08.364 47.677 49 178 0
12:44:19.9 65 76 2:09.412 47.291 52 177 0
12:46:35.4 66 77 2:15.564 45.145 52 177 0
12:48:50.9 67 78 2:15.423 45.192 54 175 0
12:51:08.2 68 79 2:17.294 44.576 53 173 0
12:53:25.6 69 80 2:17.485 44.514 53 174 0
12:55:41.7 70 82 2:16.062 44.979 53 174 0
12:58:01.7 71 82 2:20.031 43.705 52 173 0
13:00:20.3 72 83 2:18.557 44.170 54 174 0
13:02:40.2 73 84 2:19.955 43.728 53 174 0
13:05:03.0 74 85 2:22.798 42.858 54 174 0
13:07:26.2 75 86 2:23.148 42.753 54 175 0
13:09:48.4 76 87 2:22.182 43.043 53 174 0
13:12:09.4 77 88 2:21.073 43.382 57 174 0
13:14:31.1 78 90 2:21.655 43.204 53 174 0
13:16:51.9 79 91 2:20.829 43.457 55 175 0
13:19:10.9 80 92 2:18.985 44.034 53 176 0
13:21:35.3 81 93 2:24.393 42.384 56 174 0
13:24:09.3 82 94 2:33.987 39.744 55 177 0
13:27:54.1 83 96 3:44.773 27.227 53 173 0
13:30:11.0 84 97 2:16.936 44.692 53 176 0
13:32:30.3 85 98 2:19.310 43.931 54 172 0
13:34:53.7 86 99 2:23.376 42.685 54 174 0
13:37:23.5 87 101 2:29.770 40.863 56 172 0
13:39:51.9 88 102 2:28.397 41.241 57 173 0
13:42:23.2 89 103 2:31.342 40.438 56 175 0
13:44:56.2 90 104 2:32.959 40.011 56 174 0
13:47:29.4 91 105 2:33.264 39.931 58 172 0
13:50:06.4 92 106 2:36.993 38.983 46 169 0
13:52:44.4 93 108 2:37.962 38.743 57 174 0
13:55:25.2 94 109 2:40.829 38.053 57 173 0
13:58:06.5 95 110 2:41.245 37.955 57 174 0
14:01:39.8 96 112 3:33.345 28.686 52 173 0
14:03:55.8 97 112 2:16.023 44.992 52 174 0
14:06:09.3 98 113 2:13.438 45.864 50 176 0
14:08:26.3 99 114 2:16.994 44.673 51 178 0
14:10:41.0 100 115 2:14.702 45.434 54 173 0
14:12:56.9 101 116 2:15.906 45.031 53 173 0
14:15:11.1 102 117 2:14.239 45.590 52 174 0
14:17:24.6 103 118 2:13.487 45.847 53 173 0
14:19:37.6 104 119 2:13.031 46.004 52 175 0
14:21:51.2 105 120 2:13.612 45.804 52 173 1
14:24:06.6 106 121 2:15.336 45.221 52 173 0
14:26:23.4 107 122 2:16.844 44.722 53 175 0
14:28:40.8 108 123 2:17.430 44.532 52 174 0
14:30:58.1 109 124 2:17.273 44.583 54 185 0
14:34:42.7 110 125 3:44.575 27.251 53 172 0
14:36:55.2 111 127 2:12.558 46.168 51 174 0
14:39:06.1 112 128 2:10.865 46.766 51 174 0
14:41:20.2 113 129 2:14.102 45.637 53 171 0
14:43:40.0 114 130 2:19.763 43.788 53 173 0
14:46:00.6 115 131 2:20.583 43.533 58 174 0
14:48:29.7 116 132 2:29.138 41.036 54 178 0
14:50:53.3 117 133 2:23.565 42.629 50 172 0
14:53:21.9 118 134 2:28.608 41.182 56 176 0
14:55:54.2 119 136 2:32.331 40.176 57 174 0
14:59:30.9 120 137 3:36.689 28.243 54 176 0
15:01:58.2 121 138 2:27.321 41.542 55 174 0
15:04:25.9 122 139 2:27.662 41.446 55 173 1
15:06:50.4 123 140 2:24.535 42.343 53 175 1
15:09:13.9 124 142 2:23.535 42.638 56 174 0
15:11:45.6 125 143 2:31.685 40.347 50 174 1
15:14:17.1 126 144 2:31.494 40.398 55 173 2
15:16:51.9 127 145 2:34.749 39.548 54 174 1
15:19:29.1 128 147 2:37.224 38.925 58 176 2
15:22:02.9 129 148 2:33.790 39.795 56 175 0
15:24:38.8 130 149 2:35.923 39.250 55 173 3
15:27:14.1 131 151 2:35.331 39.400 54 176 4
15:30:40.8 132 152 3:26.625 29.619 51 174 1
15:32:53.2 133 153 2:12.412 46.219 51 174 3
15:35:06.4 134 154 2:13.184 45.951 51 174 0
15:37:20.3 135 155 2:13.964 45.684 51 173 2
15:39:39.2 136 156 2:18.876 44.068 53 175 4
15:42:00.1 137 157 2:20.851 43.450 56 172 1
15:44:20.8 138 158 2:20.723 43.490 54 172 3
15:46:42.0 139 160 2:21.224 43.335 53 176 3
15:49:03.7 140 161 2:21.666 43.200 52 173 3
15:51:23.6 141 162 2:19.942 43.732 50 174 1
15:53:47.1 142 163 2:23.473 42.656 54 174 1
15:56:12.2 143 165 2:25.160 42.160 54 174 5
15:58:39.3 144 166 2:27.016 41.628 54 174 5
16:01:00.3 145 167 2:21.044 43.391 52 175 3
16:03:19.5 146 168 2:19.236 43.954 50 171 3
16:05:45.6 147 169 2:26.054 41.902 54 174 3
59 - Silver Streak Platt R - Comm
10:04:22.1 1 1 2:03.135 49.702 54 150 7
10:06:27.2 2 2 2:05.136 48.907 56 150 8
10:08:39.5 3 3 2:12.253 46.275 57 150 7
10:10:54.5 4 4 2:15.010 45.330 55 150 8
10:13:10.0 5 5 2:15.479 45.173 53 157 8
10:15:25.1 6 6 2:15.169 45.277 56 150 8
10:17:40.4 7 7 2:15.258 45.247 56 150 8
10:19:54.5 8 8 2:14.058 45.652 57 150 8
10:22:10.7 9 9 2:16.293 44.903 54 149 7
10:24:30.3 10 11 2:19.560 43.852 56 150 5
10:26:52.0 11 12 2:21.705 43.188 55 149 9
10:29:10.1 12 13 2:18.108 44.313 55 150 5
10:31:33.3 13 14 2:23.145 42.754 58 151 7
10:35:52.3 14 16 4:19.036 23.626 55 149 5
10:38:00.1 15 17 2:07.795 47.889 53 149 5
10:40:11.6 16 18 2:11.509 46.537 52 149 4
10:42:21.1 17 19 2:09.497 47.260 55 149 4
10:44:30.4 18 20 2:09.344 47.316 54 149 7
10:46:40.8 19 21 2:10.361 46.947 53 149 5
10:48:49.3 20 22 2:08.477 47.635 54 149 6
10:50:58.5 21 23 2:09.167 47.381 54 149 3
10:53:08.6 22 24 2:10.124 47.032 54 150 4
10:55:19.5 23 25 2:10.917 46.747 55 149 1
10:57:32.3 24 26 2:12.833 46.073 56 149 2
10:59:44.1 25 27 2:11.778 46.442 55 150 2
11:01:59.0 26 28 2:14.880 45.374 54 150 3
11:04:11.7 27 29 2:12.715 46.114 56 149 2
11:06:24.5 28 30 2:12.814 46.079 56 149 3
11:08:36.8 29 31 2:12.295 46.260 57 149 0
11:10:50.9 30 32 2:14.109 45.635 54 149 0
11:13:04.2 31 34 2:13.242 45.931 56 150 2
11:15:19.7 32 35 2:15.551 45.149 57 150 0
11:17:35.3 33 36 2:15.608 45.130 56 150 0
11:19:53.0 34 37 2:17.661 44.457 58 149 2
11:22:07.7 35 38 2:14.727 45.425 47 151 0
11:24:21.7 36 39 2:14.014 45.667 55 149 1
11:26:36.5 37 40 2:14.765 45.412 55 151 2
11:29:44.0 38 41 3:07.511 32.638 52 150 2
11:31:51.3 39 42 2:07.339 48.061 53 150 1
11:34:18.6 40 44 2:27.293 41.550 59 152 1
11:38:41.2 41 46 4:22.564 23.309 55 153 1
11:41:13.9 42 47 2:32.747 40.066 58 152 1
11:55:36.5 43 54 14:22.597 7.095 59 154 0
11:58:19.9 44 55 2:43.349 37.466 61 151 0
12:01:20.6 45 57 3:00.729 33.863 65 154 0
12:11:04.5 46 61 9:43.884 10.482 53 148 0
12:13:08.5 47 62 2:04.019 49.347 53 151 0
12:15:18.8 48 63 2:10.268 46.980 54 149 0
12:17:27.6 49 64 2:08.843 47.500 53 149 0
12:19:36.9 50 65 2:09.226 47.359 55 149 0
12:21:48.4 51 66 2:11.509 46.537 54 155 0
12:23:57.0 52 67 2:08.670 47.564 50 149 0
12:26:11.0 53 68 2:13.957 45.686 56 151 0
12:28:30.4 54 69 2:19.379 43.909 54 151 0
12:30:45.8 55 70 2:15.452 45.182 54 150 0
12:32:55.2 56 71 2:09.335 47.319 53 150 0
12:35:06.9 57 72 2:11.752 46.451 55 149 0
12:37:19.9 58 73 2:12.979 46.022 55 150 0
12:39:32.0 59 74 2:12.094 46.331 54 152 0
12:41:46.6 60 75 2:14.588 45.472 56 151 0
12:43:57.6 61 76 2:11.058 46.697 54 150 0
12:46:08.0 62 77 2:10.381 46.939 55 149 0
12:48:19.2 63 78 2:11.236 46.634 55 150 0
12:50:32.3 64 79 2:13.015 46.010 54 149 0
12:52:42.4 65 80 2:10.188 47.009 55 150 0
12:56:07.1 66 82 3:24.635 29.907 54 150 0
12:58:19.6 67 82 2:12.557 46.169 54 150 0
13:00:30.8 68 83 2:11.149 46.664 55 149 0
13:02:46.0 69 84 2:15.214 45.262 55 153 0
13:05:02.7 70 85 2:16.691 44.773 57 152 0
13:07:19.2 71 86 2:16.522 44.828 57 155 0
13:09:37.4 72 87 2:18.189 44.287 56 151 0
13:11:56.5 73 88 2:19.114 43.993 57 150 0
13:14:15.1 74 89 2:18.544 44.174 58 150 0
13:16:35.6 75 91 2:20.555 43.542 59 154 0
13:20:10.7 76 92 3:35.080 28.455 58 152 0
13:22:42.1 77 93 2:31.434 40.414 59 152 0
13:24:59.4 78 94 2:17.253 44.589 56 154 0
13:27:23.8 79 96 2:24.386 42.386 57 150 0
13:29:50.9 80 97 2:27.150 41.590 58 151 0
13:32:20.5 81 98 2:29.590 40.912 59 154 0
13:36:35.1 82 100 4:14.589 24.039 55 150 0
13:38:57.8 83 101 2:22.729 42.878 59 152 0
13:41:26.2 84 103 2:28.362 41.250 58 152 0
13:43:59.6 85 104 2:33.400 39.896 60 152 0
13:46:36.6 86 105 2:36.971 38.988 59 150 0
13:49:15.3 87 106 2:38.778 38.544 57 154 0
13:51:55.6 88 107 2:40.245 38.192 60 152 0
13:54:36.2 89 109 2:40.616 38.103 60 151 0
13:57:13.2 90 110 2:37.010 38.978 59 154 0
13:59:53.6 91 111 2:40.357 38.165 59 152 0
14:02:34.9 92 112 2:41.296 37.943 61 151 0
14:05:20.0 93 112 2:45.111 37.066 57 151 0
14:08:05.3 94 114 2:45.278 37.029 60 151 0
14:10:52.4 95 115 2:47.120 36.620 65 151 0
14:13:48.4 96 116 2:56.030 34.767 62 151 0
14:16:34.7 97 117 2:46.282 36.805 61 151 0
14:20:08.6 98 119 3:33.934 28.607 55 149 0
14:22:17.3 99 120 2:08.695 47.554 54 148 0
14:24:27.6 100 121 2:10.334 46.956 55 149 0
14:26:38.7 101 122 2:11.010 46.714 55 152 0
14:28:52.4 102 123 2:13.694 45.776 54 152 0
14:31:05.3 103 124 2:12.948 46.033 56 151 0
14:33:23.2 104 125 2:17.866 44.391 56 152 0
14:35:41.8 105 126 2:18.660 44.137 56 151 0
14:37:59.9 106 127 2:18.119 44.310 55 150 0
14:40:17.8 107 128 2:17.829 44.403 55 153 0
14:42:38.8 108 129 2:20.981 43.410 56 151 0
14:45:02.7 109 130 2:23.920 42.524 56 154 0
14:47:28.3 110 132 2:25.597 42.034 60 150 0
14:49:58.5 111 133 2:30.230 40.738 60 150 0
14:53:07.5 112 134 3:08.985 32.384 55 150 0
14:55:21.1 113 135 2:13.655 45.790 53 151 0
14:57:37.9 114 136 2:16.755 44.752 57 151 0
14:59:51.0 115 137 2:13.102 45.980 57 150 0
15:02:07.0 116 138 2:16.033 44.989 56 150 1
15:04:23.5 117 139 2:16.443 44.854 55 149 0
15:06:38.5 118 140 2:15.058 45.314 57 149 0
15:08:54.0 119 141 2:15.508 45.163 56 150 0
15:11:14.3 120 143 2:20.257 43.634 57 150 0
15:13:38.1 121 144 2:23.766 42.569 56 150 2
15:15:55.7 122 145 2:17.617 44.471 57 150 3
15:18:14.0 123 146 2:18.323 44.244 58 149 0
15:20:35.0 124 147 2:20.983 43.409 55 153 2
15:23:47.3 125 149 3:12.263 31.831 54 149 2
15:25:59.2 126 150 2:11.944 46.383 53 150 3
15:28:14.1 127 151 2:14.946 45.351 54 149 3
15:30:29.2 128 152 2:15.030 45.323 56 150 0
15:32:43.9 129 153 2:14.748 45.418 56 150 2
15:34:57.4 130 154 2:13.493 45.845 55 150 3
15:37:11.8 131 155 2:14.381 45.542 54 149 1
15:39:28.0 132 156 2:16.194 44.936 56 149 3
15:41:45.0 133 157 2:17.062 44.651 56 150 2
15:44:00.9 134 158 2:15.893 45.035 56 149 0
15:46:14.3 135 159 2:13.384 45.883 54 149 3
15:48:27.6 136 161 2:13.315 45.906 55 149 2
15:50:38.6 137 162 2:11.003 46.716 54 149 4
15:52:52.9 138 163 2:14.237 45.591 54 149 2
15:55:07.2 139 164 2:14.293 45.572 55 150 0
15:57:19.1 140 165 2:11.894 46.401 54 149 5
15:59:29.3 141 166 2:10.243 46.989 54 149 4
16:01:42.2 142 167 2:12.862 46.063 54 150 4
16:03:50.3 143 168 2:08.136 47.762 52 150 2
16:06:00.6 144 169 2:10.290 46.972 55 149 2
67 - Unleashed Dirty Mongrel R - Comm
10:04:37.5 1 1 2:17.890 44.383 48 163 8
10:06:50.0 2 2 2:12.493 46.191 49 161 7
10:09:02.1 3 3 2:12.139 46.315 48 163 8
10:11:17.1 4 4 2:14.940 45.353 49 161 7
10:13:33.3 5 5 2:16.262 44.913 50 163 11
10:15:54.7 6 6 2:21.360 43.294 49 161 11
10:18:15.2 7 8 2:20.562 43.540 48 163 7
10:20:28.5 8 9 2:13.279 45.919 49 161 6
10:22:46.2 9 10 2:17.666 44.455 50 162 7
10:25:01.7 10 11 2:15.533 45.155 49 163 6
10:27:21.3 11 12 2:19.541 43.858 48 161 7
10:29:35.4 12 13 2:14.137 45.625 48 161 5
10:32:55.0 13 15 3:19.548 30.669 46 161 8
10:35:04.9 14 16 2:09.908 47.110 48 163 4
10:37:16.0 15 17 2:11.164 46.659 49 161 3
10:39:27.1 16 18 2:11.116 46.676 49 164 3
10:41:43.3 17 19 2:16.189 44.938 50 163 4
10:43:59.9 18 20 2:16.601 44.802 50 161 6
10:46:15.8 19 21 2:15.867 45.044 50 164 4
10:48:32.0 20 22 2:16.180 44.941 49 161 6
10:50:52.1 21 23 2:20.073 43.692 51 162 4
10:53:08.9 22 24 2:16.822 44.730 48 162 4
10:55:26.5 23 25 2:17.587 44.481 50 163 3
10:57:46.3 24 26 2:19.862 43.757 51 164 3
11:01:49.8 25 28 4:03.480 25.136 47 162 5
11:04:06.1 26 29 2:16.331 44.891 51 162 2
11:06:29.9 27 30 2:23.767 42.569 52 163 5
11:09:04.2 28 32 2:34.257 39.674 52 164 1
11:11:42.5 29 33 2:38.302 38.660 53 162 0
11:14:20.2 30 34 2:37.708 38.806 53 164 1
11:17:07.8 31 36 2:47.610 36.513 54 164 0
11:19:53.5 32 37 2:45.714 36.931 54 164 2
11:22:42.4 33 38 2:48.901 36.234 54 165 0
11:26:10.1 34 40 3:27.703 29.465 48 162 2
11:28:21.3 35 41 2:11.177 46.655 48 162 2
11:30:28.5 36 42 2:07.214 48.108 48 162 1
11:32:39.9 37 43 2:11.417 46.569 49 162 2
11:34:50.2 38 44 2:10.315 46.963 47 161 2
11:37:02.1 39 45 2:11.930 46.388 49 164 0
11:39:13.0 40 46 2:10.843 46.774 48 161 1
11:41:26.1 41 47 2:13.068 45.992 49 163 1
11:43:38.4 42 48 2:12.304 46.257 49 163 1
11:45:51.4 43 49 2:13.073 45.990 49 162 1
11:48:07.7 44 50 2:16.258 44.915 49 162 0
11:50:24.8 45 51 2:17.100 44.639 50 164 1
11:52:41.9 46 52 2:17.154 44.621 50 164 0
11:55:00.3 47 54 2:18.369 44.230 50 161 0
11:57:22.8 48 55 2:22.501 42.947 47 170 0
11:59:46.6 49 56 2:23.800 42.559 50 163 0
12:02:07.6 50 57 2:20.998 43.405 51 164 0
12:09:47.0 51 61 7:39.371 13.323 49 161 0
12:12:04.3 52 62 2:17.343 44.560 50 163 0
12:14:29.0 53 63 2:24.622 42.317 51 162 0
12:16:57.3 54 63 2:28.308 41.265 52 165 0
12:19:23.7 55 65 2:26.451 41.789 52 163 0
12:21:53.5 56 66 2:29.826 40.847 52 163 0
12:24:25.0 57 67 2:31.488 40.399 53 162 0
12:26:57.7 58 68 2:32.723 40.073 48 163 0
12:29:34.9 59 70 2:37.174 38.938 53 164 0
12:32:04.5 60 71 2:29.574 40.916 52 166 0
12:34:40.0 61 72 2:35.510 39.354 53 163 0
12:37:17.3 62 73 2:37.301 38.906 54 164 0
12:39:50.2 63 74 2:32.897 40.027 53 163 0
12:43:03.7 64 76 3:13.526 31.624 42 162 0
12:45:11.2 65 77 2:07.497 48.001 50 163 0
12:47:28.3 66 78 2:17.114 44.634 50 163 0
12:49:55.9 67 79 2:27.560 41.475 70 175 0
12:55:05.7 68 81 5:09.824 19.753 50 162 0
12:57:23.7 69 82 2:17.999 44.348 50 161 0
12:59:38.1 70 82 2:14.401 45.535 48 163 0
13:01:53.6 71 84 2:15.504 45.165 50 163 0
13:04:09.6 72 85 2:15.951 45.016 48 162 0
13:06:26.1 73 86 2:16.561 44.815 47 163 0
13:08:50.8 74 87 2:24.646 42.310 51 163 0
13:11:20.2 75 88 2:29.374 40.971 51 167 0
13:13:49.1 76 89 2:28.909 41.099 49 165 0
13:16:22.4 77 90 2:33.340 39.911 52 164 0
13:18:55.6 78 92 2:33.233 39.939 52 164 0
13:22:18.9 79 93 3:23.283 30.106 45 161 0
13:24:26.6 80 94 2:07.682 47.932 48 161 0
13:26:39.0 81 95 2:12.343 46.243 49 164 0
13:28:51.1 82 96 2:12.192 46.296 48 162 0
13:31:04.7 83 97 2:13.514 45.838 49 162 0
13:33:15.7 84 99 2:11.028 46.708 49 162 0
13:35:33.6 85 100 2:17.963 44.360 52 163 0
13:37:49.3 86 101 2:15.665 45.111 48 163 0
13:40:10.9 87 102 2:21.595 43.222 51 164 0
13:42:33.9 88 103 2:22.970 42.806 51 163 0
13:44:51.9 89 104 2:18.001 44.348 49 160 0
13:47:10.1 90 105 2:18.214 44.279 51 162 0
13:49:30.5 91 106 2:20.388 43.593 51 163 0
13:53:33.3 92 108 4:02.776 25.208 52 163 0
13:56:02.6 93 109 2:29.299 40.992 52 162 0
13:58:32.3 94 110 2:29.733 40.873 52 165 0
14:01:10.0 95 112 2:37.708 38.806 53 164 0
14:03:43.3 96 112 2:33.270 39.930 52 162 0
14:06:14.9 97 113 2:31.653 40.355 52 164 0
14:08:52.7 98 114 2:37.766 38.792 54 165 0
14:11:31.9 99 115 2:39.263 38.427 53 163 1
14:14:09.3 100 116 2:37.395 38.883 53 163 0
14:16:45.8 101 118 2:36.439 39.121 53 161 0
14:19:18.1 102 119 2:32.270 40.192 53 165 0
14:21:51.4 103 120 2:33.387 39.899 53 162 1
14:25:30.2 104 121 3:38.736 27.979 49 162 0
14:27:41.2 105 123 2:10.978 46.725 48 165 0
14:29:54.1 106 124 2:12.919 46.043 49 160 0
14:32:11.2 107 124 2:17.117 44.633 50 162 0
14:34:28.3 108 125 2:17.076 44.647 50 166 0
14:36:46.1 109 126 2:17.843 44.398 49 161 0
14:39:04.9 110 128 2:18.752 44.107 50 163 0
14:41:20.9 111 129 2:16.000 45.000 50 163 0
14:43:41.9 112 130 2:21.063 43.385 50 165 0
14:46:04.8 113 131 2:22.890 42.830 51 162 0
14:48:29.3 114 132 2:24.465 42.363 51 163 0
14:50:52.9 115 133 2:23.589 42.622 51 161 0
14:53:21.2 116 134 2:28.298 41.268 52 164 0
14:55:51.8 117 136 2:30.631 40.629 53 163 0
14:58:22.9 118 137 2:31.150 40.490 51 163 0
15:00:54.4 119 138 2:31.475 40.403 52 164 0
15:03:27.2 120 139 2:32.755 40.064 53 164 0
15:07:03.2 121 140 3:36.017 28.331 51 163 0
15:09:31.9 122 142 2:28.698 41.157 51 163 1
15:11:55.9 123 143 2:23.959 42.512 50 163 3
15:14:17.3 124 144 2:21.433 43.271 49 162 2
15:16:39.6 125 145 2:22.336 42.997 51 164 3
15:19:05.8 126 147 2:26.133 41.880 50 167 4
15:21:35.9 127 148 2:30.120 40.767 52 163 1
15:24:06.2 128 149 2:30.375 40.698 50 169 2
15:26:33.6 129 150 2:27.334 41.538 52 163 2
15:29:09.0 130 151 2:35.435 39.373 51 164 2
15:31:45.4 131 153 2:36.374 39.137 53 162 4
15:34:21.6 132 154 2:36.230 39.173 53 163 1
15:36:53.6 133 155 2:31.967 40.272 52 164 2
15:40:31.0 134 157 3:37.372 28.155 51 163 3
15:42:57.4 135 158 2:26.436 41.793 54 165 0
15:45:27.3 136 159 2:29.890 40.830 51 162 3
15:47:58.9 137 160 2:31.601 40.369 52 163 4
15:50:29.1 138 162 2:30.241 40.735 51 164 0
15:53:02.4 139 163 2:33.289 39.925 53 163 3
15:55:38.0 140 164 2:35.616 39.328 53 162 3
15:58:19.3 141 166 2:41.231 37.958 54 163 5
16:01:06.0 142 167 2:46.724 36.707 52 162 6
16:03:47.9 143 168 2:41.896 37.802 53 163 3
16:06:29.9 144 169 2:42.050 37.766 53 164 2
33 - Zavanz EDEC - Senior
10:04:23.7 1 1 2:05.445 48.786 50 160 7
10:06:35.8 2 2 2:12.179 46.301 53 159 8
10:08:51.6 3 3 2:15.805 45.065 52 163 9
10:11:08.0 4 4 2:16.407 44.866 53 164 8
10:13:27.1 5 5 2:19.050 44.013 50 160 7
10:15:45.0 6 6 2:17.934 44.369 55 162 16
10:18:15.4 7 8 2:30.354 40.704 53 166 7
10:20:29.0 8 9 2:13.619 45.802 52 162 6
10:22:46.6 9 10 2:17.606 44.475 52 160 7
10:25:02.4 10 11 2:15.813 45.062 49 165 6
10:27:22.4 11 12 2:20.024 43.707 52 160 7
10:29:36.5 12 13 2:14.092 45.640 51 160 5
10:32:20.9 13 14 2:44.398 37.227 56 163 6
10:34:43.7 14 15 2:22.800 42.857 52 161 6
10:37:07.8 15 17 2:24.013 42.496 56 160 4
10:39:30.3 16 18 2:22.578 42.924 56 165 3
10:41:53.8 17 19 2:23.487 42.652 55 166 4
10:44:15.7 18 20 2:21.918 43.123 55 161 5
10:46:37.0 19 21 2:21.258 43.325 52 160 5
10:48:59.9 20 22 2:22.869 42.836 55 160 7
10:51:21.9 21 23 2:22.075 43.076 54 162 4
10:53:38.7 22 24 2:16.768 44.747 53 161 3
10:55:54.2 23 26 2:15.542 45.152 56 166 3
10:58:14.7 24 26 2:20.409 43.587 55 165 3
11:00:36.8 25 27 2:22.096 43.069 55 162 2
11:02:57.0 26 29 2:20.256 43.634 55 166 4
11:05:16.8 27 30 2:19.840 43.764 53 161 0
11:08:58.0 28 32 3:41.168 27.671 57 163 4
11:11:42.8 29 33 2:44.825 37.130 50 163 0
11:14:27.3 30 34 2:44.445 37.216 59 168 0
11:17:15.9 31 36 2:48.622 36.294 59 169 0
11:20:05.0 32 37 2:49.055 36.201 59 166 2
11:22:56.2 33 38 2:51.279 35.731 59 169 0
11:25:49.8 34 40 2:53.600 35.253 59 168 1
11:28:42.2 35 41 2:52.338 35.512 59 168 2
11:31:36.4 36 42 2:54.194 35.133 60 169 2
11:34:34.1 37 44 2:57.687 34.443 59 166 2
11:37:32.2 38 45 2:58.183 34.347 60 168 1
11:40:26.1 39 47 2:53.820 35.209 59 167 1
11:43:48.6 40 48 3:22.578 30.211 52 159 1
11:46:03.1 41 49 2:14.442 45.521 53 159 1
11:48:20.9 42 50 2:17.791 44.415 54 159 0
11:52:09.5 43 52 3:48.648 26.766 54 160 0
11:54:29.1 44 53 2:19.600 43.840 55 160 0
11:56:51.8 45 55 2:22.688 42.891 56 161 0
11:59:16.8 46 56 2:24.951 42.221 56 161 0
12:01:44.9 47 57 2:28.173 41.303 56 160 0
12:04:11.9 48 58 2:26.959 41.644 56 161 0
12:06:35.9 49 59 2:23.976 42.507 55 161 0
12:09:01.0 50 60 2:25.119 42.172 55 160 0
12:11:32.0 51 61 2:30.967 40.539 57 160 0
12:14:00.8 52 63 2:28.857 41.113 54 164 0
12:16:28.6 53 63 2:27.738 41.425 57 160 0
12:18:55.0 54 64 2:26.483 41.780 57 162 0
12:21:28.2 55 66 2:33.121 39.968 46 163 0
12:23:59.3 56 67 2:31.183 40.481 55 159 0
12:26:30.9 57 68 2:31.598 40.370 58 162 0
12:29:03.4 58 69 2:32.455 40.143 55 162 0
12:31:33.5 59 71 2:30.132 40.764 56 160 0
12:34:07.0 60 72 2:33.451 39.882 57 160 0
12:36:34.9 61 72 2:27.878 41.385 55 162 0
12:39:04.8 62 74 2:29.906 40.826 56 164 0
12:41:34.4 63 75 2:29.649 40.896 56 161 0
12:44:02.0 64 76 2:27.637 41.453 57 163 0
12:47:37.5 65 78 3:35.477 28.402 57 164 0
12:50:26.3 66 79 2:48.779 36.260 57 162 0
12:53:21.2 67 80 2:54.899 34.992 58 163 0
12:56:19.3 68 82 2:58.056 34.371 58 164 0
12:59:17.4 69 82 2:58.137 34.356 60 163 0
13:02:21.2 70 84 3:03.828 33.292 60 163 0
13:05:27.3 71 85 3:06.054 32.894 62 166 0
13:08:35.8 72 87 3:08.555 32.457 60 169 0
13:11:41.6 73 88 3:05.778 32.943 61 164 0
13:14:50.7 74 90 3:09.084 32.367 60 163 0
13:18:23.9 75 91 3:33.205 28.705 55 160 0
13:20:46.2 76 93 2:22.260 43.020 55 161 0
13:23:11.8 77 93 2:25.612 42.030 54 160 0
13:25:40.1 78 95 2:28.298 41.268 54 160 0
13:28:07.2 79 96 2:27.174 41.583 55 160 0
13:30:37.0 80 97 2:29.798 40.855 55 160 0
13:33:01.9 81 98 2:24.812 42.262 56 161 0
13:35:31.5 82 100 2:29.679 40.887 56 159 0
13:37:53.3 83 101 2:21.740 43.178 55 161 0
13:40:25.9 84 102 2:32.618 40.100 57 161 0
13:42:51.5 85 103 2:25.651 42.018 54 161 0
13:45:22.2 86 104 2:30.634 40.628 56 162 0
13:47:58.0 87 105 2:35.835 39.272 57 160 0
13:50:30.8 88 106 2:32.765 40.062 55 160 0
13:53:03.1 89 108 2:32.375 40.164 57 166 0
13:55:35.0 90 109 2:31.870 40.298 55 161 0
13:58:03.3 91 110 2:28.326 41.260 55 160 0
14:00:31.4 92 111 2:28.078 41.330 56 160 0
14:02:59.9 93 112 2:28.495 41.214 55 160 0
14:05:28.4 94 112 2:28.454 41.225 56 160 0
14:07:58.4 95 113 2:29.990 40.803 56 161 0
14:10:28.6 96 115 2:30.207 40.744 56 165 0
14:12:59.7 97 116 2:31.089 40.506 56 160 0
14:15:24.6 98 117 2:24.957 42.219 55 159 0
14:19:06.1 99 119 3:41.508 27.629 58 162 0
14:21:56.8 100 120 2:50.671 35.858 60 163 1
14:24:54.0 101 121 2:57.232 34.531 59 161 0
14:27:53.2 102 123 2:59.166 34.158 59 161 0
14:30:58.8 103 124 3:05.643 32.967 60 162 0
14:33:59.3 104 125 3:00.463 33.913 59 164 0
14:37:03.1 105 127 3:03.757 33.305 59 164 0
14:40:06.3 106 128 3:03.285 33.391 61 164 0
14:43:13.3 107 130 3:06.984 32.730 58 164 0
14:46:13.5 108 131 3:00.168 33.968 57 164 0
14:49:06.1 109 132 2:52.640 35.449 59 162 0
14:52:51.8 110 134 3:45.640 27.123 58 162 0
14:55:43.2 111 136 2:51.395 35.707 59 168 0
14:58:36.0 112 137 2:52.793 35.418 59 164 0
15:01:28.4 113 138 2:52.425 35.494 59 168 0
15:04:21.4 114 139 2:53.040 35.368 59 166 0
15:07:15.7 115 141 2:54.322 35.107 58 164 0
15:10:06.5 116 142 2:50.728 35.846 58 164 0
15:13:24.5 117 144 3:18.030 30.904 53 160 0
15:15:44.5 118 145 2:19.953 43.729 54 160 2
15:18:05.5 119 146 2:21.006 43.402 55 161 1
15:20:27.8 120 147 2:22.352 42.992 56 160 1
15:22:49.7 121 148 2:21.903 43.128 53 160 3
15:25:10.8 122 150 2:21.093 43.376 52 159 2
15:27:34.0 123 151 2:23.186 42.742 54 161 2
15:29:57.0 124 152 2:22.965 42.808 53 160 0
15:32:19.2 125 153 2:22.227 43.030 54 161 1
15:34:40.8 126 154 2:21.577 43.227 54 162 3
15:37:03.3 127 155 2:22.543 42.934 53 164 2
15:39:26.7 128 156 2:23.439 42.666 54 160 2
15:41:49.9 129 157 2:23.173 42.745 54 161 0
15:44:13.4 130 158 2:23.493 42.650 54 160 0
15:46:36.8 131 160 2:23.355 42.691 54 160 2
15:49:00.5 132 161 2:23.777 42.566 54 162 3
15:51:26.0 133 162 2:25.479 42.068 54 159 1
15:53:50.4 134 163 2:24.414 42.378 55 162 1
15:56:15.6 135 165 2:25.208 42.146 54 160 6
15:58:48.1 136 166 2:32.411 40.155 54 160 6
16:01:13.1 137 167 2:25.011 42.204 54 160 5
16:03:36.5 138 168 2:23.434 42.668 53 161 2
16:05:55.4 139 169 2:18.875 44.068 54 161 4
61 - PIG BigBird R - Comm
10:04:43.6 1 1 2:24.411 42.379 49 171 7
10:07:10.0 2 2 2:26.415 41.799 52 166 9
10:09:40.4 3 3 2:30.363 40.702 52 172 8
10:12:15.6 4 5 2:35.218 39.428 49 165 11
10:14:50.3 5 6 2:34.701 39.560 49 170 9
10:17:25.3 6 7 2:34.919 39.505 51 173 9
10:20:01.5 7 8 2:36.239 39.171 53 169 5
10:22:37.6 8 10 2:36.124 39.200 56 168 8
10:25:17.0 9 11 2:39.383 38.398 49 167 6
10:27:56.5 10 12 2:39.462 38.379 52 166 7
10:30:35.5 11 14 2:39.056 38.477 54 166 6
10:33:14.9 12 15 2:39.410 38.392 55 166 7
10:35:52.0 13 16 2:37.082 38.961 55 169 5
10:38:30.6 14 17 2:38.599 38.588 55 166 4
10:41:13.9 15 19 2:43.267 37.485 54 170 3
10:43:52.3 16 20 2:38.409 38.634 52 168 6
10:46:29.0 17 21 2:36.694 39.057 55 164 6
10:50:22.6 18 23 3:53.607 26.198 52 165 5
10:52:49.1 19 24 2:26.536 41.764 53 165 3
10:55:18.3 20 25 2:29.200 41.019 56 169 1
10:57:51.7 21 26 2:33.343 39.911 54 166 3
11:00:25.9 22 27 2:34.207 39.687 54 167 2
11:02:59.5 23 29 2:33.633 39.835 52 167 2
11:05:31.2 24 30 2:31.732 40.334 55 166 4
11:08:05.5 25 31 2:34.307 39.661 57 163 0
11:10:38.4 26 32 2:32.897 40.027 50 162 0
11:13:14.5 27 34 2:36.077 39.211 49 170 2
11:15:52.6 28 35 2:38.038 38.725 56 168 0
11:18:25.5 29 36 2:32.961 40.010 55 161 0
11:21:05.9 30 37 2:40.370 38.162 51 163 1
11:23:45.0 31 39 2:39.078 38.472 54 164 1
11:26:25.4 32 40 2:40.421 38.150 56 165 2
11:29:07.4 33 41 2:41.990 37.780 56 165 2
11:31:47.7 34 42 2:40.313 38.175 50 169 1
11:34:27.0 35 44 2:39.347 38.407 53 168 1
11:37:02.6 36 45 2:35.554 39.343 53 165 0
11:39:39.0 37 46 2:36.377 39.136 57 166 1
11:42:18.7 38 47 2:39.707 38.320 54 167 0
11:44:57.3 39 48 2:38.582 38.592 54 164 0
11:47:31.5 40 50 2:34.295 39.664 57 165 1
11:51:16.8 41 52 3:45.238 27.171 54 170 0
11:53:51.8 42 53 2:34.976 39.490 55 170 0
11:57:22.8 43 55 3:31.017 29.002 53 169 0
12:00:12.5 44 56 2:49.764 36.050 60 169 0
12:03:07.1 45 57 2:54.530 35.066 60 166 0
12:06:04.6 46 59 2:57.540 34.471 59 171 0
12:09:03.6 47 60 2:58.991 34.192 62 169 0
12:12:05.0 48 62 3:01.402 33.737 60 167 0
12:15:11.6 49 63 3:06.558 32.805 60 170 0
12:18:23.7 50 64 3:12.181 31.845 60 169 0
12:21:41.8 51 66 3:18.049 30.901 62 170 0
12:24:59.4 52 67 3:17.627 30.967 61 170 0
12:28:30.1 53 69 3:30.633 29.055 59 171 0
12:31:58.1 54 71 3:28.075 29.412 62 171 0
12:36:12.6 55 72 4:14.485 24.049 55 167 0
12:38:43.1 56 73 2:30.512 40.661 54 164 0
12:41:19.9 57 75 2:36.792 39.033 53 169 0
12:43:54.2 58 76 2:34.313 39.660 56 170 0
12:46:30.4 59 77 2:36.186 39.184 57 173 0
12:49:08.3 60 78 2:37.929 38.752 55 173 0
12:51:50.3 61 80 2:41.968 37.785 56 171 0
12:54:37.9 62 81 2:47.582 36.519 55 170 0
12:57:17.9 63 82 2:39.999 38.250 58 172 0
13:00:02.6 64 83 2:44.716 37.155 54 165 0
13:02:53.9 65 84 2:51.337 35.719 56 168 0
13:05:47.7 66 85 2:53.750 35.223 56 166 0
13:08:39.3 67 87 2:51.623 35.660 56 170 0
13:11:25.1 68 88 2:45.791 36.914 53 170 0
13:15:13.1 69 90 3:47.951 26.848 54 163 0
13:17:35.9 70 91 2:22.882 42.833 53 167 0
13:19:56.2 71 92 2:20.275 43.629 52 168 0
13:22:17.3 72 93 2:21.053 43.388 53 167 0
13:24:42.0 73 94 2:24.722 42.288 56 168 0
13:27:06.6 74 95 2:24.581 42.329 53 166 0
13:29:32.3 75 97 2:25.707 42.002 53 165 0
13:31:55.5 76 98 2:23.261 42.719 52 165 0
13:34:17.1 77 99 2:21.574 43.228 55 165 0
13:36:42.8 78 100 2:25.664 42.014 54 161 0
13:39:07.7 79 102 2:24.962 42.218 56 168 0
13:41:30.3 80 103 2:22.559 42.930 53 165 0
13:43:57.7 81 104 2:27.422 41.513 53 167 0
13:47:29.1 82 105 3:31.415 28.948 52 165 0
13:49:48.1 83 106 2:18.948 44.045 54 169 0
13:52:12.4 84 107 2:24.289 42.415 53 167 0
13:54:35.4 85 109 2:23.007 42.795 54 163 0
13:57:07.5 86 110 2:32.155 40.222 55 165 0
13:59:31.7 87 111 2:24.181 42.447 52 164 0
14:01:56.7 88 112 2:25.022 42.200 53 164 0
14:04:24.8 89 112 2:28.072 41.331 51 162 0
14:06:59.6 90 113 2:34.739 39.550 53 161 0
14:09:26.9 91 114 2:27.357 41.532 53 170 0
14:12:00.1 92 115 2:33.150 39.961 54 166 0
14:14:30.6 93 116 2:30.531 40.656 52 169 0
14:16:59.7 94 118 2:29.069 41.055 51 169 0
14:19:26.2 95 119 2:26.523 41.768 56 167 0
14:21:53.0 96 120 2:26.818 41.684 54 164 1
14:24:21.3 97 121 2:28.291 41.270 57 166 0
14:26:48.0 98 122 2:26.687 41.721 54 167 0
14:29:16.0 99 123 2:28.046 41.339 55 167 0
14:31:50.2 100 124 2:34.152 39.701 54 168 0
14:35:29.2 101 126 3:39.058 27.938 53 161 0
14:37:42.2 102 127 2:12.938 46.036 49 168 0
14:39:57.1 103 128 2:14.971 45.343 51 170 0
14:42:12.0 104 129 2:14.877 45.375 52 171 0
14:44:26.3 105 130 2:14.327 45.560 47 169 0
14:46:39.8 106 131 2:13.469 45.853 50 164 0
14:48:54.9 107 132 2:15.034 45.322 51 160 0
14:51:10.0 108 133 2:15.138 45.287 47 170 0
14:53:25.9 109 134 2:15.864 45.045 50 165 0
14:55:42.3 110 135 2:16.495 44.837 52 164 0
14:57:58.9 111 137 2:16.537 44.823 50 168 0
15:00:18.2 112 138 2:19.267 43.944 53 164 0
15:02:36.6 113 139 2:18.477 44.195 45 164 0
15:04:58.6 114 139 2:21.961 43.110 52 162 1
15:07:21.0 115 141 2:22.370 42.987 51 168 0
15:09:43.8 116 142 2:22.850 42.842 43 168 0
15:12:08.6 117 143 2:24.781 42.271 44 161 0
15:14:31.2 118 144 2:22.561 42.929 48 171 2
15:16:53.9 119 145 2:22.745 42.874 49 165 1
15:19:19.9 120 147 2:25.978 41.924 50 167 1
15:21:43.7 121 148 2:23.864 42.540 50 166 2
15:25:30.1 122 150 3:46.388 27.033 49 165 3
15:27:49.5 123 151 2:19.329 43.925 53 159 2
15:30:12.5 124 152 2:23.041 42.785 50 163 1
15:32:36.1 125 153 2:23.625 42.611 50 166 2
15:35:01.3 126 154 2:25.133 42.168 50 169 3
15:37:27.2 127 155 2:25.969 41.927 52 166 2
15:39:54.1 128 157 2:26.867 41.670 50 170 0
15:42:21.7 129 157 2:27.592 41.466 53 163 1
15:44:52.0 130 159 2:30.331 40.710 54 165 0
15:47:21.9 131 160 2:29.851 40.841 50 162 3
15:49:54.8 132 161 2:32.973 40.007 55 169 3
15:52:24.1 133 163 2:29.259 41.003 53 170 2
15:54:53.4 134 164 2:29.280 40.997 51 168 2
15:57:17.7 135 165 2:24.307 42.410 51 170 5
15:59:43.9 136 166 2:26.232 41.851 48 164 8
16:02:14.5 137 168 2:30.603 40.637 51 172 3
16:04:35.0 138 169 2:20.437 43.578 49 166 0
78 - Mort Trike Mort Trikes - Comm
10:04:45.5 1 1 2:23.226 42.730 63 167 9
10:07:06.0 2 2 2:20.555 43.542 62 167 9
10:09:31.0 3 3 2:24.922 42.230 64 168 8
10:11:59.4 4 4 2:28.482 41.217 65 170 9
10:14:24.3 5 6 2:24.882 42.241 61 169 14
10:16:51.1 6 7 2:26.772 41.697 63 168 6
10:19:23.3 7 8 2:32.252 40.197 66 168 8
10:21:59.1 8 9 2:35.797 39.282 63 171 8
10:24:31.5 9 11 2:32.376 40.164 66 169 5
10:27:13.7 10 12 2:42.138 37.746 67 169 8
10:29:48.1 11 13 2:34.421 39.632 67 168 6
10:32:26.7 12 14 2:38.614 38.584 68 169 7
10:35:05.9 13 16 2:39.225 38.436 67 169 4
10:38:36.8 14 17 3:30.862 29.024 62 170 5
10:40:57.3 15 19 2:20.533 43.548 66 169 4
10:43:20.2 16 20 2:22.874 42.835 66 170 4
10:45:43.7 17 21 2:23.505 42.647 67 170 8
10:48:06.9 18 22 2:23.225 42.730 65 171 5
10:50:41.1 19 23 2:34.202 39.688 69 170 5
10:53:07.8 20 24 2:26.672 41.726 66 170 4
10:55:34.2 21 25 2:26.389 41.806 66 169 3
10:58:04.3 22 26 2:30.143 40.761 66 169 3
11:00:32.7 23 27 2:28.411 41.237 66 170 2
11:02:59.9 24 29 2:27.133 41.595 65 170 2
11:05:27.1 25 30 2:27.229 41.568 67 169 0
11:09:27.1 26 32 3:59.955 25.505 64 169 0
11:11:48.4 27 33 2:21.329 43.303 66 176 3
11:14:11.7 28 34 2:23.322 42.701 64 176 0
11:16:34.8 29 35 2:23.096 42.768 67 173 0
11:18:59.5 30 36 2:24.689 42.298 67 177 0
11:21:25.1 31 38 2:25.655 42.017 66 175 1
11:23:50.5 32 39 2:25.404 42.090 63 177 0
11:26:15.3 33 40 2:24.785 42.270 67 179 1
11:28:48.0 34 41 2:32.627 40.098 69 177 1
11:31:18.5 35 42 2:30.525 40.658 67 180 1
11:33:53.1 36 43 2:34.572 39.593 69 179 1
11:36:27.6 37 45 2:34.555 39.598 68 174 3
11:38:57.4 38 46 2:29.750 40.868 70 175 1
11:41:26.4 39 47 2:29.000 41.074 71 174 1
11:44:57.8 40 48 3:31.412 28.948 71 174 0
11:47:21.5 41 50 2:23.723 42.582 66 176 0
11:49:49.4 42 51 2:27.893 41.381 72 175 1
11:52:20.4 43 52 2:31.025 40.523 72 173 0
11:54:47.7 44 54 2:27.259 41.559 71 175 0
11:57:22.7 45 55 2:35.061 39.468 69 174 0
12:00:02.1 46 56 2:39.348 38.407 73 176 0
12:02:47.1 47 57 2:45.012 37.088 73 176 0
12:05:36.8 48 59 2:49.700 36.064 73 176 0
12:08:19.5 49 60 2:42.707 37.614 70 175 0
12:11:49.0 50 62 3:29.502 29.212 69 174 0
12:14:18.5 51 63 2:29.492 40.939 71 175 0
12:16:48.0 52 63 2:29.509 40.934 71 176 0
12:19:21.7 53 65 2:33.662 39.828 70 175 0
12:21:55.0 54 66 2:33.340 39.911 69 173 0
12:24:27.8 55 67 2:32.771 40.060 72 177 0
12:27:03.5 56 68 2:35.752 39.293 72 176 0
12:29:39.1 57 70 2:35.547 39.345 70 176 0
12:32:14.8 58 71 2:35.754 39.293 72 174 0
12:34:53.4 59 72 2:38.534 38.604 72 176 0
12:37:32.7 60 73 2:39.303 38.417 72 176 0
12:40:12.4 61 74 2:39.722 38.317 73 175 0
12:43:44.4 62 76 3:31.961 28.873 70 173 0
12:46:09.6 63 77 2:25.254 42.133 69 175 0
12:48:36.4 64 78 2:26.774 41.697 68 176 0
12:51:04.9 65 79 2:28.540 41.201 71 176 0
12:53:35.2 66 81 2:30.253 40.731 70 175 0
12:56:04.9 67 82 2:29.688 40.885 71 173 0
12:58:36.8 68 82 2:31.912 40.286 69 176 0
13:01:11.6 69 83 2:34.789 39.538 71 175 0
13:03:51.5 70 85 2:39.918 38.270 69 175 0
13:06:32.4 71 86 2:40.926 38.030 71 175 0
13:09:13.1 72 87 2:40.716 38.080 73 175 0
13:11:52.3 73 88 2:39.170 38.449 72 175 0
13:14:34.7 74 90 2:42.400 37.685 71 175 0
13:17:15.3 75 91 2:40.590 38.109 72 176 0
13:20:05.6 76 92 2:50.295 35.938 72 176 0
13:23:42.3 77 94 3:36.765 28.233 69 175 0
13:26:08.2 78 95 2:25.847 41.962 71 174 0
13:28:31.7 79 96 2:23.472 42.656 69 174 0
13:30:56.6 80 97 2:24.974 42.214 70 174 0
13:33:20.8 81 99 2:24.196 42.442 71 175 0
13:35:46.0 82 100 2:25.121 42.172 68 174 0
13:38:10.4 83 101 2:24.493 42.355 70 175 0
13:40:35.4 84 102 2:24.961 42.218 71 175 0
13:43:01.5 85 104 2:26.079 41.895 70 175 0
13:45:31.2 86 104 2:29.745 40.869 72 175 0
13:47:58.8 87 105 2:27.522 41.485 67 176 0
13:50:27.6 88 106 2:28.869 41.110 71 175 0
13:53:01.0 89 108 2:33.383 39.900 72 175 0
13:55:31.9 90 109 2:30.902 40.556 69 175 0
13:58:01.7 91 110 2:29.809 40.852 71 175 0
14:01:49.6 92 112 3:47.845 26.860 70 180 0
14:04:25.1 93 112 2:35.540 39.347 70 179 0
14:07:01.7 94 113 2:36.614 39.077 72 180 0
14:09:34.3 95 114 2:32.622 40.099 68 180 0
14:12:07.0 96 115 2:32.651 40.091 68 177 0
14:14:29.2 97 116 2:22.171 43.047 67 179 0
14:16:48.4 98 118 2:19.237 43.954 69 177 0
14:19:29.2 99 119 2:40.845 38.049 67 182 0
14:22:13.5 100 120 2:44.294 37.250 66 178 0
14:24:52.7 101 121 2:39.201 38.442 70 177 0
14:27:22.4 102 122 2:29.656 40.894 70 181 0
14:30:15.4 103 124 2:52.981 35.380 71 181 0
14:32:54.1 104 125 2:38.757 38.549 70 177 0
14:35:41.0 105 126 2:46.827 36.685 72 182 0
14:38:25.6 106 127 2:44.597 37.182 72 176 0
14:41:14.1 107 129 2:48.543 36.311 71 178 0
14:43:55.3 108 130 2:41.229 37.958 70 180 0
14:47:15.8 109 132 3:20.466 30.529 68 174 0
14:49:40.3 110 133 2:24.511 42.350 71 174 0
14:52:13.4 111 134 2:33.087 39.977 69 176 0
14:54:49.6 112 135 2:36.237 39.171 71 175 0
14:57:31.5 113 136 2:41.875 37.807 72 176 0
15:00:11.9 114 138 2:40.417 38.151 73 175 0
15:02:47.2 115 139 2:35.240 39.423 69 174 0
15:05:21.9 116 140 2:34.693 39.562 72 176 0
15:08:03.8 117 141 2:41.981 37.782 74 179 0
15:11:45.9 118 143 3:42.019 27.565 66 175 1
15:14:22.9 119 144 2:37.074 38.963 70 176 0
15:16:56.7 120 145 2:33.734 39.809 68 174 1
15:19:29.8 121 147 2:33.109 39.972 72 173 2
15:22:03.5 122 148 2:33.762 39.802 71 175 0
15:24:39.5 123 149 2:35.989 39.234 70 174 3
15:27:16.2 124 151 2:36.690 39.058 69 177 1
15:29:53.9 125 152 2:37.727 38.801 69 175 2
15:32:33.9 126 153 2:39.932 38.266 70 175 2
15:35:15.9 127 154 2:41.997 37.778 70 176 1
15:38:36.9 128 156 3:20.992 30.449 69 174 3
15:41:09.3 129 157 2:32.424 40.151 69 174 4
15:43:41.4 130 158 2:32.087 40.240 71 173 2
15:46:16.7 131 159 2:35.362 39.392 69 175 3
15:48:47.2 132 161 2:30.497 40.665 69 175 1
15:51:20.6 133 162 2:33.366 39.905 66 175 1
15:53:54.2 134 163 2:33.567 39.852 68 176 2
15:56:35.0 135 165 2:40.877 38.041 68 173 4
15:59:19.9 136 166 2:44.816 37.132 63 175 5
16:02:01.3 137 168 2:41.433 37.910 70 174 3
16:04:35.3 138 169 2:34.006 39.739 67 173 0
50 - Zeus SMS/BGS - Open
10:04:44.7 1 1 2:10.866 46.765 54 173 9
10:06:56.3 2 2 2:11.589 46.508 57 175 7
10:09:12.4 3 3 2:16.125 44.959 57 174 8
10:11:31.4 4 4 2:19.031 44.019 57 174 7
10:13:48.9 5 5 2:17.496 44.510 57 174 7
10:16:11.5 6 7 2:22.587 42.921 59 174 6
10:18:28.4 7 8 2:16.904 44.703 57 170 7
10:20:50.6 8 9 2:22.236 43.027 57 173 7
10:23:21.4 9 10 2:30.732 40.602 58 174 5
10:26:41.9 10 12 3:20.517 30.521 73 183 7
10:29:04.8 11 13 2:22.946 42.813 56 173 6
10:31:24.3 12 14 2:19.449 43.887 60 173 7
10:33:55.6 13 15 2:31.361 40.433 62 175 7
10:36:30.1 14 16 2:34.475 39.618 62 173 3
10:39:06.9 15 18 2:36.819 39.026 60 171 5
10:44:13.5 16 20 5:06.586 19.962 78 186 4
10:46:37.4 17 21 2:23.877 42.536 61 172 5
10:48:53.2 18 22 2:15.824 45.058 57 170 6
10:51:14.9 19 23 2:21.684 43.195 62 172 3
10:53:35.9 20 24 2:21.043 43.391 59 173 3
10:55:56.6 21 26 2:20.675 43.505 58 172 3
10:58:17.8 22 26 2:21.212 43.339 59 173 3
11:00:40.3 23 27 2:22.458 42.960 60 172 2
11:03:04.7 24 29 2:24.409 42.380 59 171 4
11:06:46.1 25 30 3:41.428 27.639 77 183 3
11:08:56.1 26 32 2:10.019 47.070 55 170 4
11:11:03.3 27 33 2:07.153 48.131 54 174 1
11:13:14.3 28 34 2:10.993 46.720 57 170 2
11:15:28.0 29 35 2:13.666 45.786 50 174 0
11:17:46.0 30 36 2:18.065 44.327 58 173 0
11:20:00.3 31 37 2:14.269 45.580 57 171 2
11:22:17.2 32 38 2:16.891 44.707 52 176 1
11:24:34.8 33 39 2:17.590 44.480 58 172 1
11:26:53.8 34 40 2:19.027 44.020 59 171 2
11:29:17.5 35 41 2:23.708 42.586 59 172 1
11:31:37.1 36 42 2:19.605 43.838 58 172 2
11:33:51.8 37 43 2:14.678 45.442 57 175 1
11:37:22.8 38 45 3:30.997 29.005 83 185 1
11:39:46.4 39 46 2:23.651 42.603 58 172 1
11:42:03.6 40 47 2:17.139 44.626 57 173 0
11:44:24.3 41 48 2:20.689 43.500 59 172 0
11:46:53.4 42 49 2:29.090 41.049 55 172 0
11:49:16.3 43 51 2:22.945 42.814 59 175 0
11:51:39.3 44 52 2:22.963 42.808 59 173 0
11:54:01.6 45 53 2:22.327 43.000 59 172 0
11:56:25.7 46 54 2:24.101 42.470 58 172 0
11:58:53.4 47 56 2:27.693 41.437 59 176 0
12:01:23.4 48 57 2:29.994 40.802 60 172 0
12:05:04.7 49 58 3:41.307 27.654 67 180 0
12:07:23.1 50 59 2:18.397 44.221 59 171 0
12:09:48.1 51 61 2:25.045 42.194 61 174 0
12:12:17.4 52 62 2:29.299 40.992 61 173 0
12:14:50.2 53 63 2:32.811 40.049 61 172 0
12:17:21.3 54 64 2:31.083 40.508 60 173 0
12:19:58.6 55 65 2:37.320 38.902 63 173 0
12:22:39.4 56 66 2:40.766 38.068 62 175 0
12:25:29.7 57 68 2:50.248 35.948 66 172 0
12:28:17.3 58 69 2:47.627 36.510 62 174 0
12:32:19.6 59 71 4:02.315 25.256 69 180 0
12:34:46.4 60 72 2:26.835 41.679 58 173 0
12:37:20.6 61 73 2:34.158 39.700 61 176 0
12:39:56.7 62 74 2:36.143 39.195 63 176 0
12:42:33.1 63 75 2:36.413 39.127 62 178 0
12:45:09.2 64 77 2:36.088 39.209 62 175 0
12:47:42.6 65 78 2:33.387 39.899 61 175 0
12:50:19.0 66 79 2:36.348 39.143 61 176 0
12:52:59.5 67 80 2:40.543 38.121 64 174 0
12:55:43.4 68 82 2:43.868 37.347 63 174 0
12:59:28.1 69 82 3:44.692 27.237 73 182 0
13:01:47.7 70 84 2:19.587 43.844 59 171 0
13:04:07.5 71 85 2:19.815 43.772 59 174 0
13:06:25.7 72 86 2:18.276 44.259 58 172 0
13:08:50.5 73 87 2:24.735 42.284 57 174 0
13:11:14.4 74 88 2:23.868 42.539 57 173 0
13:13:36.6 75 89 2:22.296 43.009 57 170 0
13:16:04.0 76 90 2:27.361 41.531 59 170 0
13:19:46.0 77 92 3:41.993 27.568 79 183 0
13:22:18.1 78 93 2:32.136 40.227 59 172 0
13:24:45.4 79 94 2:27.273 41.555 58 175 0
13:27:20.1 80 95 2:34.653 39.572 60 172 0
13:29:59.9 81 97 2:39.844 38.287 60 173 0
13:34:13.6 82 99 4:13.722 24.121 77 184 0
13:36:52.7 83 100 2:39.116 38.463 63 173 0
13:39:21.9 84 102 2:29.178 41.025 59 175 0
13:41:49.9 85 103 2:28.024 41.345 59 174 0
13:47:16.6 86 105 5:26.676 18.734 59 173 0
13:49:47.8 87 106 2:31.203 40.475 56 175 0
13:52:19.2 88 107 2:31.396 40.424 59 173 0
13:54:56.2 89 109 2:37.006 38.979 58 173 0
13:57:32.5 90 110 2:36.260 39.165 61 173 0
14:01:15.8 91 112 3:43.323 27.404 82 185 0
14:03:38.1 92 112 2:22.311 43.004 58 171 0
14:05:58.4 93 113 2:20.274 43.629 57 171 0
14:08:24.0 94 114 2:25.591 42.036 61 170 0
14:10:53.2 95 115 2:29.174 41.026 63 173 0
14:13:25.5 96 116 2:32.294 40.185 60 171 0
14:15:59.5 97 117 2:34.092 39.717 60 172 0
14:18:35.1 98 118 2:35.513 39.354 61 174 0
14:21:06.7 99 120 2:31.683 40.347 57 173 0
14:24:45.5 100 121 3:38.768 27.975 78 184 0
14:27:05.1 101 122 2:19.546 43.857 57 171 0
14:29:20.4 102 123 2:15.347 45.217 56 172 0
14:31:40.8 103 124 2:20.348 43.606 57 171 0
14:33:56.6 104 125 2:15.846 45.051 58 173 0
14:36:14.0 105 126 2:17.447 44.526 59 172 0
14:38:32.8 106 127 2:18.725 44.116 59 171 0
14:42:15.7 107 129 3:42.934 27.452 72 181 0
14:44:42.0 108 130 2:26.301 41.832 56 174 0
14:47:09.4 109 131 2:27.404 41.519 60 172 0
14:49:37.5 110 133 2:28.108 41.321 61 173 0
14:52:07.7 111 134 2:30.203 40.745 60 173 0
14:54:34.9 112 135 2:27.224 41.569 60 170 0
14:57:07.0 113 136 2:32.075 40.243 57 172 0
14:59:38.0 114 137 2:30.943 40.545 59 171 1
15:03:12.1 115 139 3:34.115 28.583 78 183 0
15:05:45.6 116 140 2:33.567 39.852 59 173 0
15:08:18.5 117 141 2:32.879 40.032 60 171 0
15:10:52.8 118 142 2:34.285 39.667 58 171 1
15:16:24.7 119 145 5:31.842 18.443 84 185 3
15:19:03.0 120 147 2:38.320 38.656 62 173 5
15:21:50.1 121 148 2:47.080 36.629 61 173 2
15:24:35.5 122 149 2:45.477 36.984 60 172 3
15:28:51.1 123 151 4:15.566 23.947 77 186 2
15:31:28.0 124 153 2:36.869 39.013 59 174 2
15:34:05.2 125 154 2:37.266 38.915 62 174 0
15:36:45.9 126 155 2:40.652 38.095 60 175 2
15:39:27.4 127 156 2:41.488 37.898 63 177 3
15:42:12.0 128 157 2:44.630 37.174 55 173 0
15:45:55.5 129 159 3:43.536 27.378 77 185 2
15:48:33.5 130 161 2:37.987 38.737 58 175 4
15:51:11.3 131 162 2:37.777 38.789 57 174 0
15:53:51.4 132 163 2:40.089 38.229 57 174 1
15:56:21.8 133 165 2:30.403 40.691 59 173 5
16:01:28.1 134 167 5:06.335 19.978 83 183 5
16:04:19.0 135 169 2:50.890 35.813 62 172 2
88 - Pace Maker EDEC - Vet
10:04:44.6 1 1 2:23.059 42.780 56 169 9
10:07:12.7 2 2 2:28.068 41.332 58 175 7
10:09:45.9 3 3 2:33.287 39.925 56 171 9
10:12:20.3 4 5 2:34.331 39.655 59 169 8
10:14:57.3 5 6 2:37.006 38.979 55 169 8
10:17:30.4 6 7 2:33.084 39.978 47 170 6
10:20:07.0 7 8 2:36.643 39.070 50 176 5
10:22:47.0 8 10 2:39.971 38.257 59 174 7
10:25:24.5 9 11 2:37.474 38.864 58 171 5
10:27:59.3 10 12 2:34.878 39.515 57 170 8
10:30:33.6 11 14 2:34.237 39.679 57 170 6
10:33:07.4 12 15 2:33.786 39.796 58 172 7
10:35:42.5 13 16 2:35.097 39.459 56 177 4
10:38:20.2 14 17 2:37.740 38.798 59 173 5
10:40:58.5 15 19 2:38.344 38.650 59 174 5
10:43:35.2 16 20 2:36.683 39.060 58 174 6
10:46:12.9 17 21 2:37.660 38.818 58 173 4
10:48:50.8 18 22 2:37.898 38.759 58 174 6
10:51:28.6 19 23 2:37.814 38.780 58 173 4
10:54:08.9 20 25 2:40.333 38.171 59 174 2
10:56:50.3 21 26 2:41.389 37.921 57 174 2
10:59:29.2 22 27 2:38.929 38.508 60 172 3
11:02:08.3 23 28 2:39.011 38.488 56 175 2
11:04:45.1 24 29 2:36.885 39.009 58 175 3
11:07:23.5 25 31 2:38.317 38.657 58 175 1
11:10:02.3 26 32 2:38.865 38.523 58 172 0
11:12:36.9 27 33 2:34.533 39.603 59 176 1
11:15:54.6 28 35 3:17.715 30.954 56 172 0
11:18:16.6 29 36 2:22.060 43.080 55 176 0
11:20:40.1 30 37 2:23.462 42.659 56 170 1
11:23:06.1 31 38 2:25.985 41.922 57 178 2
11:25:29.3 32 39 2:23.263 42.719 57 174 1
11:27:58.1 33 41 2:28.793 41.131 59 174 1
11:30:26.8 34 42 2:28.635 41.175 55 170 1
11:32:58.0 35 43 2:31.203 40.475 58 174 2
11:35:30.8 36 44 2:32.842 40.041 59 171 1
11:38:02.6 37 45 2:31.828 40.309 54 173 0
11:40:28.0 38 47 2:25.393 42.093 58 171 1
11:42:57.6 39 48 2:29.611 40.906 59 169 0
11:45:31.2 40 49 2:33.595 39.845 59 172 1
11:48:05.3 41 50 2:34.011 39.737 58 172 0
11:50:38.1 42 51 2:32.882 40.031 57 173 2
11:53:12.9 43 53 2:34.783 39.539 60 174 0
11:55:44.3 44 54 2:31.334 40.440 57 173 0
11:58:16.3 45 55 2:32.009 40.261 58 175 0
12:00:50.1 46 56 2:33.795 39.793 59 173 0
12:03:22.3 47 58 2:32.261 40.194 52 170 0
12:05:54.6 48 59 2:32.251 40.197 58 170 0
12:08:27.7 49 60 2:33.082 39.979 60 170 0
12:11:01.0 50 61 2:33.346 39.910 56 169 0
12:13:32.7 51 62 2:31.664 40.352 59 172 0
12:16:07.1 52 63 2:34.430 39.630 56 174 0
12:18:40.0 53 64 2:32.892 40.028 57 169 0
12:22:38.8 54 66 3:58.833 25.625 56 169 0
12:25:21.0 55 68 2:42.136 37.746 62 171 0
12:28:14.5 56 69 2:53.541 35.265 61 170 0
12:31:11.1 57 70 2:56.633 34.648 62 176 0
12:34:11.1 58 72 2:59.987 34.002 65 172 0
12:37:24.2 59 73 3:13.136 31.688 63 172 0
12:40:37.4 60 74 3:13.188 31.679 65 171 0
12:43:49.6 61 76 3:12.140 31.852 60 172 0
12:47:06.3 62 77 3:16.716 31.111 65 172 0
12:50:29.4 63 79 3:23.099 30.133 64 172 0
12:53:50.9 64 81 3:21.464 30.378 65 171 0
12:57:04.8 65 82 3:13.956 31.554 63 171 0
13:00:13.2 66 83 3:08.340 32.494 65 172 0
13:03:24.9 67 84 3:11.720 31.922 63 170 0
13:06:35.7 68 86 3:10.854 32.066 62 172 0
13:09:43.4 69 87 3:07.634 32.617 64 172 0
13:13:33.9 70 89 3:50.559 26.544 57 176 0
13:16:11.9 71 90 2:37.992 38.736 59 172 0
13:19:01.3 72 92 2:49.342 36.140 60 175 0
13:21:53.2 73 93 2:51.968 35.588 59 173 0
13:24:48.3 74 94 2:55.124 34.947 61 173 0
13:27:42.0 75 96 2:53.694 35.234 60 172 0
13:30:34.5 76 97 2:52.505 35.477 61 175 0
13:33:34.5 77 99 2:59.981 34.004 61 174 0
13:36:33.5 78 100 2:59.005 34.189 61 171 0
13:39:33.3 79 102 2:59.752 34.047 63 175 0
13:42:36.1 80 103 3:02.777 33.483 61 173 0
13:45:35.7 81 104 2:59.651 34.066 58 173 0
13:49:28.7 82 106 3:52.999 26.266 57 171 0
13:52:06.8 83 107 2:38.062 38.719 55 171 0
13:54:51.9 84 109 2:45.174 37.052 60 173 0
13:57:36.3 85 110 2:44.388 37.229 59 171 0
14:00:28.7 86 111 2:52.384 35.502 57 173 0
14:03:14.0 87 112 2:45.324 37.018 60 171 0
14:05:58.8 88 113 2:44.766 37.144 59 179 0
14:08:50.1 89 114 2:51.292 35.728 62 172 0
14:11:40.0 90 115 2:49.932 36.014 61 170 0
14:14:32.5 91 117 2:52.492 35.480 60 174 0
14:17:22.6 92 118 2:50.032 35.993 61 177 0
14:20:16.9 93 119 2:54.344 35.103 60 172 0
14:23:09.5 94 120 2:52.554 35.467 61 170 0
14:25:59.4 95 122 2:49.921 36.017 61 176 0
14:28:55.2 96 123 2:55.862 34.800 61 171 0
14:31:51.9 97 124 2:56.702 34.635 59 179 0
14:34:54.6 98 126 3:02.697 33.498 62 175 0
14:37:53.5 99 127 2:58.905 34.208 60 170 0
14:40:48.6 100 128 2:55.014 34.969 57 172 0
14:43:37.4 101 130 2:48.814 36.253 60 174 0
14:47:27.8 102 132 3:50.410 26.561 58 172 0
14:50:05.5 103 133 2:37.709 38.806 58 173 0
14:52:41.3 104 134 2:35.832 39.273 58 172 0
14:55:14.9 105 135 2:33.544 39.858 58 170 0
14:57:50.0 106 136 2:35.122 39.453 59 175 0
15:00:24.5 107 138 2:34.510 39.609 57 169 0
15:02:57.0 108 139 2:32.550 40.118 56 173 1
15:05:28.2 109 140 2:31.120 40.498 57 170 1
15:08:00.2 110 141 2:32.011 40.260 57 170 0
15:10:34.3 111 142 2:34.150 39.702 55 176 1
15:13:06.9 112 144 2:32.572 40.112 57 176 1
15:15:43.2 113 145 2:36.343 39.145 57 177 2
15:18:21.7 114 146 2:38.507 38.610 58 173 3
15:21:02.4 115 148 2:40.610 38.105 58 175 2
15:23:42.4 116 149 2:40.073 38.233 57 176 2
15:26:22.6 117 150 2:40.145 38.215 58 173 2
15:29:01.4 118 151 2:38.801 38.539 58 176 3
15:32:32.2 119 153 3:30.788 29.034 54 169 0
15:34:52.5 120 154 2:20.307 43.619 57 172 2
15:37:15.5 121 155 2:23.016 42.792 55 172 1
15:39:40.6 122 156 2:25.153 42.162 56 168 4
15:42:07.5 123 157 2:26.871 41.669 56 170 0
15:44:35.1 124 159 2:27.609 41.461 56 169 0
15:47:06.6 125 160 2:31.514 40.392 57 172 2
15:49:38.7 126 161 2:32.018 40.258 55 170 3
15:52:11.4 127 163 2:32.770 40.060 57 172 1
15:54:46.1 128 164 2:34.651 39.573 58 171 1
15:57:21.3 129 165 2:35.264 39.417 57 172 5
16:00:01.7 130 167 2:40.381 38.159 56 172 5
16:02:42.7 131 168 2:40.966 38.020 57 170 3
16:05:23.0 132 169 2:40.330 38.171 59 173 2
83 - POW Woodleigh - Comm
10:04:30.7 1 1 2:08.339 47.686 55 164 7
10:07:03.3 2 2 2:32.598 40.105 58 165 7
10:09:44.6 3 3 2:41.231 37.958 59 164 9
10:12:22.3 4 5 2:37.706 38.806 57 162 8
10:14:57.0 5 6 2:34.771 39.542 58 165 8
10:17:30.3 6 7 2:33.284 39.926 57 163 6
10:20:07.0 7 8 2:36.652 39.067 52 162 5
10:22:43.0 8 10 2:36.058 39.216 57 163 7
10:25:19.0 9 11 2:35.946 39.244 58 164 5
10:27:56.1 10 12 2:37.083 38.960 58 163 7
10:30:28.9 11 14 2:32.781 40.057 57 162 6
10:33:07.1 12 15 2:38.200 38.685 58 161 7
10:35:42.5 13 16 2:35.421 39.377 55 161 4
10:38:18.3 14 17 2:35.863 39.265 61 162 5
10:40:56.3 15 19 2:37.946 38.747 61 165 4
10:43:32.9 16 20 2:36.616 39.076 58 162 4
10:46:10.5 17 21 2:37.632 38.825 57 165 5
10:48:48.2 18 22 2:37.657 38.818 59 164 6
10:51:15.3 19 23 2:27.064 41.615 58 162 3
10:53:53.6 20 25 2:38.352 38.648 59 164 4
10:56:26.0 21 26 2:32.420 40.152 57 162 2
10:58:54.1 22 27 2:28.087 41.327 55 161 3
11:01:21.0 23 28 2:26.933 41.652 57 166 3
11:03:46.1 24 29 2:25.078 42.184 50 166 1
11:06:30.4 25 30 2:44.311 37.246 58 161 5
11:09:24.0 26 32 2:53.556 35.262 60 167 0
11:12:15.8 27 33 2:51.764 35.630 59 164 1
11:14:55.2 28 34 2:39.456 38.380 59 164 0
11:17:39.8 29 36 2:44.611 37.179 58 163 0
11:20:18.1 30 37 2:38.278 38.666 59 164 1
11:22:59.9 31 38 2:41.756 37.835 59 165 0
11:25:38.0 32 40 2:38.125 38.704 61 164 1
11:28:21.7 33 41 2:43.737 37.377 60 164 2
11:30:52.7 34 42 2:31.025 40.523 58 160 1
11:33:33.6 35 43 2:40.877 38.041 60 162 1
11:36:06.9 36 45 2:33.322 39.916 61 163 1
11:38:56.7 37 46 2:49.765 36.050 61 162 1
11:41:37.1 38 47 2:40.358 38.165 57 162 1
11:44:25.2 39 48 2:48.101 36.407 62 166 0
11:47:10.8 40 50 2:45.643 36.947 60 162 0
11:50:02.3 41 51 2:51.512 35.683 54 165 0
11:52:53.4 42 53 2:51.080 35.773 62 164 0
11:55:42.5 43 54 2:49.079 36.196 61 163 0
11:58:26.0 44 55 2:43.511 37.429 61 161 0
12:01:16.3 45 57 2:50.263 35.944 62 163 0
12:04:07.6 46 58 2:51.381 35.710 62 166 0
12:06:57.0 47 59 2:49.412 36.125 62 166 0
12:10:02.0 48 61 3:04.941 33.092 64 165 0
12:12:59.0 49 62 2:57.017 34.573 61 163 0
12:15:59.4 50 63 3:00.382 33.928 63 164 0
12:19:02.4 51 64 3:02.976 33.447 63 165 0
12:22:04.2 52 66 3:01.803 33.663 62 166 0
12:25:00.5 53 67 2:56.359 34.702 61 161 0
12:27:59.3 54 69 2:58.767 34.235 62 165 0
12:31:01.0 55 70 3:01.676 33.686 64 165 0
12:34:04.4 56 72 3:03.463 33.358 61 163 0
12:37:10.0 57 73 3:05.545 32.984 63 164 0
12:40:14.4 58 74 3:04.456 33.179 61 164 0
12:43:14.3 59 76 2:59.897 34.019 63 165 0
12:46:19.6 60 77 3:05.225 33.041 64 163 0
12:49:20.5 61 78 3:00.925 33.826 62 163 0
12:52:14.7 62 80 2:54.231 35.126 62 163 0
12:54:58.0 63 81 2:43.306 37.476 62 163 0
13:00:07.4 64 83 5:09.402 19.780 55 160 0
13:02:30.5 65 84 2:23.043 42.784 56 161 0
13:04:58.1 66 85 2:27.616 41.459 59 161 0
13:07:20.4 67 86 2:22.356 42.991 57 161 0
13:09:37.7 68 87 2:17.265 44.585 56 166 0
13:11:57.3 69 88 2:19.635 43.829 56 160 0
13:14:18.3 70 90 2:20.945 43.421 57 161 0
13:16:47.5 71 91 2:29.221 41.013 60 162 0
13:19:21.2 72 92 2:33.752 39.804 58 161 0
13:21:58.9 73 93 2:37.678 38.813 60 160 0
13:24:34.2 74 94 2:35.277 39.413 59 161 0
13:27:18.2 75 95 2:43.999 37.317 60 161 0
13:29:57.2 76 97 2:39.032 38.483 59 161 0
13:32:33.6 77 98 2:36.354 39.142 59 160 0
13:35:13.4 78 100 2:39.779 38.303 51 163 0
13:37:48.7 79 101 2:35.321 39.402 60 162 0
13:40:24.4 80 102 2:35.727 39.300 60 161 0
13:42:52.6 81 103 2:28.207 41.294 58 160 0
13:45:23.4 82 104 2:30.804 40.582 58 161 0
13:47:58.5 83 105 2:35.121 39.453 55 161 0
13:50:31.8 84 107 2:33.208 39.946 57 162 0
13:53:03.7 85 108 2:31.963 40.273 57 161 0
13:55:34.5 86 109 2:30.798 40.584 58 162 0
13:58:02.7 87 110 2:28.202 41.295 58 161 0
14:00:31.0 88 111 2:28.274 41.275 57 162 0
14:02:59.4 89 112 2:28.435 41.230 59 161 0
14:05:27.8 90 112 2:28.352 41.253 57 161 0
14:07:56.6 91 113 2:28.801 41.129 57 161 0
14:10:28.2 92 115 2:31.664 40.352 57 161 0
14:13:00.5 93 116 2:32.294 40.185 55 160 0
14:15:29.4 94 117 2:28.895 41.103 59 162 0
14:18:04.2 95 118 2:34.756 39.546 58 161 0
14:20:42.8 96 119 2:38.602 38.587 61 162 1
14:23:21.7 97 121 2:38.866 38.523 60 161 0
14:27:54.5 98 123 4:32.825 22.432 58 162 0
14:30:34.5 99 124 2:40.053 38.237 57 163 0
14:33:11.9 100 125 2:37.361 38.891 59 162 0
14:35:51.3 101 126 2:39.425 38.388 58 161 0
14:38:31.8 102 127 2:40.506 38.129 60 162 0
14:41:09.5 103 129 2:37.668 38.816 60 163 0
14:43:46.9 104 130 2:37.386 38.885 57 160 0
14:46:19.6 105 131 2:32.724 40.072 58 160 0
14:48:56.4 106 132 2:36.781 39.035 57 166 0
14:51:37.5 107 134 2:41.132 37.981 58 163 0
14:54:16.2 108 135 2:38.703 38.563 57 166 0
14:56:55.4 109 136 2:39.227 38.436 59 163 0
14:59:41.7 110 137 2:46.238 36.815 58 162 0
15:02:26.5 111 139 2:44.819 37.132 59 163 0
15:05:12.1 112 139 2:45.593 36.958 59 164 1
15:08:52.9 113 141 3:40.779 27.720 58 162 0
15:11:42.0 114 143 2:49.094 36.193 60 161 1
15:14:43.9 115 144 3:01.948 33.636 60 163 0
15:17:45.4 116 146 3:01.507 33.718 61 161 5
15:20:54.2 117 147 3:08.793 32.416 62 162 3
15:25:23.1 118 150 4:28.918 22.758 60 163 1
15:28:31.5 119 151 3:08.339 32.495 61 164 3
15:31:45.2 120 153 3:13.755 31.586 62 163 4
15:37:38.9 121 155 5:53.712 17.302 57 163 2
15:40:29.7 122 157 2:50.717 35.849 60 165 3
15:43:24.6 123 158 2:54.964 34.979 62 168 0
15:46:24.9 124 159 3:00.253 33.952 61 163 2
15:49:23.9 125 161 2:58.984 34.193 62 166 2
15:52:22.6 126 163 2:58.705 34.246 56 163 2
15:55:32.7 127 164 3:10.181 32.180 61 166 5
15:58:37.6 128 166 3:04.900 33.099 62 165 5
16:01:43.8 129 167 3:06.135 32.879 60 166 4
16:04:46.1 130 169 3:02.331 33.565 62 168 1
91 - Pioson Instinct - Open
10:04:47.0 1 1 2:25.664 42.014 59 145 9
10:07:28.1 2 2 2:41.132 37.981 61 148 8
10:10:21.9 3 4 2:53.779 35.217 60 147 7
10:14:53.8 4 6 4:31.867 22.511 59 151 13
10:17:38.2 5 7 2:44.423 37.221 59 145 8
10:20:26.0 6 9 2:47.782 36.476 59 147 6
10:23:16.8 7 10 2:50.855 35.820 62 147 6
10:26:14.3 8 11 2:57.431 34.492 61 149 5
10:29:02.4 9 13 2:48.132 36.400 58 145 6
10:32:55.9 10 15 3:53.473 26.213 56 146 8
10:35:27.3 11 16 2:31.474 40.403 60 146 4
10:37:57.0 12 17 2:29.700 40.882 57 147 5
10:40:34.3 13 18 2:37.273 38.913 61 145 4
10:43:13.3 14 20 2:38.947 38.503 59 144 5
10:45:49.8 15 21 2:36.584 39.084 60 147 6
10:48:26.2 16 22 2:36.352 39.142 58 145 5
10:51:08.7 17 23 2:42.460 37.671 60 147 3
10:53:52.0 18 25 2:43.383 37.458 61 149 4
10:57:23.4 19 26 3:31.407 28.949 57 147 2
10:59:50.0 20 27 2:26.585 41.751 57 145 2
11:02:21.7 21 28 2:31.662 40.353 60 146 1
11:04:46.2 22 29 2:24.525 42.346 58 146 3
11:07:10.0 23 31 2:23.731 42.580 58 146 1
11:09:39.9 24 32 2:29.900 40.827 59 145 0
11:12:16.0 25 33 2:36.187 39.184 59 144 1
11:14:50.1 26 34 2:34.093 39.716 60 146 0
11:17:25.5 27 36 2:35.324 39.402 60 145 0
11:19:58.5 28 37 2:33.033 39.991 58 148 2
11:22:38.7 29 38 2:40.190 38.205 60 150 1
11:26:10.7 30 40 3:32.048 28.861 56 145 2
11:28:39.4 31 41 2:28.651 41.170 58 143 2
11:31:07.9 32 42 2:28.548 41.199 57 145 1
11:33:37.3 33 43 2:29.391 40.966 58 145 1
11:36:04.8 34 45 2:27.532 41.483 57 144 1
11:38:30.2 35 46 2:25.390 42.094 58 145 1
11:40:55.1 36 47 2:24.863 42.247 57 145 2
11:43:21.3 37 48 2:26.235 41.850 57 145 1
11:45:47.8 38 49 2:26.456 41.787 53 148 1
11:48:18.4 39 50 2:30.592 40.640 58 144 0
11:50:50.6 40 52 2:32.242 40.199 59 145 1
11:53:25.8 41 53 2:35.128 39.451 60 147 0
11:56:05.9 42 54 2:40.158 38.212 59 146 0
12:00:24.2 43 56 4:18.265 23.697 61 148 0
12:03:09.1 44 57 2:44.896 37.114 62 147 0
12:05:53.0 45 59 2:43.902 37.339 60 145 0
12:08:31.5 46 60 2:38.549 38.600 59 144 0
12:11:10.7 47 61 2:39.194 38.444 60 144 0
12:13:45.7 48 62 2:34.933 39.501 62 145 0
12:16:23.0 49 63 2:37.325 38.900 60 145 0
12:18:55.3 50 64 2:32.346 40.172 59 144 0
12:22:45.5 51 66 3:50.196 26.586 61 146 0
12:25:23.9 52 68 2:38.430 38.629 57 145 0
12:28:03.3 53 69 2:39.384 38.398 59 148 0
12:30:39.6 54 70 2:36.292 39.157 59 145 0
12:33:18.4 55 71 2:38.796 38.540 58 146 0
12:35:59.6 56 72 2:41.223 37.960 61 146 0
12:38:39.2 57 73 2:39.520 38.365 60 146 0
12:41:18.3 58 75 2:39.128 38.460 58 147 0
12:43:59.7 59 76 2:41.381 37.923 61 146 0
12:46:49.2 60 77 2:49.574 36.090 60 147 0
12:50:21.1 61 79 3:31.819 28.893 58 144 0
12:52:51.3 62 80 2:30.264 40.728 60 146 0
12:55:20.7 63 81 2:29.341 40.980 60 145 0
12:57:52.7 64 82 2:31.988 40.266 59 146 0
13:00:24.1 65 83 2:31.471 40.404 58 149 0
13:02:53.0 66 84 2:28.855 41.114 58 144 0
13:05:25.4 67 85 2:32.377 40.164 59 148 0
13:08:00.8 68 87 2:35.442 39.372 60 148 0
13:10:38.1 69 88 2:37.260 38.916 61 149 0
13:13:13.6 70 89 2:35.564 39.341 58 147 0
13:15:53.0 71 90 2:39.403 38.393 60 149 0
13:18:34.2 72 91 2:41.214 37.962 60 150 0
13:21:21.0 73 93 2:46.788 36.693 62 145 0
13:24:44.4 74 94 3:23.375 30.092 58 144 0
13:29:02.7 75 96 4:18.257 23.697 56 146 0
13:31:28.1 76 98 2:25.429 42.082 58 145 0
13:33:54.7 77 99 2:26.585 41.751 59 148 0
13:36:22.5 78 100 2:27.793 41.409 58 145 0
13:38:52.4 79 101 2:29.912 40.824 57 145 0
13:41:24.5 80 103 2:32.133 40.228 59 145 0
13:43:56.4 81 104 2:31.898 40.290 51 150 0
13:47:26.8 82 105 3:30.351 29.094 59 144 0
13:50:03.0 83 106 2:36.198 39.181 57 148 0
13:52:39.1 84 108 2:36.132 39.198 59 143 0
13:55:16.4 85 109 2:37.256 38.917 59 145 0
13:57:55.7 86 110 2:39.311 38.415 59 145 0
14:00:33.1 87 111 2:37.434 38.873 60 147 0
14:03:17.3 88 112 2:44.182 37.276 60 144 0
14:07:07.2 89 113 3:49.882 26.622 59 148 0
14:09:52.7 90 114 2:45.577 36.962 60 145 0
14:12:39.0 91 116 2:46.269 36.808 60 145 0
14:15:21.8 92 117 2:42.793 37.594 62 145 0
14:18:03.2 93 118 2:41.368 37.926 61 145 0
14:20:43.7 94 119 2:40.513 38.128 60 144 1
14:23:20.8 95 121 2:37.133 38.948 60 147 0
14:26:08.6 96 122 2:47.772 36.478 61 145 0
14:28:58.3 97 123 2:49.685 36.067 58 145 0
14:31:49.9 98 124 2:51.644 35.655 55 147 0
14:35:23.8 99 126 3:33.878 28.614 58 144 0
14:37:55.0 100 127 2:31.166 40.485 59 145 0
14:40:18.6 101 128 2:23.657 42.601 56 145 0
14:42:46.5 102 129 2:27.840 41.396 60 149 0
14:45:22.4 103 131 2:35.988 39.234 60 147 0
14:48:01.1 104 132 2:38.693 38.565 61 145 0
14:50:38.8 105 133 2:37.701 38.808 59 146 0
14:53:20.0 106 134 2:41.166 37.973 61 145 0
14:56:00.4 107 136 2:40.403 38.154 60 147 0
14:58:41.3 108 137 2:40.912 38.033 61 148 0
15:01:23.4 109 138 2:42.067 37.762 61 147 0
15:04:09.9 110 139 2:46.473 36.763 62 146 0
15:07:00.1 111 140 2:50.275 35.942 62 146 1
15:10:17.4 112 142 3:17.277 31.022 56 145 0
15:12:50.8 113 143 2:33.357 39.907 59 143 2
15:15:20.6 114 145 2:29.844 40.842 57 147 1
15:17:50.5 115 146 2:29.917 40.823 57 146 6
15:20:19.2 116 147 2:28.722 41.151 58 144 1
15:22:51.2 117 148 2:32.000 40.263 56 145 3
15:25:25.6 118 150 2:34.359 39.648 59 147 2
15:28:03.0 119 151 2:37.364 38.891 60 147 2
15:30:43.1 120 152 2:40.157 38.213 59 144 2
15:33:20.6 121 153 2:37.442 38.871 58 146 1
15:36:02.9 122 155 2:42.307 37.706 58 145 3
15:38:49.6 123 156 2:46.768 36.698 61 148 0
15:42:38.0 124 157 3:48.357 26.800 61 145 0
15:45:21.7 125 159 2:43.715 37.382 59 144 0
15:48:04.2 126 160 2:42.514 37.658 59 144 3
15:50:42.6 127 162 2:38.385 38.640 61 144 1
15:58:10.4 128 166 7:27.805 13.667 70 146 7
16:02:33.9 129 168 4:23.430 23.232 53 143 3
16:05:03.4 130 169 2:29.500 40.936 59 146 1
68 - Contagious Heritage R - Comm
10:04:55.1 1 1 2:34.838 39.525 58 154 9
10:07:22.3 2 2 2:27.269 41.557 57 156 7
10:09:51.9 3 3 2:29.556 40.921 56 155 7
10:12:24.8 4 5 2:32.875 40.033 57 155 7
10:14:54.5 5 6 2:29.733 40.873 57 154 13
10:17:25.7 6 7 2:31.153 40.489 56 154 9
10:21:05.8 7 9 3:40.103 27.805 59 160 6
10:23:52.6 8 10 2:46.845 36.681 61 156 4
10:26:43.5 9 12 2:50.933 35.804 64 155 8
10:29:42.9 10 13 2:59.397 34.114 62 160 8
10:32:45.1 11 15 3:02.203 33.589 63 159 6
10:36:28.8 12 16 3:43.663 27.363 57 156 3
10:39:04.4 13 18 2:35.647 39.320 58 155 4
10:41:45.1 14 19 2:40.670 38.090 59 155 4
10:44:19.8 15 20 2:34.722 39.555 59 155 5
10:47:00.1 16 21 2:40.261 38.188 61 155 7
10:49:44.3 17 23 2:44.202 37.271 63 155 5
10:52:30.9 18 24 2:46.630 36.728 61 155 3
10:55:14.4 19 25 2:43.429 37.447 62 154 1
10:57:58.4 20 26 2:44.020 37.313 60 155 2
11:00:50.7 21 28 2:52.325 35.514 63 157 3
11:03:41.5 22 29 2:50.776 35.836 61 157 1
11:07:14.7 23 31 3:33.205 28.705 59 156 1
11:10:07.7 24 32 2:52.985 35.379 60 159 0
11:13:03.8 25 34 2:56.107 34.752 59 156 2
11:16:01.6 26 35 2:57.857 34.410 62 158 0
11:19:05.3 27 36 3:03.693 33.316 55 160 0
11:22:07.7 28 38 3:02.406 33.552 57 158 0
11:25:11.6 29 39 3:03.849 33.288 64 155 2
11:28:17.2 30 41 3:05.668 32.962 62 158 2
11:31:38.2 31 42 3:20.968 30.453 54 154 2
11:33:49.7 32 43 2:11.486 46.545 53 156 1
11:36:05.3 33 45 2:15.598 45.133 57 154 1
11:38:27.2 34 46 2:21.908 43.127 60 155 1
11:40:50.9 35 47 2:23.708 42.586 59 156 2
11:43:14.9 36 48 2:23.991 42.503 58 155 1
11:45:45.3 37 49 2:30.396 40.693 58 154 1
11:48:13.0 38 50 2:27.693 41.437 62 158 0
11:51:57.5 39 52 3:44.533 27.257 57 158 0
11:54:18.2 40 53 2:20.664 43.508 58 158 0
11:56:42.0 41 54 2:23.842 42.547 57 160 0
11:59:07.1 42 56 2:25.051 42.192 58 163 0
12:01:35.3 43 57 2:28.186 41.299 58 160 0
12:04:03.7 44 58 2:28.401 41.240 61 155 0
12:06:29.6 45 59 2:25.893 41.949 57 160 0
12:08:56.9 46 60 2:27.364 41.530 60 156 0
12:11:28.9 47 61 2:31.975 40.270 59 159 0
12:13:59.3 48 63 2:30.345 40.706 59 159 0
12:16:27.0 49 63 2:27.761 41.418 59 154 0
12:18:56.0 50 64 2:28.938 41.091 58 160 0
12:22:20.6 51 66 3:24.687 29.899 57 159 0
12:24:56.8 52 67 2:36.182 39.185 61 156 0
12:27:33.0 53 69 2:36.181 39.185 60 156 0
12:30:12.9 54 70 2:39.907 38.272 59 153 0
12:32:49.6 55 71 2:36.651 39.068 60 154 0
12:35:27.9 56 72 2:38.342 38.651 58 156 0
12:38:07.3 57 73 2:39.368 38.402 59 155 0
12:41:40.9 58 75 3:33.602 28.651 60 162 0
12:44:23.5 59 76 2:42.656 37.625 63 155 0
12:47:12.1 60 77 2:48.614 36.296 59 162 0
12:50:09.7 61 79 2:57.525 34.474 62 158 0
12:53:16.1 62 80 3:06.398 32.833 63 159 0
12:56:25.5 63 82 3:09.433 32.307 65 159 0
12:59:32.9 64 82 3:07.415 32.655 64 159 0
13:03:16.0 65 84 3:43.111 27.430 62 155 0
13:05:56.7 66 86 2:40.675 38.089 59 156 0
13:08:41.4 67 87 2:44.736 37.150 59 156 0
13:11:25.4 68 88 2:43.962 37.326 60 158 0
13:14:15.7 69 89 2:50.307 35.935 61 157 0
13:17:06.6 70 91 2:50.917 35.807 60 156 0
13:19:59.9 71 92 2:53.255 35.324 61 158 0
13:22:45.8 72 93 2:45.945 36.880 62 156 0
13:25:42.8 73 95 2:56.932 34.590 65 156 0
13:29:01.9 74 96 3:19.099 30.738 54 153 0
13:31:16.1 75 98 2:14.234 45.592 56 159 0
13:33:40.3 76 99 2:24.230 42.432 60 155 0
13:36:12.2 77 100 2:31.935 40.280 59 155 0
13:38:41.7 78 101 2:29.419 40.959 59 155 0
13:41:19.3 79 103 2:37.655 38.819 57 154 0
13:43:56.4 80 104 2:37.124 38.950 54 153 0
13:46:21.0 81 104 2:24.568 42.333 58 154 0
13:50:05.9 82 106 3:44.865 27.216 59 155 0
13:53:08.8 83 108 3:02.922 33.457 64 159 0
13:56:15.9 84 109 3:07.124 32.706 62 160 0
13:59:21.7 85 111 3:05.808 32.937 60 157 0
14:02:34.1 86 112 3:12.383 31.812 64 158 0
14:05:40.9 87 112 3:06.737 32.773 63 159 1
14:09:32.2 88 114 3:51.318 26.457 59 160 0
14:12:04.8 89 115 2:32.666 40.088 60 157 0
14:14:37.2 90 117 2:32.334 40.175 57 159 0
14:17:11.4 91 118 2:34.244 39.677 57 156 0
14:19:43.5 92 119 2:32.086 40.240 57 160 0
14:22:12.9 93 120 2:29.351 40.977 59 156 0
14:24:49.3 94 121 2:36.490 39.108 59 160 0
14:27:33.1 95 122 2:43.740 37.376 60 161 0
14:30:19.8 96 124 2:46.726 36.707 60 160 0
14:33:06.0 97 125 2:46.201 36.823 61 156 0
14:35:47.1 98 126 2:41.135 37.981 59 154 0
14:39:06.6 99 128 3:19.497 30.677 54 154 0
14:41:45.1 100 129 2:38.453 38.623 58 154 0
14:44:26.7 101 130 2:41.570 37.878 59 154 0
14:47:06.3 102 131 2:39.650 38.334 53 154 0
14:49:48.5 103 133 2:42.209 37.729 60 154 0
14:52:31.1 104 134 2:42.590 37.641 62 155 0
14:55:12.8 105 135 2:41.733 37.840 60 153 0
14:58:54.8 106 137 3:41.979 27.570 60 159 0
15:01:47.9 107 138 2:53.102 35.355 61 158 0
15:04:46.0 108 139 2:58.047 34.373 63 158 0
15:07:48.6 109 141 3:02.593 33.517 62 160 0
15:10:57.1 110 142 3:08.514 32.464 63 160 3
15:14:08.9 111 144 3:11.774 31.913 64 156 2
15:17:21.3 112 146 3:12.448 31.801 60 157 4
15:20:27.1 113 147 3:05.791 32.940 61 160 1
15:24:14.1 114 149 3:46.993 26.961 62 155 0
15:27:13.1 115 151 2:59.047 34.181 62 155 4
15:30:12.7 116 152 2:59.578 34.080 63 157 1
15:32:51.7 117 153 2:38.992 38.493 60 154 3
15:35:41.3 118 155 2:49.560 36.093 56 155 2
15:38:32.6 119 156 2:51.304 35.726 63 156 3
15:41:35.1 120 157 3:02.501 33.534 63 155 0
15:44:30.8 121 159 2:55.703 34.832 63 155 0
15:47:34.0 122 160 3:03.250 33.397 63 156 2
15:50:51.9 123 162 3:17.879 30.928 54 154 0
15:53:16.0 124 163 2:24.073 42.478 57 156 2
15:55:37.6 125 164 2:21.649 43.205 57 155 3
15:58:06.7 126 166 2:29.064 41.056 53 154 4
16:00:30.3 127 167 2:23.571 42.627 55 154 5
16:02:58.1 128 168 2:27.860 41.391 57 155 6
16:05:19.4 129 169 2:21.249 43.328 55 157 2
90 - Helter 2 Woodleigh - Comm
10:04:42.0 1 1 2:18.273 44.260 53 171 7
10:07:04.0 2 2 2:22.004 43.097 56 170 7
10:09:30.2 3 3 2:26.287 41.836 56 170 8
10:12:02.5 4 4 2:32.272 40.191 57 167 9
10:14:34.4 5 6 2:31.888 40.293 55 173 8
10:17:05.9 6 7 2:31.504 40.395 55 172 8
10:19:43.4 7 8 2:37.506 38.856 54 169 6
10:22:18.8 8 10 2:35.418 39.378 53 167 8
10:24:54.6 9 11 2:35.731 39.299 57 175 5
10:27:26.0 10 12 2:31.399 40.423 56 173 7
10:29:52.6 11 13 2:26.628 41.738 53 172 6
10:32:25.5 12 14 2:32.880 40.031 57 169 7
10:35:03.2 13 16 2:37.762 38.793 56 169 4
10:37:42.0 14 17 2:38.753 38.550 59 174 3
10:40:21.2 15 18 2:39.193 38.444 58 174 3
10:43:03.1 16 20 2:41.910 37.799 57 169 4
10:45:30.5 17 21 2:27.396 41.521 53 172 7
10:47:59.8 18 22 2:29.273 40.999 53 172 7
10:51:40.9 19 24 3:41.163 27.672 55 169 5
10:54:01.2 20 25 2:20.323 43.614 57 167 3
10:56:25.5 21 26 2:24.233 42.431 56 167 2
10:58:54.4 22 27 2:28.944 41.089 56 167 2
11:01:21.5 23 28 2:27.036 41.622 55 171 3
11:03:46.1 24 29 2:24.670 42.303 51 168 1
11:06:15.4 25 30 2:29.245 41.006 57 168 3
11:08:45.4 26 31 2:30.073 40.780 57 170 2
11:11:13.6 27 33 2:28.177 41.302 56 169 1
11:13:44.3 28 34 2:30.722 40.605 57 170 1
11:16:16.3 29 35 2:31.917 40.285 58 170 1
11:18:52.1 30 36 2:35.813 39.278 56 167 0
11:21:22.4 31 37 2:30.353 40.704 56 168 1
11:24:00.2 32 39 2:37.760 38.793 56 167 1
11:26:43.4 33 40 2:43.228 37.494 61 172 2
11:29:41.8 34 41 2:58.409 34.303 62 171 2
11:33:55.2 35 43 4:13.343 24.157 59 172 1
11:36:52.7 36 45 2:57.575 34.464 56 173 0
11:39:57.8 37 46 3:05.070 33.069 60 172 1
11:42:56.2 38 48 2:58.425 34.300 61 170 0
11:45:58.7 39 49 3:02.469 33.540 62 172 2
11:49:03.2 40 51 3:04.507 33.169 62 174 1
11:52:19.3 41 52 3:16.120 31.205 63 174 0
11:55:34.2 42 54 3:14.909 31.399 64 173 0
11:58:58.3 43 56 3:24.055 29.992 64 169 0
12:02:17.6 44 57 3:19.346 30.700 64 173 0
12:06:24.7 45 59 4:07.030 24.774 55 168 0
12:09:14.7 46 60 2:50.035 35.993 55 170 0
12:11:38.5 47 61 2:23.771 42.568 54 170 0
12:14:00.7 48 63 2:22.192 43.040 56 168 0
12:16:23.6 49 63 2:22.961 42.809 56 168 0
12:18:44.7 50 64 2:21.035 43.393 55 169 0
12:21:09.1 51 65 2:24.396 42.383 54 168 0
12:23:32.8 52 67 2:23.751 42.574 56 173 0
12:25:56.7 53 68 2:23.861 42.541 54 172 0
12:28:23.7 54 69 2:27.068 41.613 55 166 0
12:30:58.1 55 70 2:34.323 39.657 56 169 0
12:33:29.4 56 72 2:31.307 40.448 60 168 0
12:36:04.6 57 72 2:35.234 39.424 57 169 0
12:38:35.8 58 73 2:31.182 40.481 57 171 0
12:41:09.3 59 75 2:33.557 39.855 58 167 0
12:43:38.9 60 76 2:29.578 40.915 56 166 0
12:48:13.7 61 78 4:34.813 22.270 56 170 0
12:50:49.8 62 79 2:36.112 39.203 58 171 0
12:53:32.1 63 80 2:42.292 37.710 61 167 0
12:56:26.3 64 82 2:54.164 35.139 61 169 0
12:59:15.3 65 82 2:48.987 36.216 59 169 0
13:04:05.3 66 85 4:50.049 21.100 63 170 0
13:07:17.7 67 86 3:12.323 31.821 62 173 0
13:10:35.0 68 88 3:17.328 31.014 62 171 0
13:13:43.2 69 89 3:08.238 32.512 62 170 0
13:17:58.6 70 91 4:15.407 23.962 59 167 0
13:20:47.2 71 93 2:48.606 36.298 59 169 0
13:23:40.1 72 94 2:52.886 35.399 59 168 0
13:26:38.1 73 95 2:57.923 34.397 59 170 0
13:29:33.5 74 97 2:55.451 34.882 57 168 0
13:32:32.8 75 98 2:59.320 34.129 61 168 0
13:35:34.1 76 100 3:01.256 33.764 62 167 0
13:38:43.8 77 101 3:09.720 32.258 63 169 0
13:41:57.1 78 103 3:13.291 31.662 62 171 0
13:45:07.4 79 104 3:10.275 32.164 62 173 0
13:48:17.8 80 105 3:10.413 32.141 63 169 0
13:51:38.8 81 107 3:21.015 30.445 61 172 0
13:55:33.9 82 109 3:55.090 26.033 56 168 0
13:58:00.5 83 110 2:26.658 41.730 56 167 0
14:00:28.8 84 111 2:28.270 41.276 55 168 0
14:02:58.8 85 112 2:29.942 40.816 57 169 0
14:05:26.9 86 112 2:28.143 41.311 57 169 0
14:07:55.1 87 113 2:28.210 41.293 57 167 0
14:10:27.5 88 115 2:32.380 40.163 58 167 0
14:13:00.8 89 116 2:33.348 39.909 57 169 0
14:15:29.9 90 117 2:29.100 41.046 57 166 0
14:18:04.5 91 118 2:34.563 39.596 58 169 0
14:20:40.7 92 119 2:36.158 39.191 56 169 1
14:23:22.2 93 121 2:41.558 37.881 60 170 0
14:26:07.7 94 122 2:45.469 36.986 59 169 0
14:29:00.1 95 123 2:52.446 35.489 60 169 0
14:31:57.1 96 124 2:57.017 34.573 59 168 0
14:34:50.6 97 125 2:53.420 35.290 56 165 0
14:38:40.3 98 127 3:49.782 26.634 58 168 0
14:41:15.3 99 129 2:34.953 39.496 57 169 0
14:43:48.2 100 130 2:32.914 40.022 56 171 0
14:46:19.3 101 131 2:31.126 40.496 57 168 0
14:48:54.0 102 132 2:34.677 39.566 58 171 0
14:51:36.0 103 134 2:41.982 37.782 59 169 0
14:54:17.2 104 135 2:41.160 37.975 59 169 0
14:57:06.1 105 136 2:48.901 36.234 59 171 0
15:00:00.5 106 138 2:54.439 35.084 53 171 1
15:02:56.4 107 139 2:55.860 34.800 61 170 1
15:07:12.6 108 141 4:16.211 23.887 57 170 0
15:11:28.9 109 143 4:16.352 23.873 54 166 2
15:13:58.0 110 144 2:29.032 41.065 57 168 1
15:16:19.2 111 145 2:21.283 43.317 56 167 4
15:18:46.0 112 146 2:26.785 41.694 55 167 2
15:21:16.0 113 148 2:30.022 40.794 57 167 1
15:23:48.3 114 149 2:32.226 40.203 54 167 2
15:26:21.9 115 150 2:33.608 39.842 56 168 2
15:28:51.6 116 151 2:29.695 40.883 56 168 2
15:31:27.4 117 153 2:35.801 39.281 57 167 2
15:34:10.4 118 154 2:43.039 37.537 59 168 3
15:36:55.2 119 155 2:44.788 37.139 57 167 2
15:41:10.5 120 157 4:15.318 23.970 60 167 4
15:44:00.2 121 158 2:49.715 36.060 60 169 0
15:46:53.1 122 160 2:52.855 35.405 61 170 3
15:49:39.3 123 161 2:46.259 36.810 57 167 2
15:52:20.9 124 163 2:41.509 37.893 60 170 1
15:55:14.0 125 164 2:53.183 35.338 60 170 1
15:58:16.1 126 166 3:02.065 33.614 57 170 5
16:01:07.7 127 167 2:51.569 35.671 57 168 4
16:04:03.8 128 169 2:56.157 34.742 58 170 2
36 - Ceto SMS/BGS - Female
10:04:59.6 1 1 2:27.081 41.610 54 168 10
10:07:20.9 2 2 2:21.287 43.316 54 168 9
10:09:44.3 3 3 2:23.393 42.680 54 167 9
10:12:12.4 4 5 2:28.098 41.324 57 167 9
10:14:41.3 5 6 2:28.890 41.104 56 168 7
10:17:14.2 6 7 2:32.928 40.019 56 168 10
10:19:45.9 7 8 2:31.712 40.340 57 168 5
10:22:17.5 8 10 2:31.590 40.372 57 168 8
10:26:09.9 9 11 3:52.407 26.333 68 178 6
10:28:50.1 10 13 2:40.230 38.195 57 170 7
10:31:34.1 11 14 2:43.915 37.336 55 170 7
10:34:22.4 12 15 2:48.344 36.354 58 171 6
10:37:06.7 13 17 2:44.246 37.261 60 170 4
10:39:51.2 14 18 2:44.523 37.198 58 171 4
10:42:40.3 15 19 2:49.172 36.176 60 174 4
10:45:21.8 16 21 2:41.503 37.894 59 173 6
10:48:12.2 17 22 2:50.366 35.923 58 173 7
10:53:57.5 18 25 5:45.308 17.723 78 180 4
10:56:44.7 19 26 2:47.136 36.617 58 168 2
10:59:19.4 20 27 2:34.750 39.548 54 166 1
11:01:54.0 21 28 2:34.563 39.596 59 169 3
11:04:27.6 22 29 2:33.667 39.826 57 168 2
11:07:03.4 23 31 2:35.771 39.288 60 168 2
11:09:42.2 24 32 2:38.785 38.543 58 166 0
11:12:20.1 25 33 2:37.929 38.752 51 167 1
11:16:12.4 26 35 3:52.247 26.351 79 180 1
11:18:52.6 27 36 2:40.237 38.193 57 169 0
11:21:24.1 28 38 2:31.443 40.411 57 168 1
11:23:59.4 29 39 2:35.321 39.402 57 169 1
11:26:23.2 30 40 2:23.795 42.561 59 167 2
11:28:52.6 31 41 2:29.436 40.954 58 167 1
11:31:23.0 32 42 2:30.357 40.703 57 166 2
11:35:41.2 33 44 4:18.271 23.696 71 179 1
11:38:02.9 34 45 2:21.639 43.208 55 165 0
11:40:24.7 35 47 2:21.829 43.151 57 168 1
11:42:50.0 36 48 2:25.344 42.107 56 169 1
11:45:13.9 37 49 2:23.835 42.549 56 166 0
11:47:35.5 38 50 2:21.605 43.219 56 166 1
11:50:02.2 39 51 2:26.756 41.702 57 168 0
11:52:28.7 40 52 2:26.419 41.798 58 166 0
11:54:56.6 41 54 2:27.939 41.368 59 167 0
11:57:26.4 42 55 2:29.793 40.856 60 168 0
12:01:16.0 43 57 3:49.568 26.659 74 179 0
12:03:51.1 44 58 2:35.147 39.446 57 169 0
12:06:27.0 45 59 2:35.906 39.254 59 168 0
12:09:04.0 46 60 2:36.942 38.995 59 168 0
12:11:49.6 47 62 2:45.692 36.936 60 170 0
12:14:29.9 48 63 2:40.251 38.190 57 168 0
12:17:16.0 49 64 2:46.151 36.834 62 168 0
12:20:06.3 50 65 2:50.275 35.942 61 168 0
12:22:57.5 51 66 2:51.178 35.752 61 168 0
12:27:09.8 52 68 4:12.282 24.259 69 178 0
12:29:35.3 53 70 2:25.517 42.057 57 166 0
12:32:01.4 54 71 2:26.073 41.897 55 171 0
12:34:26.3 55 72 2:24.957 42.219 56 170 0
12:36:52.6 56 73 2:26.294 41.834 52 170 0
12:39:18.4 57 74 2:25.745 41.991 56 168 0
12:41:45.2 58 75 2:26.852 41.675 56 168 0
12:44:09.2 59 76 2:24.003 42.499 55 167 0
12:46:37.2 60 77 2:27.962 41.362 57 168 0
12:49:10.1 61 78 2:32.949 40.013 60 168 0
12:53:03.1 62 80 3:52.919 26.275 84 181 0
12:55:50.6 63 82 2:47.566 36.523 59 172 0
12:58:45.1 64 82 2:54.482 35.075 61 168 0
13:01:38.2 65 83 2:53.078 35.360 62 171 0
13:04:39.2 66 85 3:01.046 33.804 61 172 0
13:07:37.7 67 86 2:58.463 34.293 60 170 0
13:12:14.3 68 89 4:36.598 22.126 78 180 0
13:15:04.3 69 90 2:50.057 35.988 59 167 0
13:17:50.6 70 91 2:46.243 36.814 59 171 0
13:20:44.7 71 93 2:54.128 35.147 62 168 0
13:23:41.0 72 94 2:56.332 34.707 62 168 0
13:26:38.3 73 95 2:57.280 34.522 63 167 0
13:29:37.0 74 97 2:58.722 34.243 62 168 0
13:32:33.3 75 98 2:56.254 34.723 59 169 0
13:36:43.4 76 100 4:10.104 24.470 76 178 0
13:39:40.0 77 102 2:56.609 34.653 58 167 0
13:42:18.9 78 103 2:38.847 38.528 58 168 0
13:44:59.3 79 104 2:40.417 38.151 59 168 0
13:47:41.4 80 105 2:42.135 37.746 58 168 0
13:50:25.8 81 106 2:44.403 37.226 58 166 0
13:53:10.1 82 108 2:44.277 37.254 56 167 0
13:57:12.9 83 110 4:02.817 25.204 69 175 0
13:59:40.3 84 111 2:27.407 41.518 56 167 0
14:02:07.8 85 112 2:27.475 41.499 56 166 0
14:04:35.5 86 112 2:27.729 41.427 52 165 0
14:07:07.7 87 113 2:32.150 40.223 58 166 0
14:09:37.0 88 114 2:29.348 40.978 56 166 0
14:12:06.2 89 115 2:29.227 41.011 57 167 0
14:14:39.2 90 117 2:32.981 40.005 56 167 0
14:18:23.7 91 118 3:44.478 27.263 76 177 0
14:21:16.3 92 120 2:52.625 35.453 59 169 1
14:24:02.2 93 121 2:45.823 36.907 57 170 0
14:26:51.8 94 122 2:49.642 36.076 56 167 0
14:29:37.2 95 123 2:45.409 36.999 58 167 0
14:32:28.0 96 124 2:50.813 35.829 61 168 0
14:35:28.9 97 126 3:00.891 33.833 63 168 0
14:39:42.2 98 128 4:13.256 24.165 69 178 0
14:42:28.4 99 129 2:46.190 36.825 57 167 0
14:45:11.2 100 131 2:42.823 37.587 56 166 0
14:47:55.0 101 132 2:43.813 37.360 60 167 0
14:50:38.1 102 133 2:43.110 37.521 58 168 0
14:53:23.3 103 134 2:45.210 37.044 59 167 0
14:56:10.8 104 136 2:47.537 36.529 60 168 0
14:58:59.5 105 137 2:48.613 36.296 56 168 0
15:03:10.5 106 139 4:11.055 24.377 76 178 0
15:06:08.6 107 140 2:58.052 34.372 60 167 0
15:09:02.7 108 141 2:54.139 35.144 59 166 0
15:13:15.6 109 144 4:12.892 24.200 72 176 2
15:16:09.4 110 145 2:53.794 35.214 58 170 4
15:19:02.6 111 147 2:53.247 35.325 57 167 5
15:22:59.2 112 148 3:56.607 25.866 69 176 2
15:25:28.8 113 150 2:29.537 40.926 55 164 3
15:28:00.1 114 151 2:31.267 40.458 55 166 2
15:30:30.6 115 152 2:30.574 40.644 56 165 0
15:33:01.1 116 153 2:30.497 40.665 56 166 2
15:35:34.7 117 155 2:33.531 39.862 54 167 2
15:38:09.1 118 156 2:34.432 39.629 56 169 1
15:41:52.4 119 157 3:43.285 27.409 71 175 0
15:44:37.5 120 159 2:45.106 37.067 56 167 0
15:47:21.5 121 160 2:44.055 37.305 56 167 3
15:50:04.5 122 161 2:42.937 37.561 57 167 3
15:52:50.6 123 163 2:46.166 36.831 57 167 1
15:55:39.2 124 164 2:48.530 36.314 57 169 6
15:58:28.1 125 166 2:48.943 36.225 56 167 6
16:01:23.2 126 167 2:55.136 34.944 59 169 5
16:04:15.3 127 169 2:52.078 35.565 55 167 3
82 - Inferno Terzo R - Comm
10:04:26.4 1 1 2:06.769 48.277 55 172 8
10:06:32.7 2 2 2:06.349 48.437 56 175 9
10:08:44.5 3 3 2:11.792 46.437 55 173 7
10:10:54.7 4 4 2:10.122 47.033 53 175 8
10:13:07.0 5 5 2:12.371 46.234 55 177 11
10:15:17.1 6 6 2:10.077 47.049 57 173 6
10:17:30.9 7 7 2:13.760 45.754 56 173 6
10:19:45.1 8 8 2:14.260 45.583 57 175 5
10:21:59.1 9 9 2:13.923 45.698 56 176 8
10:24:12.1 10 10 2:13.057 45.995 57 174 4
10:26:25.3 11 12 2:13.221 45.939 57 175 6
10:28:39.2 12 13 2:13.883 45.712 56 175 7
10:30:58.6 13 14 2:19.375 43.910 59 173 7
10:33:23.4 14 15 2:24.812 42.262 61 174 7
10:35:49.5 15 16 2:26.130 41.881 60 175 5
10:38:12.1 16 17 2:22.566 42.927 59 173 4
10:40:36.1 17 18 2:24.023 42.493 61 172 4
10:42:52.8 18 19 2:16.699 44.770 55 173 4
10:46:38.7 19 21 3:45.860 27.096 57 174 5
10:48:59.2 20 22 2:20.538 43.547 59 176 7
10:51:25.8 21 23 2:26.580 41.752 59 177 4
10:53:58.1 22 25 2:32.325 40.177 60 174 4
10:56:34.7 23 26 2:36.591 39.083 61 177 1
10:59:14.1 24 27 2:39.349 38.406 60 178 2
11:01:52.6 25 28 2:38.539 38.602 59 176 3
11:04:30.0 26 29 2:37.377 38.888 60 176 1
11:07:12.6 27 31 2:42.625 37.633 61 178 1
11:10:00.3 28 32 2:47.699 36.494 61 176 1
11:12:42.4 29 33 2:42.050 37.766 61 175 1
11:15:28.0 30 35 2:45.638 36.948 56 176 0
11:18:17.4 31 36 2:49.418 36.124 61 177 0
11:21:07.5 32 37 2:50.062 35.987 63 176 1
11:23:58.6 33 39 2:51.134 35.761 61 175 1
11:28:52.1 34 41 4:53.536 20.849 66 178 1
11:32:37.5 35 43 3:45.367 27.156 71 179 2
11:36:52.7 36 45 4:15.205 23.981 71 179 0
11:43:32.5 37 48 6:39.833 15.306 72 178 1
11:47:21.8 38 50 3:49.269 26.694 68 177 0
11:51:01.6 39 52 3:39.742 27.851 73 178 0
11:54:58.2 40 54 3:56.678 25.858 70 179 0
11:58:54.3 41 56 3:56.035 25.928 74 178 0
12:03:34.6 42 58 4:40.354 21.830 60 174 0
12:06:12.0 43 59 2:37.356 38.893 60 176 0
12:13:06.2 44 62 6:54.171 14.777 60 177 0
12:15:39.3 45 63 2:33.126 39.967 60 176 0
12:18:23.8 46 64 2:44.528 37.197 60 177 0
12:21:12.0 47 65 2:48.149 36.396 61 177 0
12:23:59.9 48 67 2:47.949 36.440 63 175 0
12:26:48.5 49 68 2:48.563 36.307 60 177 0
12:29:40.3 50 70 2:51.797 35.623 61 176 0
12:38:20.2 51 73 8:39.897 11.772 59 175 0
12:40:49.1 52 74 2:28.910 41.099 56 178 0
12:43:13.8 53 76 2:24.757 42.278 57 173 0
12:45:41.7 54 77 2:27.885 41.384 57 170 0
12:48:07.7 55 78 2:26.004 41.917 57 179 0
12:50:34.2 56 79 2:26.501 41.774 59 174 0
12:53:01.4 57 80 2:27.232 41.567 54 174 0
12:55:30.4 58 81 2:28.974 41.081 59 178 0
12:57:58.7 59 82 2:28.274 41.275 59 176 0
13:00:29.1 60 83 2:30.424 40.685 57 175 0
13:03:02.8 61 84 2:33.671 39.825 59 178 0
13:06:32.7 62 86 3:29.866 29.161 63 177 0
13:09:23.1 63 87 2:50.469 35.901 62 175 0
13:12:48.7 64 89 3:25.609 29.765 62 176 0
13:15:35.3 65 90 2:46.538 36.748 61 178 0
13:18:27.2 66 91 2:51.945 35.593 65 178 0
13:23:02.9 67 93 4:35.679 22.200 57 174 0
13:25:21.9 68 94 2:19.011 44.025 58 171 0
13:27:42.6 69 96 2:20.673 43.505 58 174 0
13:30:07.0 70 97 2:24.383 42.387 56 173 0
13:32:30.8 71 98 2:23.858 42.542 59 175 0
13:34:53.8 72 99 2:23.015 42.793 57 177 0
13:37:22.2 73 101 2:28.324 41.261 57 172 0
13:39:46.1 74 102 2:23.931 42.520 59 174 0
13:42:12.0 75 103 2:25.873 41.954 59 175 0
13:44:41.9 76 104 2:29.952 40.813 60 176 0
13:47:07.8 77 105 2:25.927 41.939 59 176 0
13:49:31.4 78 106 2:23.540 42.636 59 174 0
13:52:01.5 79 107 2:30.115 40.769 58 173 0
13:54:35.9 80 109 2:34.359 39.648 59 178 0
13:57:12.5 81 110 2:36.596 39.081 59 178 0
13:59:50.0 82 111 2:37.563 38.842 61 176 0
14:02:33.1 83 112 2:43.041 37.537 59 173 0
14:05:10.7 84 112 2:37.626 38.826 61 174 0
14:07:45.8 85 113 2:35.091 39.461 60 174 0
14:10:25.7 86 115 2:39.962 38.259 59 174 0
14:13:07.8 87 116 2:42.048 37.767 62 176 0
14:15:53.3 88 117 2:45.526 36.973 61 175 0
14:18:37.1 89 118 2:43.771 37.369 64 174 0
14:22:08.4 90 120 3:31.294 28.964 56 173 0
14:24:13.9 91 121 2:05.497 48.766 57 174 0
14:26:25.7 92 122 2:11.842 46.419 57 173 0
14:28:38.5 93 123 2:12.809 46.081 57 173 0
14:30:53.1 94 124 2:14.624 45.460 59 174 0
14:33:06.5 95 125 2:13.375 45.886 57 176 0
14:35:16.6 96 126 2:10.074 47.050 60 174 0
14:37:35.5 97 127 2:18.933 44.050 59 175 0
14:40:10.0 98 128 2:34.421 39.632 62 174 0
14:47:52.7 99 132 7:42.703 13.227 59 181 0
14:50:33.0 100 133 2:40.303 38.178 57 177 0
14:53:10.4 101 134 2:37.400 38.882 58 178 0
14:55:46.2 102 136 2:35.869 39.264 58 179 0
14:58:23.9 103 137 2:37.693 38.810 61 175 0
15:00:59.1 104 138 2:35.192 39.435 57 179 0
15:03:39.3 105 139 2:40.152 38.214 62 176 0
15:06:27.8 106 140 2:48.504 36.320 62 178 0
15:13:19.8 107 144 6:52.022 14.854 61 175 2
15:16:00.1 108 145 2:40.290 38.181 61 173 4
15:18:39.3 109 146 2:39.221 38.437 59 175 0
15:21:02.6 110 148 2:23.289 42.711 56 173 2
15:23:33.0 111 149 2:30.381 40.697 55 174 2
15:26:13.1 112 150 2:40.094 38.228 63 174 3
15:28:53.5 113 151 2:40.393 38.156 57 180 2
15:31:38.2 114 153 2:44.714 37.155 61 174 4
15:34:24.5 115 154 2:46.300 36.801 62 175 1
15:37:14.6 116 155 2:50.120 35.975 61 176 1
15:43:00.1 117 158 5:45.545 17.711 67 175 0
15:46:46.4 118 160 3:46.252 27.049 66 176 1
15:50:28.8 119 162 3:42.454 27.511 70 178 0
15:54:22.0 120 164 3:53.189 26.245 70 177 1
15:58:21.6 121 166 3:59.589 25.544 70 177 5
16:02:36.6 122 168 4:15.022 23.998 71 179 3
16:06:42.5 123 169 4:05.850 24.893 72 176 2
27 - FBRD EDEC - Middle
10:05:06.6 1 1 2:33.600 39.844 61 175 6
10:07:46.8 2 2 2:40.209 38.200 60 174 11
10:10:22.9 3 4 2:36.060 39.216 64 175 7
10:13:06.7 4 5 2:43.861 37.349 63 175 11
10:15:47.5 5 6 2:40.781 38.064 59 176 15
10:18:34.4 6 8 2:46.917 36.665 63 175 5
10:21:18.9 7 9 2:44.504 37.203 61 176 6
10:24:04.9 8 10 2:45.931 36.883 67 176 5
10:26:45.9 9 12 2:41.036 38.004 64 173 8
10:29:32.8 10 13 2:46.925 36.663 65 175 5
10:32:15.5 11 14 2:42.678 37.620 65 174 7
10:34:58.6 12 16 2:43.053 37.534 63 176 5
10:37:45.6 13 17 2:47.063 36.633 65 175 4
10:40:34.2 14 18 2:48.593 36.300 67 176 4
10:43:13.9 15 20 2:39.735 38.313 65 173 5
10:47:02.0 16 21 3:48.091 26.831 64 175 7
10:50:02.7 17 23 3:00.636 33.880 66 177 5
10:53:09.8 18 24 3:07.174 32.697 69 176 4
10:56:20.7 19 26 3:10.816 32.073 67 179 1
10:59:31.1 20 27 3:10.468 32.131 69 176 3
11:02:45.8 21 28 3:14.698 31.433 68 176 2
11:06:03.7 22 30 3:17.909 30.923 68 176 2
11:09:25.0 23 32 3:21.308 30.401 66 179 0
11:12:44.3 24 33 3:19.272 30.712 73 179 2
11:16:46.0 25 35 4:01.733 25.317 66 175 0
11:19:28.9 26 37 2:42.893 37.571 64 175 0
11:22:17.1 27 38 2:48.197 36.386 65 177 1
11:25:08.9 28 39 2:51.714 35.641 65 176 1
11:28:02.3 29 41 2:53.457 35.283 67 177 1
11:30:58.1 30 42 2:55.763 34.820 68 177 2
11:34:01.7 31 44 3:03.593 33.335 67 177 1
11:37:04.5 32 45 3:02.789 33.481 69 176 0
11:40:10.3 33 46 3:05.871 32.926 68 173 1
11:43:11.9 34 48 3:01.616 33.697 66 177 1
11:47:18.4 35 50 4:06.413 24.836 64 174 0
11:50:21.2 36 51 3:02.881 33.464 68 176 1
11:53:31.5 37 53 3:10.304 32.159 69 173 0
11:56:47.0 38 55 3:15.442 31.314 72 177 0
12:00:07.6 39 56 3:20.625 30.505 66 177 0
12:04:05.4 40 58 3:57.745 25.742 58 174 0
12:06:39.1 41 59 2:33.717 39.813 65 174 0
12:09:16.3 42 60 2:37.191 38.934 64 175 0
12:11:57.6 43 62 2:41.370 37.925 63 174 0
12:14:36.6 44 63 2:39.017 38.486 65 179 0
12:17:23.3 45 64 2:46.695 36.714 67 176 0
12:20:06.8 46 65 2:43.430 37.447 65 174 0
12:22:43.0 47 66 2:36.267 39.164 66 176 0
12:25:26.8 48 68 2:43.728 37.379 66 177 0
12:28:11.8 49 69 2:44.987 37.094 65 179 0
12:30:58.7 50 70 2:46.980 36.651 63 175 0
12:33:46.4 51 72 2:47.673 36.500 68 176 0
12:36:23.0 52 72 2:36.624 39.074 65 175 0
12:40:10.6 53 74 3:47.521 26.899 63 173 0
12:42:50.9 54 75 2:40.373 38.161 66 173 0
12:45:41.8 55 77 2:50.885 35.814 65 175 0
12:48:35.2 56 78 2:53.368 35.301 70 174 0
12:51:30.9 57 80 2:55.728 34.827 67 176 0
12:54:27.8 58 81 2:56.890 34.598 66 175 0
12:57:29.3 59 82 3:01.532 33.713 69 175 0
13:00:32.9 60 83 3:03.540 33.344 66 174 0
13:03:36.3 61 84 3:03.421 33.366 69 175 0
13:06:35.5 62 86 2:59.233 34.145 66 175 0
13:10:29.4 63 88 3:53.884 26.167 66 178 0
13:13:12.5 64 89 2:43.107 37.521 65 174 0
13:15:53.7 65 90 2:41.189 37.968 66 175 0
13:18:36.9 66 92 2:43.168 37.507 65 174 0
13:21:22.4 67 93 2:45.520 36.974 66 175 0
13:24:08.2 68 94 2:45.796 36.913 66 175 0
13:26:59.2 69 95 2:51.029 35.783 69 175 0
13:29:44.6 70 97 2:45.422 36.996 69 175 0
13:32:29.4 71 98 2:44.752 37.147 64 172 0
13:35:13.4 72 100 2:44.002 37.317 61 172 0
13:37:52.5 73 101 2:39.151 38.454 65 174 0
13:40:31.3 74 102 2:38.722 38.558 65 174 0
13:43:19.8 75 104 2:48.510 36.318 68 176 0
13:46:20.7 76 104 3:00.960 33.820 68 177 0
13:50:27.0 77 106 4:06.301 24.848 64 175 0
13:53:24.9 78 108 2:57.899 34.402 68 172 0
13:56:30.9 79 109 3:05.966 32.909 68 178 0
13:59:45.1 80 111 3:14.180 31.517 68 176 0
14:03:03.9 81 112 3:18.844 30.778 72 176 0
14:06:17.5 82 113 3:13.612 31.610 71 178 0
14:10:47.2 83 115 4:29.656 22.696 64 175 0
14:13:32.8 84 116 2:45.628 36.950 67 175 0
14:16:21.6 85 117 2:48.811 36.254 64 175 0
14:19:06.8 86 119 2:45.135 37.061 67 177 0
14:21:58.3 87 120 2:51.554 35.674 68 176 0
14:24:56.1 88 121 2:57.744 34.432 69 173 0
14:27:52.6 89 123 2:56.524 34.670 65 176 0
14:31:50.5 90 124 3:57.872 25.728 65 178 0
14:35:08.9 91 126 3:18.481 30.834 71 176 0
14:38:30.7 92 127 3:21.791 30.328 69 175 0
14:41:52.0 93 129 3:21.313 30.400 66 175 0
14:45:18.5 94 131 3:26.424 29.648 70 175 0
14:49:07.5 95 132 3:48.989 26.726 66 173 0
14:51:48.2 96 134 2:40.712 38.081 65 176 0
14:54:23.4 97 135 2:35.278 39.413 62 173 0
14:57:06.6 98 136 2:43.125 37.517 64 176 0
14:59:52.8 99 137 2:46.211 36.821 61 176 0
15:02:31.5 100 139 2:38.723 38.558 64 175 0
15:05:14.3 101 139 2:42.802 37.592 65 176 1
15:08:01.9 102 141 2:47.573 36.521 63 175 0
15:10:51.8 103 142 2:49.963 36.008 64 178 1
15:13:34.2 104 144 2:42.384 37.688 63 179 2
15:17:20.6 105 146 3:46.350 27.038 64 175 4
15:20:07.3 106 147 2:46.728 36.706 64 175 4
15:22:56.1 107 148 2:48.820 36.252 67 173 2
15:25:47.0 108 150 2:50.880 35.815 64 174 2
15:28:40.0 109 151 2:52.955 35.385 63 174 2
15:31:37.2 110 153 2:57.254 34.527 67 174 4
15:35:02.3 111 154 3:25.055 29.846 63 178 3
15:37:44.8 112 156 2:42.501 37.661 61 176 3
15:40:29.5 113 157 2:44.710 37.156 63 173 3
15:43:10.1 114 158 2:40.643 38.097 66 177 0
15:45:52.9 115 159 2:42.781 37.597 65 176 2
15:48:36.7 116 161 2:43.772 37.369 64 175 4
15:51:23.9 117 162 2:47.253 36.591 65 175 1
15:54:12.7 118 164 2:48.722 36.273 67 175 0
15:56:51.7 119 165 2:39.035 38.482 62 174 6
15:59:38.0 120 166 2:46.273 36.807 60 171 2
16:02:19.3 121 168 2:41.291 37.944 62 174 6
16:04:51.7 122 169 2:32.453 40.144 60 172 1
118 - Ernie Weeroona C - Middle
10:04:48.2 1 1 2:16.115 44.962 55 139 9
10:07:08.4 2 2 2:20.139 43.671 54 137 9
10:09:22.5 3 3 2:14.073 45.647 52 138 8
10:11:42.4 4 4 2:19.898 43.746 53 139 11
10:14:02.0 5 5 2:19.684 43.813 52 136 8
10:16:27.1 6 7 2:25.055 42.191 51 136 8
10:19:19.6 7 8 2:52.519 35.474 58 143 8
10:21:58.9 8 9 2:39.306 38.417 51 137 8
10:25:52.9 9 11 3:53.992 26.155 78 151 7
10:40:19.6 10 18 14:26.651 7.062 84 152 3
10:43:00.6 11 20 2:41.001 38.012 56 136 4
10:45:29.1 12 21 2:28.570 41.193 55 138 7
10:47:59.7 13 22 2:30.534 40.655 48 137 7
10:50:31.9 14 23 2:32.276 40.190 56 137 4
10:52:59.2 15 24 2:27.222 41.570 55 137 4
10:55:23.9 16 25 2:24.721 42.288 53 138 3
10:59:19.8 17 27 3:55.949 25.938 71 149 1
11:02:23.5 18 28 3:03.686 33.318 53 137 1
11:04:59.7 19 30 2:36.125 39.199 48 139 0
11:07:24.2 20 31 2:24.531 42.344 54 129 1
11:09:46.6 21 32 2:22.416 42.973 53 136 1
11:12:20.1 22 33 2:33.463 39.879 45 135 1
11:15:01.2 23 35 2:41.092 37.991 58 129 2
11:17:31.9 24 36 2:30.764 40.593 55 138 0
11:21:34.4 25 38 4:02.493 25.238 67 149 2
11:24:06.8 26 39 2:32.420 40.152 51 136 1
11:26:32.9 27 40 2:26.105 41.888 52 136 2
11:29:05.7 28 41 2:32.794 40.054 54 136 2
11:31:35.7 29 42 2:29.942 40.816 52 136 2
11:36:19.5 30 45 4:43.810 21.564 74 147 1
11:39:00.5 31 46 2:40.991 38.015 53 139 1
11:41:27.3 32 47 2:26.851 41.675 53 137 2
11:45:35.0 33 49 4:07.707 24.707 78 149 1
11:48:29.7 34 50 2:54.677 35.036 57 137 1
11:51:17.8 35 52 2:48.049 36.418 58 144 0
11:54:10.4 36 53 2:52.642 35.449 60 145 0
11:57:19.2 37 55 3:08.758 32.422 63 147 0
12:00:20.4 38 56 3:01.222 33.771 57 147 0
12:05:10.9 39 58 4:50.483 21.068 79 143 0
12:07:43.6 40 60 2:32.739 40.068 54 136 0
12:10:11.2 41 61 2:27.618 41.458 55 133 0
12:12:41.7 42 62 2:30.522 40.659 57 135 0
12:15:10.0 43 63 2:28.256 41.280 55 128 0
12:17:39.6 44 64 2:29.590 40.912 57 129 0
12:22:39.5 45 66 4:59.937 20.404 80 155 0
12:25:42.6 46 68 3:03.106 33.423 53 134 0
12:28:25.7 47 69 2:43.023 37.541 58 139 0
12:31:14.4 48 70 2:48.784 36.259 58 135 0
12:34:05.6 49 72 2:51.166 35.755 58 133 0
12:36:55.9 50 73 2:50.279 35.941 57 135 0
12:39:38.2 51 74 2:42.355 37.695 58 137 0
12:42:16.3 52 75 2:38.074 38.716 59 136 0
12:47:13.5 53 77 4:57.232 20.590 72 145 0
12:49:40.5 54 79 2:26.970 41.641 56 130 0
12:52:19.1 55 80 2:38.597 38.588 58 133 0
12:54:43.3 56 81 2:24.163 42.452 56 136 0
12:57:12.1 57 82 2:28.817 41.124 59 127 0
12:59:38.8 58 82 2:26.681 41.723 57 122 0
13:02:11.9 59 84 2:33.128 39.967 59 130 0
13:04:42.1 60 85 2:30.191 40.748 59 131 0
13:07:24.8 61 86 2:42.703 37.615 61 130 0
13:11:29.1 62 88 4:04.311 25.050 83 146 0
13:14:12.4 63 89 2:43.327 37.471 54 130 0
13:16:33.5 64 91 2:21.040 43.392 57 133 0
13:19:11.3 65 92 2:37.786 38.787 57 132 0
13:23:28.1 66 93 4:16.843 23.828 55 136 0
13:26:05.4 67 95 2:37.282 38.911 56 135 0
13:28:45.8 68 96 2:40.383 38.159 57 131 0
13:32:51.8 69 98 4:06.043 24.874 75 144 0
13:35:39.6 70 100 2:47.784 36.475 54 133 0
13:38:16.2 71 101 2:36.643 39.070 56 133 0
13:40:51.4 72 102 2:35.145 39.447 55 131 0
13:43:31.2 73 104 2:39.854 38.285 57 133 0
13:46:15.9 74 104 2:44.707 37.157 57 139 0
13:48:57.8 75 106 2:41.880 37.806 57 136 0
13:51:38.9 76 107 2:41.059 37.998 54 128 0
13:55:45.0 77 109 4:06.073 24.871 79 146 0
13:58:37.0 78 111 2:52.008 35.580 60 134 0
14:01:25.8 79 112 2:48.837 36.248 61 134 0
14:04:21.3 80 112 2:55.504 34.871 60 132 0
14:07:18.6 81 113 2:57.343 34.509 62 134 1
14:10:25.6 82 115 3:06.912 32.743 60 132 0
14:13:28.2 83 116 3:02.660 33.505 60 138 0
14:18:55.7 84 118 5:27.491 18.688 76 144 0
14:21:24.7 85 120 2:28.991 41.076 56 129 0
14:23:54.6 86 121 2:29.886 40.831 58 132 0
14:26:23.9 87 122 2:29.280 40.997 58 132 0
14:28:53.2 88 123 2:29.297 40.992 57 131 0
14:31:25.2 89 124 2:32.029 40.255 58 130 0
14:35:20.4 90 126 3:55.259 26.014 75 144 0
14:37:56.0 91 127 2:35.511 39.354 57 133 0
14:40:37.2 92 128 2:41.230 37.958 56 136 0
14:43:13.3 93 130 2:36.103 39.205 53 137 0
14:45:48.8 94 131 2:35.517 39.353 58 136 0
14:48:32.3 95 132 2:43.446 37.444 58 137 0
14:51:15.4 96 133 2:43.098 37.523 59 137 0
14:54:57.7 97 135 3:42.343 27.525 83 143 0
14:57:29.6 98 136 2:31.940 40.279 54 134 0
14:59:52.5 99 137 2:22.874 42.835 51 124 0
15:02:07.9 100 138 2:15.417 45.194 55 127 1
15:04:26.6 101 139 2:18.664 44.135 57 131 1
15:06:50.0 102 140 2:23.365 42.688 56 137 1
15:12:00.5 103 143 5:10.591 19.704 77 145 0
15:14:18.6 104 144 2:18.069 44.326 53 132 2
15:16:38.7 105 145 2:20.056 43.697 54 130 3
15:19:05.9 106 147 2:27.191 41.579 57 131 4
15:21:36.3 107 148 2:30.411 40.689 55 129 2
15:24:06.2 108 149 2:29.882 40.832 53 130 2
15:26:34.2 109 150 2:27.995 41.353 55 132 2
15:29:10.8 110 151 2:36.679 39.061 59 132 2
15:32:58.9 111 153 3:48.085 26.832 70 147 2
15:35:41.8 112 155 2:42.909 37.567 55 128 2
15:38:14.0 113 156 2:32.173 40.217 53 128 1
15:40:49.5 114 157 2:35.484 39.361 56 133 0
15:43:31.9 115 158 2:42.373 37.691 57 133 0
15:46:08.1 116 159 2:36.215 39.177 54 134 1
15:49:00.8 117 161 2:52.773 35.422 55 135 3
15:52:58.5 118 163 3:57.697 25.747 73 148 0
15:57:03.6 119 165 4:05.053 24.974 55 135 4
15:59:43.2 120 166 2:39.632 38.338 56 134 8
16:02:20.2 121 168 2:36.994 38.982 53 134 6
16:04:58.7 122 169 2:38.479 38.617 57 135 1
119 - Alberto Victory Christian C - Middle
10:05:23.4 1 1 2:49.733 36.057 57 120 9
10:08:00.6 2 2 2:37.131 38.948 58 120 6
10:10:42.1 3 4 2:41.506 37.893 57 123 9
10:13:27.3 4 5 2:45.218 37.042 53 125 7
10:16:12.5 5 7 2:45.194 37.047 57 121 6
10:19:03.1 6 8 2:50.633 35.866 64 126 7
10:21:47.1 7 9 2:44.008 37.315 59 121 4
10:24:28.9 8 11 2:41.763 37.833 60 118 5
10:27:19.3 9 12 2:50.465 35.902 55 119 7
10:29:56.8 10 13 2:37.487 38.860 59 117 6
10:32:40.3 11 15 2:43.454 37.442 59 117 6
10:35:23.3 12 16 2:43.049 37.535 57 116 4
10:37:58.4 13 17 2:35.073 39.465 58 120 5
10:40:33.6 14 18 2:35.146 39.447 56 113 4
10:43:10.4 15 20 2:36.842 39.020 59 120 5
10:47:30.6 16 22 4:20.162 23.524 84 125 5
10:50:35.5 17 23 3:04.924 33.095 59 119 4
10:53:32.3 18 24 2:56.791 34.617 60 118 3
10:56:26.3 19 26 2:54.052 35.162 60 122 2
10:59:27.8 20 27 3:01.426 33.733 55 117 3
11:02:33.0 21 28 3:05.225 33.041 62 124 2
11:05:43.4 22 30 3:10.432 32.137 57 121 4
11:08:57.0 23 32 3:13.559 31.618 60 126 4
11:13:26.7 24 34 4:29.710 22.691 72 124 2
11:15:58.1 25 35 2:31.445 40.411 54 112 0
11:18:22.5 26 36 2:24.328 42.403 58 116 0
11:20:49.8 27 37 2:27.304 41.547 57 119 2
11:23:17.9 28 38 2:28.127 41.316 57 119 0
11:25:44.3 29 40 2:26.384 41.808 56 118 1
11:28:23.7 30 41 2:39.422 38.389 58 116 2
11:30:51.6 31 42 2:27.860 41.391 55 115 1
11:34:49.0 32 44 3:57.436 25.775 80 126 2
11:38:08.5 33 46 3:19.486 30.679 65 118 0
11:41:16.7 34 47 3:08.181 32.522 63 121 1
11:44:09.2 35 48 2:52.525 35.473 62 122 1
11:47:14.9 36 50 3:05.686 32.959 64 122 0
11:50:20.4 37 51 3:05.564 32.981 63 119 1
11:53:35.2 38 53 3:14.759 31.423 67 122 0
11:56:51.5 39 55 3:16.278 31.180 62 123 0
12:00:01.7 40 56 3:10.252 32.168 62 121 0
12:04:47.8 41 58 4:46.041 21.396 79 128 0
12:07:45.5 42 60 2:57.728 34.435 59 117 0
12:10:28.1 43 61 2:42.572 37.645 62 118 0
12:13:27.7 44 62 2:59.613 34.073 61 124 0
12:16:27.1 45 63 2:59.400 34.114 60 122 0
12:19:44.9 46 65 3:17.868 30.930 61 119 0
12:24:19.0 47 67 4:34.040 22.333 76 126 0
12:26:53.9 48 68 2:34.878 39.515 57 117 0
12:29:26.7 49 70 2:32.830 40.044 58 121 0
12:32:01.6 50 71 2:34.953 39.496 60 118 0
12:34:42.9 51 72 2:41.223 37.960 61 116 0
12:37:27.3 52 73 2:44.462 37.212 61 119 0
12:40:20.8 53 74 2:53.516 35.271 62 118 0
12:43:19.7 54 76 2:58.808 34.227 64 118 0
12:46:16.6 55 77 2:56.984 34.579 63 120 0
12:50:44.8 56 79 4:28.202 22.819 79 128 0
12:53:49.7 57 81 3:04.873 33.104 64 120 0
12:56:50.1 58 82 3:00.392 33.926 62 122 0
12:59:46.5 59 83 2:56.408 34.692 61 122 0
13:02:37.1 60 84 2:50.586 35.876 61 121 0
13:05:34.8 61 85 2:57.746 34.431 62 119 0
13:08:37.0 62 87 3:02.124 33.603 62 120 0
13:11:39.7 63 88 3:02.765 33.486 60 123 0
13:14:48.6 64 90 3:08.890 32.400 61 122 0
13:17:39.3 65 91 2:50.716 35.849 63 127 0
13:22:26.2 66 93 4:46.880 21.333 81 127 0
13:26:00.3 67 95 3:34.117 28.583 59 124 0
13:29:05.1 68 96 3:04.730 33.129 60 125 0
13:32:08.1 69 98 3:03.051 33.433 62 118 0
13:35:04.9 70 99 2:56.757 34.624 60 118 0
13:37:46.2 71 101 2:41.301 37.941 60 125 0
13:41:53.8 72 103 4:07.664 24.711 73 127 0
13:44:43.4 73 104 2:49.594 36.086 58 123 0
13:47:34.4 74 105 2:50.945 35.801 60 115 0
13:50:26.5 75 106 2:52.159 35.549 60 117 0
13:53:24.0 76 108 2:57.438 34.491 61 116 0
13:57:38.4 77 110 4:14.457 24.051 70 125 0
14:00:18.5 78 111 2:40.099 38.226 59 116 0
14:03:05.9 79 112 2:47.369 36.566 61 115 0
14:05:47.8 80 112 2:41.853 37.812 59 119 0
14:08:39.3 81 114 2:51.577 35.669 62 116 0
14:12:40.4 82 116 4:01.092 25.385 72 127 0
14:15:34.3 83 117 2:53.922 35.188 61 121 0
14:19:15.9 84 119 3:41.515 27.628 61 117 0
14:22:09.2 85 120 2:53.327 35.309 61 116 0
14:25:15.8 86 121 3:06.596 32.798 64 120 0
14:30:02.3 87 124 4:46.493 21.362 70 122 0
14:32:57.7 88 125 2:55.388 34.894 59 123 0
14:35:39.2 89 126 2:41.579 37.876 60 123 0
14:38:24.9 90 127 2:45.667 36.942 58 125 0
14:41:13.1 91 129 2:48.212 36.383 60 121 0
14:44:02.1 92 130 2:48.973 36.219 59 122 0
14:46:58.5 93 131 2:56.392 34.695 58 123 0
14:50:54.3 94 133 3:55.767 25.958 73 126 0
14:53:38.2 95 135 2:43.949 37.329 58 115 0
14:56:15.6 96 136 2:37.357 38.892 60 115 0
14:59:33.4 97 137 3:17.845 30.933 57 115 0
15:02:08.9 98 138 2:35.460 39.367 58 114 0
15:05:19.8 99 140 3:10.973 32.046 61 118 1
15:09:25.2 100 142 4:05.371 24.942 70 127 1
15:12:04.0 101 143 2:38.804 38.538 58 112 0
15:14:38.3 102 144 2:34.254 39.675 58 112 3
15:17:17.9 103 146 2:39.613 38.343 56 116 4
15:20:01.4 104 147 2:43.559 37.418 59 115 1
15:24:00.2 105 149 3:58.806 25.627 84 126 1
15:26:29.3 106 150 2:29.010 41.071 56 116 2
15:28:54.0 107 151 2:24.723 42.288 55 110 2
15:31:19.8 108 153 2:25.786 41.979 55 112 3
15:33:46.0 109 154 2:26.273 41.840 54 117 2
15:36:09.9 110 155 2:23.895 42.531 55 113 2
15:38:33.7 111 156 2:23.757 42.572 55 120 3
15:41:00.9 112 157 2:27.189 41.579 57 114 1
15:43:27.7 113 158 2:26.849 41.675 55 112 0
15:45:59.9 114 159 2:32.146 40.225 59 115 2
15:48:28.4 115 161 2:28.559 41.196 56 117 1
15:50:59.9 116 162 2:31.423 40.417 59 117 4
15:53:34.8 117 163 2:34.935 39.500 55 111 1
15:56:11.3 118 165 2:36.532 39.097 55 119 5
15:58:56.0 119 166 2:44.636 37.173 58 116 8
16:01:42.7 120 167 2:46.720 36.708 59 115 4
16:04:26.9 121 169 2:44.199 37.272 54 118 1
71 - Lynx SMS/BGS - Vet
10:04:53.6 1 1 2:31.999 40.263 55 171 8
10:07:36.6 2 2 2:43.079 37.528 58 173 8
10:10:26.6 3 4 2:50.004 35.999 54 174 7
10:13:23.9 4 5 2:57.268 34.524 58 177 7
10:16:27.2 5 7 3:03.247 33.398 56 175 8
10:19:27.8 6 8 3:00.664 33.875 58 175 6
10:24:20.1 7 11 4:52.293 20.938 84 183 4
10:27:30.9 8 12 3:10.821 32.072 57 179 7
10:30:29.4 9 14 2:58.446 34.296 59 175 6
10:33:34.9 10 15 3:05.566 32.980 59 175 8
10:36:46.8 11 16 3:11.865 31.897 61 177 5
10:39:54.0 12 18 3:07.142 32.702 59 177 3
10:44:26.0 13 20 4:32.017 22.499 69 179 5
10:47:20.9 14 22 2:54.906 34.990 57 171 5
10:50:15.9 15 23 2:55.002 34.971 59 169 6
10:53:15.1 16 24 2:59.232 34.146 59 174 4
10:56:13.9 17 26 2:58.750 34.238 59 176 1
10:59:22.5 18 27 3:08.592 32.451 61 178 1
11:02:31.0 19 28 3:08.550 32.458 60 177 3
11:06:51.4 20 31 4:20.396 23.503 79 180 3
11:10:05.9 21 32 3:14.488 31.467 60 175 0
11:13:16.6 22 34 3:10.728 32.088 61 173 2
11:16:30.1 23 35 3:13.438 31.638 60 173 0
11:19:46.2 24 37 3:16.169 31.198 62 176 0
11:23:04.9 25 38 3:18.689 30.802 62 178 1
11:26:25.8 26 40 3:20.903 30.462 61 177 2
11:31:31.9 27 42 5:06.052 19.997 72 178 2
11:34:31.4 28 44 2:59.527 34.090 60 173 1
11:37:27.4 29 45 2:56.034 34.766 60 173 1
11:40:25.6 30 47 2:58.171 34.349 58 176 1
11:43:21.0 31 48 2:55.382 34.895 58 172 1
11:46:21.8 32 49 3:00.811 33.847 60 176 0
11:49:30.1 33 51 3:08.344 32.494 61 176 0
11:52:32.8 34 52 3:02.680 33.501 59 170 0
11:57:08.2 35 55 4:35.407 22.222 74 180 0
11:59:43.5 36 56 2:35.257 39.419 53 172 0
12:02:09.8 37 57 2:26.370 41.812 54 171 0
12:04:38.5 38 58 2:28.703 41.156 55 173 0
12:07:08.0 39 59 2:29.438 40.953 54 173 0
12:09:36.5 40 60 2:28.545 41.200 55 172 0
12:12:05.6 41 62 2:29.086 41.050 55 169 0
12:14:37.3 42 63 2:31.652 40.356 55 172 0
12:17:07.5 43 63 2:30.184 40.750 56 170 0
12:21:10.9 44 65 4:03.459 25.138 73 178 0
12:24:16.9 45 67 3:05.967 32.909 60 174 0
12:27:21.6 46 69 3:04.754 33.125 60 173 0
12:30:21.0 47 70 2:59.336 34.126 59 175 0
12:33:16.2 48 71 2:55.263 34.919 59 172 0
12:36:06.3 49 72 2:50.107 35.977 57 171 0
12:38:59.3 50 74 2:52.936 35.389 59 168 0
12:43:16.3 51 76 4:17.047 23.809 76 179 0
12:45:51.0 52 77 2:34.648 39.574 52 175 0
12:48:11.9 53 78 2:20.955 43.418 52 172 0
12:50:40.4 54 79 2:28.510 41.209 54 169 0
12:53:11.3 55 80 2:30.857 40.568 55 175 0
12:55:34.9 56 81 2:23.625 42.611 54 171 0
12:59:20.3 57 82 3:45.366 27.156 78 181 0
13:02:09.8 58 84 2:49.557 36.094 54 169 0
13:04:50.1 59 85 2:40.260 38.188 57 170 0
13:07:28.7 60 86 2:38.597 38.588 56 172 0
13:10:07.8 61 88 2:39.074 38.473 56 174 0
13:12:47.5 62 89 2:39.687 38.325 50 174 0
13:15:36.4 63 90 2:48.981 36.217 57 170 0
13:18:28.4 64 91 2:51.992 35.583 59 172 0
13:21:21.8 65 93 2:53.346 35.305 59 170 0
13:24:19.0 66 94 2:57.190 34.539 60 172 0
13:28:45.3 67 96 4:26.352 22.977 79 181 0
13:32:01.5 68 98 3:16.198 31.193 57 173 0
13:34:57.1 69 99 2:55.627 34.847 58 175 0
13:37:49.2 70 101 2:52.045 35.572 57 173 0
13:40:42.2 71 102 2:53.013 35.373 57 171 0
13:43:39.2 72 104 2:57.014 34.574 59 172 0
13:46:32.8 73 105 2:53.565 35.261 55 172 0
13:51:03.1 74 107 4:30.329 22.639 77 179 0
13:54:01.9 75 108 2:58.813 34.226 58 168 0
13:56:48.9 76 110 2:47.013 36.644 56 167 0
13:59:34.5 77 111 2:45.521 36.974 55 168 0
14:02:09.0 78 112 2:34.507 39.610 56 167 0
14:04:42.9 79 112 2:33.888 39.769 55 168 0
14:07:30.7 80 113 2:47.851 36.461 58 166 1
14:10:23.1 81 115 2:52.441 35.490 58 168 1
14:15:02.1 82 117 4:38.968 21.938 79 181 0
14:18:09.3 83 118 3:07.193 32.694 59 171 0
14:21:07.7 84 120 2:58.414 34.302 59 173 0
14:24:01.8 85 121 2:54.111 35.150 55 173 0
14:26:53.2 86 122 2:51.384 35.709 59 172 0
14:29:47.0 87 123 2:53.745 35.224 59 174 0
14:32:52.3 88 125 3:05.381 33.013 60 175 0
14:35:49.8 89 126 2:57.412 34.496 58 173 0
14:40:15.7 90 128 4:25.922 23.014 72 179 0
14:42:47.8 91 129 2:32.130 40.229 54 170 0
14:45:14.5 92 131 2:26.717 41.713 55 168 0
14:47:44.6 93 132 2:30.038 40.790 56 168 0
14:50:15.0 94 133 2:30.445 40.679 55 168 0
14:52:44.8 95 134 2:29.822 40.848 55 167 0
14:55:12.3 96 135 2:27.471 41.500 54 167 0
14:57:43.7 97 136 2:31.365 40.432 56 170 0
15:00:18.0 98 138 2:34.375 39.644 55 170 0
15:02:52.4 99 139 2:34.345 39.651 56 170 0
15:05:25.7 100 140 2:33.280 39.927 56 166 1
15:09:39.7 101 142 4:14.037 24.091 72 178 0
15:12:29.1 102 143 2:49.401 36.127 54 174 2
15:15:08.4 103 145 2:39.335 38.410 55 173 0
15:17:51.3 104 146 2:42.815 37.589 55 170 6
15:20:35.4 105 147 2:44.122 37.289 53 175 2
15:23:19.6 106 149 2:44.204 37.271 55 173 2
15:26:03.1 107 150 2:43.565 37.416 56 173 3
15:28:47.2 108 151 2:44.081 37.299 54 167 3
15:31:32.6 109 153 2:45.425 36.996 55 171 1
15:35:39.2 110 155 4:06.532 24.824 74 180 3
15:38:13.7 111 156 2:34.471 39.619 51 166 1
15:40:35.4 112 157 2:21.748 43.175 54 168 1
15:43:01.9 113 158 2:26.515 41.770 53 167 0
15:46:39.3 114 160 3:37.372 28.155 68 179 3
15:49:26.4 115 161 2:47.116 36.621 55 175 3
15:52:13.5 116 163 2:47.114 36.622 55 175 1
15:55:01.6 117 164 2:48.093 36.408 55 168 3
15:57:50.3 118 165 2:48.700 36.277 56 175 4
16:00:44.7 119 167 2:54.425 35.087 56 173 5
16:03:35.0 120 168 2:50.282 35.940 56 171 2
16:06:23.9 121 169 2:48.885 36.238 57 172 2
106 - Gecko 2 Gecko R Seymour - Vet
10:05:05.5 1 1 2:38.924 38.509 50 155 6
10:07:46.2 2 2 2:40.651 38.095 58 155 11
10:10:22.5 3 4 2:36.293 39.157 56 156 7
10:13:09.7 4 5 2:47.168 36.610 58 157 8
10:15:58.8 5 6 2:49.120 36.187 59 156 8
10:18:49.3 6 8 2:50.492 35.896 61 156 6
10:22:53.8 7 10 4:04.524 25.028 60 158 6
10:25:46.9 8 11 2:53.069 35.362 61 156 6
10:28:49.9 9 13 3:03.057 33.432 60 158 7
10:31:53.4 10 14 3:03.459 33.359 63 161 6
10:34:59.0 11 16 3:05.619 32.971 61 158 4
10:38:01.1 12 17 3:02.152 33.598 63 159 5
10:41:05.2 13 19 3:04.059 33.250 62 158 5
10:44:59.2 14 20 3:53.964 26.158 57 159 5
10:47:49.1 15 22 2:49.917 36.018 59 158 8
10:50:41.9 16 23 2:52.769 35.423 58 155 5
10:53:31.7 17 24 2:49.875 36.026 56 161 3
10:56:24.6 18 26 2:52.878 35.401 58 160 2
10:59:22.7 19 27 2:58.058 34.371 57 156 1
11:02:12.6 20 28 2:49.963 36.008 58 162 6
11:05:15.3 21 30 3:02.659 33.505 59 159 0
11:09:26.5 22 32 4:11.161 24.367 58 155 0
11:12:17.5 23 33 2:51.018 35.786 55 157 1
11:15:10.0 24 35 2:52.486 35.481 62 156 0
11:18:06.3 25 36 2:56.364 34.701 61 157 0
11:21:06.2 26 37 2:59.900 34.019 58 158 1
11:24:06.4 27 39 3:00.186 33.965 55 156 1
11:27:08.3 28 40 3:01.851 33.654 60 158 2
11:30:42.6 29 42 3:34.370 28.549 56 155 2
11:33:20.0 30 43 2:37.379 38.887 59 155 2
11:35:59.0 31 44 2:39.009 38.488 60 156 1
11:38:37.9 32 46 2:38.853 38.526 60 157 1
11:41:19.6 33 47 2:41.697 37.849 60 156 1
11:44:02.7 34 48 2:43.132 37.516 59 160 1
11:46:53.4 35 49 2:50.733 35.845 54 157 0
11:49:48.2 36 51 2:54.795 35.012 61 157 1
11:52:28.5 37 52 2:40.306 38.177 58 156 0
11:56:24.1 38 54 3:55.563 25.980 63 159 0
11:59:20.3 39 56 2:56.234 34.727 63 159 0
12:02:21.4 40 57 3:01.091 33.795 62 160 0
12:05:33.2 41 59 3:11.747 31.917 61 159 0
12:08:39.4 42 60 3:06.203 32.867 63 158 0
12:11:51.2 43 62 3:11.810 31.907 64 160 0
12:14:54.4 44 63 3:03.230 33.401 63 160 0
12:17:59.6 45 64 3:05.224 33.041 61 156 0
12:22:06.1 46 66 4:06.461 24.832 59 160 0
12:25:00.7 47 67 2:54.579 35.056 58 161 0
12:27:55.8 48 69 2:55.132 34.945 60 160 0
12:30:53.1 49 70 2:57.272 34.523 60 160 0
12:33:50.9 50 72 2:57.775 34.426 63 158 0
12:36:45.6 51 72 2:54.708 35.030 61 158 0
12:39:42.2 52 74 2:56.638 34.647 61 160 0
12:42:39.2 53 75 2:56.981 34.580 61 161 0
12:45:34.4 54 77 2:55.208 34.930 62 159 0
12:49:31.3 55 79 3:56.868 25.837 60 155 0
12:52:26.0 56 80 2:54.718 35.028 58 157 0
12:55:20.1 57 81 2:54.083 35.156 62 158 0
12:58:21.6 58 82 3:01.573 33.705 60 159 0
13:01:24.8 59 83 3:03.198 33.406 60 157 0
13:04:28.0 60 85 3:03.185 33.409 61 161 0
13:07:37.1 61 86 3:09.096 32.365 61 159 0
13:10:43.6 62 88 3:06.507 32.814 60 158 0
13:14:24.2 63 90 3:40.569 27.746 57 157 0
13:17:06.9 64 91 2:42.751 37.603 59 157 0
13:19:48.5 65 92 2:41.606 37.870 60 157 0
13:22:30.8 66 93 2:42.217 37.727 59 157 0
13:25:18.4 67 94 2:47.659 36.503 59 156 0
13:28:08.0 68 96 2:49.537 36.098 54 156 0
13:31:00.8 69 97 2:52.857 35.405 61 155 0
13:35:12.2 70 100 4:11.391 24.345 62 158 0
13:38:19.0 71 101 3:06.805 32.761 64 158 0
13:41:31.2 72 103 3:12.235 31.836 63 162 0
13:44:45.7 73 104 3:14.435 31.476 64 158 0
13:48:00.0 74 105 3:14.358 31.488 62 157 0
13:51:21.8 75 107 3:21.778 30.330 64 161 0
13:54:46.7 76 109 3:24.854 29.875 65 159 0
13:59:05.9 77 111 4:19.248 23.607 61 159 0
14:02:10.0 78 112 3:04.092 33.244 60 159 0
14:05:09.6 79 112 2:59.590 34.078 60 158 0
14:08:08.3 80 114 2:58.722 34.243 61 158 0
14:11:06.9 81 115 2:58.559 34.274 62 158 0
14:14:11.8 82 116 3:04.964 33.088 60 160 0
14:17:09.7 83 118 2:57.825 34.416 61 159 0
14:20:05.4 84 119 2:55.717 34.829 61 156 0
14:24:04.9 85 121 3:59.498 25.553 61 155 0
14:26:58.8 86 122 2:53.903 35.192 53 156 0
14:30:02.0 87 124 3:03.239 33.399 62 156 0
14:33:06.8 88 125 3:04.730 33.129 63 157 0
14:36:19.7 89 126 3:12.922 31.723 63 157 0
14:39:51.6 90 128 3:31.935 28.877 58 156 0
14:42:34.5 91 129 2:42.860 37.578 60 156 0
14:45:20.5 92 131 2:46.004 36.867 58 156 0
14:48:18.8 93 132 2:58.369 34.311 60 156 0
14:53:09.1 94 134 4:50.231 21.087 64 159 0
14:56:24.4 95 136 3:15.316 31.334 62 158 0
14:59:48.4 96 137 3:24.007 29.999 64 157 0
15:03:15.5 97 139 3:27.072 29.555 65 158 0
15:06:47.2 98 140 3:31.761 28.901 64 157 1
15:10:14.7 99 142 3:27.487 29.496 66 158 0
15:14:26.8 100 144 4:12.069 24.279 59 160 2
15:17:27.7 101 146 3:00.952 33.821 60 160 4
15:23:32.7 102 149 6:04.958 16.769 57 159 2
15:26:30.6 103 150 2:57.876 34.406 59 160 2
15:29:34.6 104 152 3:04.033 33.255 61 157 4
15:32:36.8 105 153 3:02.208 33.588 60 158 2
15:35:41.6 106 155 3:04.747 33.126 57 160 2
15:38:52.4 107 156 3:10.793 32.077 63 159 1
15:42:01.4 108 157 3:09.094 32.365 61 155 1
15:45:57.7 109 159 3:56.214 25.909 59 156 2
15:48:48.8 110 161 2:51.091 35.770 59 155 1
15:51:41.1 111 162 2:52.342 35.511 56 156 3
15:54:36.1 112 164 2:54.963 34.979 59 156 1
15:57:34.2 113 165 2:58.173 34.349 59 156 4
16:00:36.1 114 167 3:01.849 33.654 59 155 5
16:03:26.9 115 168 2:50.822 35.827 61 156 4
16:06:13.0 116 169 2:46.131 36.838 58 154 2
22 - Scorpius SMS/BGS - Middle
10:05:25.5 1 1 2:51.186 35.751 58 172 8
10:08:19.3 2 3 2:53.790 35.215 59 171 7
10:11:18.3 3 4 2:58.995 34.191 60 172 7
10:14:17.4 4 6 2:59.087 34.173 59 173 8
10:19:27.8 5 8 5:10.405 19.716 78 177 6
10:22:19.0 6 10 2:51.152 35.758 57 173 8
10:25:10.6 7 11 2:51.684 35.647 60 173 7
10:28:11.7 8 12 3:01.102 33.793 61 173 9
10:31:17.5 9 14 3:05.772 32.944 61 172 7
10:34:34.7 10 15 3:17.163 31.040 63 171 6
10:39:01.3 11 18 4:26.607 22.955 77 177 4
10:42:09.4 12 19 3:08.124 32.532 57 165 5
10:45:11.4 13 21 3:01.956 33.635 60 172 7
10:48:12.8 14 22 3:01.442 33.730 59 170 6
10:53:13.6 15 24 5:00.758 20.349 83 177 4
10:56:14.8 16 26 3:01.196 33.776 60 173 1
10:59:16.2 17 27 3:01.472 33.724 59 171 1
11:03:58.5 18 29 4:42.231 21.684 79 177 1
11:08:52.9 19 32 4:54.438 20.785 60 171 2
11:12:13.7 20 33 3:20.787 30.480 63 169 1
11:17:03.4 21 35 4:49.736 21.123 84 177 0
11:20:51.8 22 37 3:48.352 26.801 63 169 2
11:25:12.4 23 39 4:20.666 23.478 63 170 2
11:31:09.1 24 42 5:56.678 17.158 81 178 1
11:34:04.5 25 44 2:55.425 34.887 59 170 1
11:36:54.2 26 45 2:49.681 36.068 60 172 0
11:39:47.5 27 46 2:53.294 35.316 59 171 1
11:42:42.3 28 48 2:54.801 35.011 61 167 1
11:45:47.6 29 49 3:05.327 33.023 58 166 1
11:48:43.4 30 50 2:55.771 34.818 61 171 0
11:53:09.4 31 53 4:25.952 23.012 77 177 0
11:56:25.9 32 54 3:16.574 31.133 60 169 0
11:59:44.2 33 56 3:18.231 30.873 65 174 0
12:03:02.8 34 57 3:18.641 30.809 64 169 0
12:06:21.4 35 59 3:18.624 30.812 63 168 0
12:09:45.2 36 61 3:23.814 30.027 62 168 0
12:14:23.0 37 63 4:37.772 22.032 79 177 0
12:18:11.3 38 64 3:48.256 26.812 65 168 0
12:21:49.9 39 66 3:38.587 27.998 62 167 0
12:26:50.4 40 68 5:00.538 20.363 84 177 0
12:29:55.8 41 70 3:05.438 33.003 61 172 0
12:32:53.9 42 71 2:58.043 34.374 62 172 0
12:36:00.3 43 72 3:06.379 32.836 63 174 0
12:38:58.3 44 74 2:58.031 34.376 63 170 0
12:43:22.9 45 76 4:24.626 23.127 75 176 0
12:46:04.8 46 77 2:41.892 37.803 58 172 0
12:48:41.7 47 78 2:36.919 39.001 59 169 0
12:51:25.7 48 79 2:43.986 37.320 60 169 0
12:54:08.6 49 81 2:42.933 37.561 61 168 0
12:56:50.9 50 82 2:42.243 37.721 60 169 0
12:59:37.6 51 82 2:46.680 36.717 60 169 0
13:02:27.0 52 84 2:49.389 36.130 62 168 0
13:06:34.2 53 86 4:07.264 24.751 77 176 0
13:09:12.6 54 87 2:38.389 38.639 56 169 0
13:11:51.8 55 88 2:39.191 38.444 59 167 0
13:16:18.6 56 90 4:26.790 22.939 74 177 0
13:19:03.7 57 92 2:45.123 37.063 60 170 0
13:21:51.9 58 93 2:48.169 36.392 59 166 0
13:24:46.7 59 94 2:54.828 35.006 62 171 0
13:30:15.6 60 97 5:28.854 18.610 73 176 0
13:32:50.3 61 98 2:34.703 39.560 58 166 0
13:35:19.3 62 100 2:28.985 41.078 57 172 0
13:38:00.8 63 101 2:41.582 37.876 59 172 0
13:40:39.5 64 102 2:38.630 38.580 58 165 0
13:43:19.2 65 104 2:39.720 38.317 57 164 0
13:47:40.6 66 105 4:21.398 23.413 75 176 0
13:50:20.9 67 106 2:40.347 38.167 55 167 0
13:52:50.1 68 108 2:29.175 41.026 55 169 0
13:55:26.5 69 109 2:36.377 39.136 61 169 0
13:58:08.1 70 110 2:41.655 37.858 57 170 0
14:00:54.3 71 112 2:46.123 36.840 58 169 0
14:04:52.2 72 112 3:57.983 25.716 74 176 0
14:07:20.7 73 113 2:28.444 41.228 55 170 1
14:09:50.1 74 114 2:29.391 40.966 56 166 0
14:12:21.3 75 116 2:31.256 40.461 57 171 0
14:14:58.7 76 117 2:37.354 38.893 58 168 0
14:17:32.4 77 118 2:33.752 39.804 58 171 0
14:20:15.3 78 119 2:42.874 37.575 55 172 0
14:24:05.9 79 121 3:50.623 26.537 70 176 0
14:26:51.9 80 122 2:45.994 36.869 58 171 0
14:29:35.9 81 123 2:43.999 37.317 61 170 0
14:32:23.4 82 124 2:47.484 36.541 61 170 0
14:35:11.7 83 126 2:48.236 36.377 59 169 0
14:38:01.5 84 127 2:49.886 36.024 62 166 0
14:41:53.3 85 129 3:51.749 26.408 73 178 0
14:44:42.3 86 130 2:49.007 36.212 55 167 0
14:47:24.9 87 132 2:42.647 37.628 61 170 0
14:50:10.0 88 133 2:45.012 37.088 60 171 0
14:52:55.8 89 134 2:45.871 36.896 61 169 0
14:55:50.5 90 136 2:54.653 35.041 57 165 0
15:00:00.6 91 138 4:10.155 24.465 61 175 1
15:02:36.6 92 139 2:35.932 39.248 51 171 0
15:05:07.0 93 139 2:30.471 40.672 58 171 1
15:07:49.1 94 141 2:42.022 37.773 59 165 0
15:10:34.2 95 142 2:45.144 37.059 57 167 1
15:13:08.0 96 144 2:33.761 39.802 56 171 1
15:15:52.2 97 145 2:44.279 37.254 59 169 3
15:20:09.7 98 147 4:17.478 23.769 79 177 3
15:22:57.3 99 148 2:47.549 36.527 57 166 2
15:25:29.2 100 150 2:31.915 40.286 56 166 3
15:28:06.3 101 151 2:37.114 38.953 58 168 2
15:30:48.4 102 152 2:42.124 37.749 59 168 2
15:33:37.6 103 154 2:49.150 36.181 58 166 1
15:36:26.4 104 155 2:48.825 36.251 58 168 3
15:39:22.0 105 156 2:55.597 34.853 60 171 0
15:43:19.9 106 158 3:57.932 25.722 76 176 0
15:46:04.7 107 159 2:44.782 37.140 55 170 3
15:48:33.9 108 161 2:29.198 41.019 55 168 4
15:51:11.6 109 162 2:37.656 38.819 55 169 0
15:53:51.8 110 163 2:40.227 38.196 54 168 1
15:56:24.7 111 165 2:32.943 40.015 55 169 5
15:59:08.1 112 166 2:43.351 37.465 55 172 6
16:01:48.1 113 167 2:39.974 38.256 55 170 5
16:04:27.7 114 169 2:39.654 38.333 53 164 1
34 - Delicious Mt Eliza SC - Middle
10:05:05.8 1 1 2:32.873 40.033 45 121 6
10:07:54.6 2 2 2:48.848 36.246 54 124 9
10:12:15.3 3 5 4:20.668 23.478 71 137 11
10:24:21.5 4 11 12:06.167 8.428 84 139 7
10:27:14.5 5 12 2:52.974 35.381 56 124 8
10:30:12.0 6 13 2:57.535 34.472 58 124 6
10:33:26.5 7 15 3:14.496 31.466 61 125 7
10:38:05.5 8 17 4:39.046 21.932 74 136 5
10:41:07.0 9 19 3:01.446 33.729 58 126 5
10:44:05.1 10 20 2:58.133 34.356 55 126 4
10:47:00.7 11 21 2:55.600 34.852 56 125 7
10:52:15.6 12 24 5:14.886 19.436 72 136 3
10:55:12.8 13 25 2:57.184 34.540 59 126 1
10:59:46.6 14 27 4:33.786 22.353 66 136 3
11:02:09.3 15 28 2:22.687 42.891 50 122 2
11:04:26.9 16 29 2:17.649 44.461 53 123 2
11:06:54.3 17 31 2:27.390 41.522 54 124 3
11:09:24.4 18 32 2:30.134 40.764 51 124 0
11:11:49.1 19 33 2:24.649 42.309 55 125 3
11:14:12.2 20 34 2:23.113 42.763 51 124 0
11:16:34.5 21 35 2:22.265 43.018 52 122 0
11:18:59.9 22 36 2:25.491 42.064 53 123 0
11:23:32.7 23 39 4:32.799 22.434 77 138 0
11:26:39.0 24 40 3:06.286 32.853 58 123 2
11:29:47.3 25 41 3:08.246 32.511 57 125 1
11:33:03.0 26 43 3:15.759 31.263 59 126 2
11:37:47.5 27 45 4:44.474 21.513 71 136 0
11:40:25.3 28 47 2:37.788 38.786 56 123 1
11:43:13.3 29 48 2:48.029 36.422 58 124 1
11:50:02.6 30 51 6:49.314 14.952 76 137 0
11:53:37.1 31 53 3:34.458 28.537 57 124 0
11:56:54.7 32 55 3:17.565 30.977 60 126 0
12:00:07.2 33 56 3:12.581 31.779 58 126 0
12:03:06.8 34 57 2:59.583 34.079 58 125 0
12:06:23.1 35 59 3:16.279 31.180 58 125 0
12:11:16.2 36 61 4:53.045 20.884 73 136 0
12:13:39.5 37 62 2:23.375 42.685 52 122 0
12:16:00.2 38 63 2:20.663 43.508 54 123 0
12:18:21.6 39 64 2:21.423 43.274 54 122 0
12:20:54.4 40 65 2:32.827 40.045 54 123 0
12:23:24.7 41 67 2:30.272 40.726 56 124 0
12:27:36.4 42 69 4:11.708 24.314 77 137 0
12:30:27.8 43 70 2:51.349 35.717 54 124 0
12:33:06.8 44 71 2:39.030 38.483 55 125 0
12:35:49.3 45 72 2:42.475 37.667 55 124 0
12:40:25.3 46 74 4:36.038 22.171 57 124 0
12:44:39.6 47 76 4:14.275 24.068 77 136 0
12:47:12.2 48 77 2:32.597 40.106 50 124 0
12:49:32.7 49 79 2:20.501 43.558 52 121 0
12:51:58.6 50 80 2:25.941 41.935 51 122 0
12:54:18.2 51 81 2:19.572 43.848 52 122 0
12:56:39.9 52 82 2:21.665 43.201 54 123 0
12:59:01.6 53 82 2:21.706 43.188 52 122 0
13:01:27.8 54 83 2:26.262 41.843 54 123 0
13:05:16.7 55 85 3:48.836 26.744 72 136 0
13:09:18.3 56 87 4:01.644 25.327 59 124 0
13:13:41.1 57 89 4:22.826 23.285 69 135 0
13:16:22.0 58 90 2:40.820 38.055 55 123 0
13:19:01.0 59 92 2:39.086 38.470 56 125 0
13:21:37.8 60 93 2:36.775 39.037 49 124 0
13:26:11.3 61 95 4:33.433 22.382 81 138 0
13:29:22.9 62 97 3:11.655 31.932 59 125 0
13:32:31.5 63 98 3:08.560 32.457 59 125 0
13:36:54.2 64 100 4:22.710 23.296 60 124 0
13:41:20.1 65 103 4:25.913 23.015 75 137 0
13:44:00.1 66 104 2:40.053 38.237 55 123 0
13:46:45.3 67 105 2:45.152 37.057 58 124 0
13:49:37.8 68 106 2:52.552 35.468 56 123 0
13:53:55.5 69 108 4:17.611 23.757 77 138 0
13:57:17.7 70 110 3:22.274 30.256 59 125 0
14:00:40.3 71 112 3:22.540 30.216 59 125 0
14:04:07.7 72 112 3:27.465 29.499 61 127 0
14:08:49.6 73 114 4:41.850 21.714 67 136 0
14:11:24.6 74 115 2:35.038 39.474 55 123 0
14:13:50.0 75 116 2:25.413 42.087 54 124 0
14:16:14.3 76 117 2:24.262 42.423 53 124 0
14:18:51.9 77 118 2:37.608 38.831 57 124 0
14:23:14.9 78 120 4:23.034 23.267 70 135 0
14:26:10.2 79 122 2:55.298 34.912 55 123 0
14:28:58.1 80 123 2:47.890 36.452 52 124 0
14:31:51.3 81 124 2:53.197 35.335 56 123 0
14:34:49.0 82 125 2:57.655 34.449 56 125 0
14:37:38.0 83 127 2:49.032 36.206 56 123 0
14:42:14.3 84 129 4:36.330 22.147 70 135 0
14:44:49.2 85 130 2:34.862 39.519 53 122 0
14:47:13.3 86 132 2:24.124 42.463 53 123 0
14:49:34.7 87 133 2:21.369 43.291 46 122 0
14:52:05.1 88 134 2:30.415 40.687 53 123 0
14:54:31.3 89 135 2:26.141 41.877 53 122 0
14:56:54.8 90 136 2:23.548 42.634 53 122 0
15:00:56.9 91 138 4:02.098 25.279 73 135 0
15:04:07.9 92 139 3:10.960 32.049 60 125 0
15:07:00.7 93 140 2:52.880 35.400 56 124 1
15:10:04.3 94 142 3:03.574 33.338 58 125 0
15:13:10.2 95 144 3:05.861 32.928 55 126 1
15:16:09.5 96 145 2:59.279 34.137 55 125 4
15:20:30.7 97 147 4:21.252 23.426 76 138 2
15:22:57.6 98 148 2:26.936 41.651 54 123 2
15:25:37.1 99 150 2:39.487 38.373 57 125 2
15:28:23.4 100 151 2:46.300 36.801 54 127 3
15:32:23.6 101 153 4:00.134 25.486 68 135 3
15:34:57.8 102 154 2:34.228 39.682 51 123 3
15:38:02.9 103 156 3:05.067 33.069 71 136 4
15:42:08.2 104 157 4:05.317 24.947 74 137 0
15:45:02.8 105 159 2:54.622 35.047 56 126 0
15:49:04.3 106 161 4:01.455 25.346 70 135 1
15:51:41.5 107 162 2:37.205 38.930 47 125 3
15:54:16.2 108 164 2:34.699 39.561 52 124 0
15:56:48.6 109 165 2:32.484 40.135 52 122 6
15:59:17.1 110 166 2:28.441 41.229 52 122 5
16:01:46.5 111 167 2:29.404 40.963 52 123 4
16:04:46.9 112 169 3:00.418 33.921 61 133 1
108 - Zoniac Victory Christian C - Junior
10:05:40.1 1 1 2:49.615 36.082 63 167 7
10:08:24.6 2 3 2:44.505 37.203 59 167 9
10:11:00.1 3 4 2:35.524 39.351 59 167 6
10:13:40.3 4 5 2:40.167 38.210 60 167 7
10:16:22.6 5 7 2:42.329 37.701 62 167 9
10:19:18.3 6 8 2:55.688 34.834 63 167 5
10:22:04.8 7 9 2:46.501 36.757 64 165 7
10:24:45.6 8 11 2:40.796 38.061 62 165 5
10:27:23.1 9 12 2:37.487 38.860 62 167 7
10:30:52.3 10 14 3:29.187 29.256 76 179 5
10:33:52.8 11 15 3:00.538 33.899 65 165 7
10:37:07.2 12 17 3:14.390 31.483 60 171 4
10:40:04.4 13 18 2:57.213 34.535 66 170 3
10:43:04.5 14 20 3:00.013 33.998 60 174 5
10:46:03.5 15 21 2:59.071 34.176 63 169 8
10:49:03.5 16 22 3:00.008 33.998 59 171 7
10:53:31.5 17 24 4:27.988 22.837 77 177 3
10:56:23.6 18 26 2:52.057 35.570 63 165 2
10:59:19.9 19 27 2:56.311 34.711 60 170 1
11:02:08.4 20 28 2:48.478 36.325 57 166 2
11:04:48.1 21 29 2:39.740 38.312 63 166 3
11:07:28.1 22 31 2:39.997 38.251 60 169 1
11:10:09.1 23 32 2:40.958 38.022 64 165 0
11:12:46.5 24 33 2:37.476 38.863 64 166 2
11:15:21.0 25 35 2:34.427 39.630 59 166 0
11:19:41.4 26 37 4:20.462 23.497 81 178 0
11:23:01.8 27 38 3:20.413 30.537 66 167 1
11:26:28.7 28 40 3:26.850 29.587 65 172 2
11:31:47.9 29 42 5:19.208 19.172 74 177 1
11:35:35.5 30 44 3:47.619 26.887 68 171 0
11:38:57.4 31 46 3:21.920 30.309 62 169 1
11:42:14.5 32 47 3:17.043 31.059 66 170 1
11:45:26.4 33 49 3:11.914 31.889 64 169 1
11:48:42.9 34 50 3:16.535 31.139 64 169 0
11:53:51.7 35 53 5:08.731 19.823 77 178 0
11:56:57.3 36 55 3:05.655 32.964 66 167 0
11:59:58.4 37 56 3:01.128 33.788 66 166 0
12:03:01.0 38 57 3:02.527 33.529 67 167 0
12:06:04.3 39 59 3:03.296 33.389 66 166 0
12:09:11.8 40 60 3:07.543 32.633 68 168 0
12:12:31.9 41 62 3:20.081 30.588 68 170 0
12:15:57.5 42 63 3:25.561 29.772 70 168 0
12:21:19.2 43 66 5:21.795 19.018 77 178 0
12:24:07.7 44 67 2:48.430 36.336 60 165 0
12:26:39.2 45 68 2:31.488 40.399 58 165 0
12:29:08.8 46 69 2:29.680 40.887 60 165 0
12:31:42.7 47 71 2:33.890 39.769 62 165 0
12:34:21.4 48 72 2:38.632 38.580 63 167 0
12:37:07.3 49 73 2:45.975 36.873 62 166 0
12:39:54.1 50 74 2:46.768 36.698 61 164 0
12:44:13.5 51 76 4:19.387 23.594 80 178 0
12:46:59.5 52 77 2:45.994 36.869 63 166 0
12:49:35.8 53 79 2:36.298 39.156 63 166 0
12:52:10.8 54 80 2:34.966 39.493 60 165 0
12:54:50.8 55 81 2:40.060 38.236 64 166 0
12:57:35.1 56 82 2:44.325 37.243 61 166 0
13:00:24.8 57 83 2:49.624 36.080 64 166 0
13:03:57.6 58 85 3:32.843 28.754 77 177 0
13:07:01.6 59 86 3:03.966 33.267 66 165 0
13:11:34.5 60 88 4:32.878 22.428 76 176 0
13:14:53.0 61 90 3:18.543 30.825 65 168 0
13:17:56.2 62 91 3:03.219 33.403 62 172 0
13:20:59.1 63 93 3:02.839 33.472 66 166 0
13:24:11.8 64 94 3:12.789 31.745 70 167 0
13:27:30.7 65 96 3:18.817 30.782 70 170 0
13:32:38.2 66 98 5:07.514 19.902 76 177 0
13:35:22.4 67 100 2:44.204 37.271 62 165 0
13:38:06.8 68 101 2:44.458 37.213 62 166 0
13:40:51.2 69 102 2:44.390 37.229 63 168 0
13:43:39.8 70 104 2:48.552 36.309 64 166 0
13:46:26.7 71 104 2:46.956 36.656 65 169 0
13:49:20.6 72 106 2:53.886 35.195 65 167 0
13:52:15.8 73 107 2:55.212 34.929 65 167 0
13:55:13.4 74 109 2:57.536 34.472 65 167 0
13:59:45.8 75 111 4:32.392 22.468 80 177 0
14:03:35.8 76 112 3:49.998 26.609 70 167 0
14:07:14.3 77 113 3:38.586 27.998 71 167 1
14:11:05.1 78 115 3:50.713 26.526 69 167 0
14:16:41.4 79 117 5:36.298 18.198 79 177 0
14:20:01.3 80 119 3:19.932 30.610 70 166 0
14:23:05.9 81 120 3:04.573 33.158 65 165 0
14:26:05.4 82 122 2:59.497 34.095 67 171 0
14:29:06.2 83 123 3:00.863 33.838 66 169 0
14:32:00.7 84 124 2:54.446 35.082 65 168 0
14:36:12.3 85 126 4:11.666 24.318 76 175 0
14:39:21.7 86 128 3:09.377 32.316 70 166 0
14:42:44.0 87 129 3:22.286 30.254 69 170 0
14:46:17.8 88 131 3:33.766 28.629 70 167 0
14:52:46.7 89 134 6:28.943 15.735 72 176 0
14:55:45.2 90 136 2:58.452 34.295 64 166 0
14:58:32.5 91 137 2:47.329 36.575 63 167 0
15:01:12.4 92 138 2:39.909 38.272 58 164 0
15:03:57.0 93 139 2:44.579 37.186 63 169 0
15:07:01.8 94 140 3:04.783 33.120 65 169 0
15:11:57.1 95 143 4:55.295 20.725 77 178 3
15:14:43.8 96 144 2:46.701 36.712 62 165 0
15:17:37.7 97 146 2:53.929 35.187 61 167 5
15:20:29.9 98 147 2:52.268 35.526 65 167 1
15:24:05.2 99 149 3:35.272 28.429 78 176 2
15:28:12.2 100 151 4:06.958 24.782 77 175 3
15:31:21.8 101 153 3:09.645 32.271 59 167 3
15:34:33.0 102 154 3:11.139 32.019 65 168 1
15:37:55.4 103 156 3:22.475 30.226 66 166 3
15:42:35.7 104 157 4:40.254 21.837 77 178 0
15:45:23.2 105 159 2:47.492 36.539 57 165 0
15:48:10.0 106 160 2:46.864 36.677 62 166 0
15:50:59.5 107 162 2:49.463 36.114 59 166 4
15:53:46.9 108 163 2:47.415 36.556 58 166 1
15:56:35.5 109 165 2:48.535 36.313 60 167 4
15:59:26.5 110 166 2:51.072 35.774 60 168 4
16:02:21.8 111 168 2:55.286 34.914 59 169 6
16:05:09.5 112 169 2:47.646 36.505 61 167 1
28 - Hectic Mt Eliza SC - Senior
10:05:07.6 1 1 2:10.831 46.778 51 141 6
10:07:25.0 2 2 2:17.368 44.552 56 138 7
10:09:48.8 3 3 2:23.794 42.561 56 138 7
10:12:20.4 4 5 2:31.655 40.355 55 139 8
10:15:35.2 5 6 3:14.728 31.428 59 140 15
10:26:51.3 6 12 11:16.177 9.051 80 155 9
10:29:34.9 7 13 2:43.556 37.418 56 139 5
10:32:18.5 8 14 2:43.611 37.406 58 140 6
10:35:08.5 9 16 2:50.002 36.000 61 139 4
10:39:26.6 10 18 4:18.130 23.709 76 154 3
10:41:56.8 11 19 2:30.150 40.759 56 138 4
10:44:19.3 12 20 2:22.549 42.933 55 138 5
10:46:46.1 13 21 2:26.730 41.709 56 138 5
10:49:19.0 14 22 2:32.889 40.029 56 140 6
10:51:51.3 15 24 2:32.388 40.161 56 139 6
10:54:20.7 16 25 2:29.305 40.990 56 139 0
10:56:52.9 17 26 2:32.269 40.192 57 140 2
10:59:30.6 18 27 2:37.707 38.806 58 141 3
11:03:42.8 19 29 4:12.128 24.273 84 156 1
11:06:37.8 20 30 2:55.093 34.953 60 144 6
11:09:37.3 21 32 2:59.416 34.111 61 143 0
11:13:56.2 22 34 4:18.919 23.637 75 153 0
11:16:27.9 23 35 2:31.746 40.331 60 140 0
11:18:54.5 24 36 2:26.550 41.760 58 139 0
11:21:24.5 25 38 2:30.050 40.786 56 138 1
11:24:00.5 26 39 2:35.982 39.235 57 140 1
11:26:38.7 27 40 2:38.195 38.686 56 140 2
11:29:20.3 28 41 2:41.619 37.867 60 139 1
11:33:55.9 29 43 4:35.537 22.211 83 155 1
11:38:20.8 30 46 4:24.978 23.096 70 151 1
11:41:27.0 31 47 3:06.159 32.875 61 141 1
11:44:39.8 32 48 3:12.756 31.750 66 141 1
11:48:04.2 33 50 3:24.451 29.934 64 140 0
11:52:17.7 34 52 4:13.462 24.146 76 153 0
11:54:58.3 35 54 2:40.675 38.089 54 142 0
11:57:35.4 36 55 2:37.016 38.977 57 140 0
12:00:13.9 37 56 2:38.587 38.591 61 141 0
12:02:54.7 38 57 2:40.738 38.074 60 140 0
12:05:32.8 39 59 2:38.119 38.705 53 140 0
12:08:15.8 40 60 2:42.992 37.548 59 140 0
12:10:59.7 41 61 2:43.878 37.345 59 140 0
12:15:32.4 42 63 4:32.714 22.441 75 153 0
12:18:26.8 43 64 2:54.412 35.089 58 141 0
12:21:36.6 44 66 3:09.780 32.248 61 139 0
12:24:49.9 45 67 3:13.281 31.664 63 141 0
12:29:37.2 46 70 4:47.386 21.295 75 153 0
12:31:59.4 47 71 2:22.189 43.041 58 141 0
12:34:27.3 48 72 2:27.882 41.384 57 141 0
12:36:52.7 49 73 2:25.416 42.086 57 140 0
12:39:29.1 50 74 2:36.336 39.146 57 142 0
12:42:04.6 51 75 2:35.564 39.341 58 140 0
12:44:47.0 52 76 2:42.399 37.685 59 142 0
12:49:03.3 53 78 4:16.310 23.877 84 154 0
12:52:23.1 54 80 3:19.748 30.639 63 142 0
12:55:39.1 55 82 3:15.973 31.229 63 141 0
12:58:58.5 56 82 3:19.407 30.691 65 141 0
13:02:21.7 57 84 3:23.207 30.117 61 141 0
13:07:02.9 58 86 4:41.210 21.763 80 155 0
13:09:55.9 59 87 2:53.059 35.364 58 139 0
13:12:47.4 60 89 2:51.440 35.698 58 140 0
13:15:45.3 61 90 2:57.938 34.394 61 140 0
13:18:45.0 62 92 2:59.681 34.060 62 140 0
13:23:12.3 63 93 4:27.321 22.894 80 154 0
13:25:46.8 64 95 2:34.432 39.629 59 139 0
13:28:22.8 65 96 2:36.087 39.209 56 140 0
13:30:54.8 66 97 2:31.980 40.268 57 138 0
13:33:26.7 67 99 2:31.849 40.303 57 140 0
13:35:57.6 68 100 2:30.929 40.549 50 139 0
13:38:32.2 69 101 2:34.634 39.577 58 139 0
13:41:10.6 70 103 2:38.354 38.648 59 141 0
13:43:57.8 71 104 2:47.187 36.606 58 140 0
13:48:18.1 72 105 4:20.351 23.507 84 154 0
13:51:08.1 73 107 2:49.997 36.001 59 142 0
13:54:04.8 74 108 2:56.705 34.634 61 144 0
13:57:07.8 75 110 3:02.987 33.445 58 143 0
14:11:03.3 76 115 13:55.484 7.325 75 154 0
14:13:50.5 77 116 2:47.192 36.605 56 139 0
14:16:24.2 78 117 2:33.725 39.811 59 140 0
14:19:11.3 79 119 2:47.042 36.637 58 139 0
14:21:52.4 80 120 2:41.091 37.991 56 140 1
14:25:43.1 81 122 3:50.704 26.527 71 152 0
14:28:26.2 82 123 2:43.131 37.516 60 140 0
14:31:11.0 83 124 2:44.780 37.140 61 140 0
14:33:57.1 84 125 2:46.139 36.837 58 139 0
14:36:46.8 85 126 2:49.718 36.060 60 140 0
14:39:31.8 86 128 2:45.005 37.090 58 140 0
14:42:17.5 87 129 2:45.709 36.932 58 139 0
14:44:52.5 88 130 2:34.950 39.497 59 139 0
14:48:55.0 89 132 4:02.517 25.235 78 154 0
14:52:04.6 90 134 3:09.576 32.283 61 140 0
14:55:21.5 91 135 3:16.902 31.081 66 142 0
15:00:20.1 92 138 4:58.596 20.496 78 155 0
15:02:50.6 93 139 2:30.563 40.647 56 142 0
15:10:44.0 94 142 7:53.322 12.930 79 155 3
15:13:11.6 95 144 2:27.629 41.455 53 139 1
15:15:45.1 96 145 2:33.464 39.879 56 143 2
15:18:26.2 97 146 2:41.131 37.982 58 138 1
15:22:55.0 98 148 4:28.857 22.763 84 155 2
15:25:51.9 99 150 2:56.822 34.611 58 138 3
15:28:53.4 100 151 3:01.506 33.718 56 140 2
15:31:55.3 101 153 3:01.891 33.647 59 140 3
15:35:01.2 102 154 3:05.980 32.907 56 139 3
15:38:08.1 103 156 3:06.855 32.753 61 140 1
15:42:46.8 104 158 4:38.699 21.959 81 155 0
15:45:34.3 105 159 2:47.548 36.527 59 139 2
15:48:18.7 106 160 2:44.385 37.230 58 139 2
15:51:05.3 107 162 2:46.552 36.745 59 140 1
15:53:52.5 108 163 2:47.178 36.608 55 139 2
15:56:33.8 109 165 2:41.328 37.935 57 140 4
15:59:27.0 110 166 2:53.242 35.326 60 140 4
16:02:24.3 111 168 2:57.314 34.515 61 141 6
16:05:19.7 112 169 2:55.358 34.900 60 140 2
23 - Taurus SMS/BGS - Open
10:05:19.9 1 1 2:42.276 37.714 56 172 9
10:07:59.4 2 2 2:39.546 38.359 58 167 6
10:10:39.9 3 4 2:40.509 38.129 59 174 9
10:13:24.5 4 5 2:44.603 37.180 59 170 7
10:16:16.0 5 7 2:51.521 35.681 56 172 6
10:20:43.1 6 9 4:27.081 22.914 84 178 6
10:24:00.9 7 10 3:17.760 30.947 60 174 4
10:26:53.1 8 12 2:52.198 35.540 57 166 9
10:29:51.5 9 13 2:58.433 34.299 61 175 6
10:34:32.9 10 15 4:41.395 21.749 73 177 6
10:37:27.3 11 17 2:54.341 35.104 58 169 6
10:40:21.8 12 18 2:54.563 35.059 58 175 3
10:43:04.0 13 20 2:42.140 37.745 57 170 4
10:45:45.8 14 21 2:41.796 37.825 62 173 8
10:48:32.1 15 22 2:46.395 36.780 60 173 6
10:53:12.4 16 24 4:40.206 21.841 83 178 4
10:56:18.9 17 26 3:06.523 32.811 57 172 1
10:59:21.5 18 27 3:02.626 33.511 58 171 1
11:02:28.0 19 28 3:06.446 32.825 62 173 3
11:05:20.0 20 30 2:52.001 35.581 58 169 1
11:09:23.2 21 32 4:03.288 25.155 70 175 0
11:12:17.6 22 33 2:54.392 35.093 55 165 1
11:15:00.7 23 35 2:43.065 37.531 61 169 2
11:17:58.7 24 36 2:57.970 34.388 61 169 0
11:21:02.4 25 37 3:03.782 33.300 62 171 2
11:26:11.2 26 40 5:08.734 19.823 71 175 2
11:29:30.6 27 41 3:19.445 30.685 59 170 2
11:33:33.0 28 43 4:02.323 25.256 66 175 1
11:36:17.4 29 45 2:44.420 37.222 62 171 1
11:40:59.4 30 47 4:42.021 21.701 71 176 2
11:43:49.2 31 48 2:49.830 36.036 60 173 1
11:46:38.4 32 49 2:49.150 36.181 60 174 0
11:49:31.4 33 51 2:53.052 35.365 61 175 0
11:52:25.0 34 52 2:53.597 35.254 60 173 0
11:55:18.7 35 54 2:53.673 35.239 61 171 0
11:59:41.8 36 56 4:23.123 23.259 75 177 0
12:02:50.2 37 57 3:08.336 32.495 61 176 0
12:05:48.9 38 59 2:58.782 34.232 60 171 0
12:08:50.7 39 60 3:01.751 33.672 55 172 0
12:11:47.2 40 62 2:56.506 34.673 60 171 0
12:16:07.2 41 63 4:20.008 23.538 70 176 0
12:19:24.6 42 65 3:17.408 31.002 57 172 0
12:22:19.8 43 66 2:55.236 34.924 60 166 0
12:25:15.6 44 68 2:55.756 34.821 60 172 0
12:28:03.0 45 69 2:47.396 36.560 59 168 0
12:32:20.1 46 71 4:17.146 23.800 68 176 0
12:35:28.0 47 72 3:07.813 32.586 58 174 0
12:38:28.9 48 73 3:00.986 33.815 62 172 0
12:41:42.9 49 75 3:13.920 31.559 61 177 0
12:46:15.1 50 77 4:32.271 22.478 72 178 0
12:49:23.4 51 79 3:08.250 32.510 62 169 0
12:52:19.7 52 80 2:56.300 34.714 52 166 0
12:55:22.8 53 81 3:03.121 33.421 60 171 0
12:58:33.3 54 82 3:10.512 32.124 62 168 0
13:03:04.1 55 84 4:30.739 22.605 84 181 0
13:05:56.5 56 86 2:52.481 35.482 56 169 0
13:08:53.5 57 87 2:56.926 34.591 60 167 0
13:11:46.7 58 88 2:53.271 35.320 59 169 0
13:15:17.3 59 90 3:30.529 29.070 63 174 0
13:19:29.6 60 92 4:12.365 24.251 71 176 0
13:22:08.5 61 93 2:38.868 38.523 58 171 0
13:24:47.0 62 94 2:38.545 38.601 57 167 0
13:27:29.0 63 96 2:41.932 37.794 58 174 0
13:31:29.2 64 98 4:00.276 25.471 77 179 0
13:34:16.1 65 99 2:46.873 36.675 60 175 0
13:37:15.7 66 101 2:59.542 34.087 64 177 0
13:40:29.7 67 102 3:14.043 31.539 60 175 0
13:44:26.3 68 104 3:56.546 25.872 72 177 0
13:47:16.4 69 105 2:50.140 35.970 59 172 0
13:49:51.1 70 106 2:34.715 39.557 58 175 0
13:52:39.7 71 108 2:48.632 36.292 57 168 0
13:55:26.1 72 109 2:46.376 36.784 59 171 0
13:58:23.0 73 110 2:56.893 34.597 61 173 0
14:02:45.9 74 112 4:22.886 23.280 82 180 0
14:05:35.2 75 112 2:49.275 36.154 61 174 1
14:08:31.5 76 114 2:56.356 34.703 61 175 1
14:11:34.7 77 115 3:03.181 33.410 62 176 1
14:14:45.1 78 117 3:10.396 32.144 62 176 0
14:17:53.0 79 118 3:07.927 32.566 61 173 0
14:21:54.1 80 120 4:01.071 25.387 74 178 1
14:24:51.0 81 121 2:56.940 34.588 61 173 0
14:27:50.5 82 123 2:59.485 34.098 59 172 0
14:30:47.2 83 124 2:56.651 34.645 61 170 0
14:33:42.4 84 125 2:55.262 34.919 62 173 0
14:36:43.7 85 126 3:01.302 33.756 61 168 0
14:41:20.1 86 129 4:36.362 22.145 82 179 0
14:44:08.4 87 130 2:48.330 36.357 59 171 0
14:47:08.2 88 131 2:59.802 34.037 60 173 0
14:50:00.9 89 133 2:52.713 35.435 61 170 0
14:54:28.8 90 135 4:27.879 22.846 71 178 0
15:00:33.2 91 138 6:04.387 16.795 75 179 0
15:03:53.7 92 139 3:20.510 30.522 59 170 0
15:06:42.3 93 140 2:48.604 36.298 59 172 0
15:09:25.3 94 142 2:42.930 37.562 56 168 1
15:12:19.1 95 143 2:53.821 35.209 59 168 2
15:16:46.7 96 145 4:27.634 22.867 79 179 1
15:19:43.6 97 147 2:56.892 34.597 60 174 1
15:22:37.7 98 148 2:54.121 35.148 58 168 3
15:25:32.4 99 150 2:54.710 35.029 59 171 3
15:28:34.2 100 151 3:01.728 33.677 59 171 3
15:31:31.8 101 153 2:57.623 34.455 59 172 2
15:35:41.2 102 155 4:09.398 24.539 75 178 2
15:38:44.1 103 156 3:02.890 33.463 61 173 0
15:41:47.4 104 157 3:03.294 33.389 60 170 2
15:44:38.0 105 159 2:50.673 35.858 57 172 0
15:48:34.3 106 161 3:56.284 25.901 78 179 4
15:51:43.2 107 162 3:08.880 32.402 60 168 3
15:54:49.8 108 164 3:06.606 32.796 60 171 3
15:57:59.9 109 166 3:10.135 32.188 57 175 5
16:01:07.9 110 167 3:07.934 32.565 57 175 4
16:04:13.0 111 169 3:05.072 33.068 60 172 3
72 - Electra SMS/BGS - Vet
10:06:05.2 1 2 3:04.651 33.144 62 173 7
10:09:31.5 2 3 3:26.277 29.669 62 175 8
10:13:16.8 3 5 3:45.268 27.168 62 174 8
10:17:19.8 4 7 4:03.048 25.180 65 174 10
10:22:41.4 5 10 5:21.598 19.030 81 181 7
10:25:39.8 6 11 2:58.366 34.311 59 174 6
10:28:24.1 7 13 2:44.304 37.248 58 168 8
10:31:08.7 8 14 2:44.656 37.168 59 174 6
10:34:14.4 9 15 3:05.671 32.962 59 173 6
10:37:08.7 10 17 2:54.280 35.116 61 170 4
10:41:13.7 11 19 4:05.054 24.974 75 180 3
10:44:25.3 12 20 3:11.570 31.947 64 172 5
10:48:07.1 13 22 3:41.788 27.594 63 174 5
10:51:59.1 14 24 3:52.042 26.375 64 170 5
10:55:58.1 15 26 3:58.912 25.616 69 174 3
11:00:02.5 16 27 4:04.447 25.036 68 175 3
11:04:59.9 17 30 4:57.402 20.578 82 181 0
11:07:50.9 18 31 2:50.959 35.798 59 173 0
11:10:35.7 19 32 2:44.804 37.135 61 175 1
11:13:29.1 20 34 2:53.427 35.289 61 174 1
11:16:23.3 21 35 2:54.159 35.140 59 174 0
11:19:12.8 22 36 2:49.547 36.096 60 175 0
11:22:07.5 23 38 2:54.705 35.030 60 169 0
11:25:12.7 24 39 3:05.236 33.039 64 168 2
11:28:18.2 25 41 3:05.494 32.993 61 172 2
11:32:16.0 26 43 3:57.785 25.738 70 177 2
11:35:00.3 27 44 2:44.268 37.256 61 168 1
11:37:57.2 28 45 2:56.937 34.589 61 170 0
11:41:00.8 29 47 3:03.571 33.339 62 171 2
11:44:02.5 30 48 3:01.719 33.678 57 170 1
11:47:14.4 31 50 3:11.868 31.897 64 171 0
11:50:30.6 32 51 3:16.203 31.192 63 171 1
11:53:33.9 33 53 3:03.282 33.391 62 174 0
11:59:11.0 34 56 5:37.106 18.155 79 181 0
12:02:13.0 35 57 3:02.031 33.621 63 171 0
12:05:34.3 36 59 3:21.327 30.398 65 171 0
12:08:56.1 37 60 3:21.802 30.327 66 173 0
12:12:16.8 38 62 3:20.652 30.501 66 171 0
12:15:42.3 39 63 3:25.534 29.776 65 172 0
12:20:29.9 40 65 4:47.599 21.280 72 178 0
12:23:38.1 41 67 3:08.133 32.530 62 171 0
12:26:52.9 42 68 3:14.815 31.414 63 171 0
12:29:59.1 43 70 3:06.249 32.859 65 170 0
12:33:12.7 44 71 3:13.628 31.607 63 173 0
12:36:09.1 45 72 2:56.359 34.702 63 171 0
12:40:44.5 46 74 4:35.378 22.224 82 181 0
12:44:09.4 47 76 3:24.944 29.862 61 173 0
12:47:31.5 48 78 3:22.036 30.292 66 175 0
12:50:54.0 49 79 3:22.555 30.214 62 173 0
12:54:15.2 50 81 3:21.165 30.423 62 172 0
12:59:18.5 51 82 5:03.293 20.179 84 179 0
13:02:30.7 52 84 3:12.178 31.845 62 171 0
13:05:48.5 53 85 3:17.867 30.930 63 172 0
13:09:03.1 54 87 3:14.620 31.446 64 170 0
13:12:12.3 55 89 3:09.118 32.361 63 173 0
13:15:31.6 56 90 3:19.303 30.707 64 169 0
13:18:42.6 57 92 3:11.066 32.031 65 171 0
13:21:55.6 58 93 3:12.957 31.717 63 172 0
13:26:30.0 59 95 4:34.389 22.304 72 178 0
13:29:39.9 60 97 3:09.879 32.231 63 173 0
13:32:49.5 61 98 3:09.626 32.274 62 175 0
13:35:39.2 62 100 2:49.687 36.066 59 175 0
13:38:47.0 63 101 3:07.814 32.585 62 173 0
13:41:58.9 64 103 3:11.965 31.881 62 173 0
13:45:12.0 65 104 3:13.077 31.697 65 172 0
13:48:31.8 66 106 3:19.730 30.641 65 173 0
13:53:20.3 67 108 4:48.521 21.212 83 180 0
13:56:46.6 68 110 3:26.352 29.658 64 170 0
14:00:02.6 69 111 3:15.939 31.234 64 173 0
14:03:18.9 70 112 3:16.288 31.179 65 172 0
14:06:33.5 71 113 3:14.694 31.434 63 173 0
14:09:46.8 72 114 3:13.286 31.663 66 171 0
14:14:30.1 73 116 4:43.303 21.602 76 178 0
14:17:55.3 74 118 3:25.151 29.832 63 176 0
14:21:06.8 75 120 3:11.480 31.962 63 175 0
14:24:02.9 76 121 2:56.101 34.753 60 172 0
14:26:54.1 77 122 2:51.205 35.747 62 171 0
14:30:59.4 78 124 4:05.345 24.944 72 176 0
14:33:34.1 79 125 2:34.725 39.554 60 170 0
14:36:13.4 80 126 2:39.264 38.427 58 167 0
14:38:59.9 81 128 2:46.517 36.753 62 168 0
14:41:52.5 82 129 2:52.610 35.456 61 169 0
14:44:43.9 83 130 2:51.414 35.703 59 172 0
14:47:32.6 84 132 2:48.619 36.295 61 171 0
14:50:26.1 85 133 2:53.498 35.274 61 171 0
14:55:05.6 86 135 4:39.519 21.895 78 177 0
14:58:22.8 87 137 3:17.239 31.028 64 173 0
15:01:36.0 88 138 3:13.156 31.684 63 174 0
15:04:48.2 89 139 3:12.177 31.846 62 171 0
15:08:02.1 90 141 3:13.977 31.550 65 173 0
15:11:32.3 91 143 3:30.129 29.125 64 174 1
15:16:26.2 92 145 4:53.965 20.819 83 180 3
15:19:36.9 93 147 3:10.724 32.088 58 168 2
15:22:39.5 94 148 3:02.560 33.523 60 169 3
15:25:46.8 95 150 3:07.328 32.670 61 172 2
15:28:52.8 96 151 3:05.958 32.911 61 169 2
15:31:50.8 97 153 2:58.014 34.379 61 169 3
15:34:56.5 98 154 3:05.711 32.954 61 173 3
15:39:11.8 99 156 4:15.306 23.971 72 177 1
15:41:57.3 100 157 2:45.472 36.985 59 169 0
15:44:39.6 101 159 2:42.286 37.711 59 169 0
15:47:25.7 102 160 2:46.110 36.843 59 167 1
15:50:18.0 103 162 2:52.256 35.529 60 173 0
15:53:11.6 104 163 2:53.607 35.252 58 167 2
15:56:17.3 105 165 3:05.760 32.946 62 174 6
15:59:21.4 106 166 3:04.074 33.247 61 168 8
16:02:20.2 107 168 2:58.774 34.233 57 170 6
16:05:01.9 108 169 2:41.724 37.842 58 170 1
70 - GSR Great Southern R - Comm
10:05:05.5 1 1 2:42.840 37.583 56 161 6
10:07:59.0 2 2 2:53.488 35.276 63 161 6
10:10:57.0 3 4 2:57.964 34.389 61 162 8
10:13:58.8 4 5 3:01.843 33.655 63 162 8
10:17:02.0 5 7 3:03.181 33.410 63 161 8
10:20:02.5 6 8 3:00.465 33.912 64 162 5
10:22:57.5 7 10 2:54.970 34.977 64 162 6
10:25:50.5 8 11 2:53.045 35.367 64 161 6
10:30:22.6 9 13 4:32.151 22.488 62 159 6
10:33:22.4 10 15 2:59.799 34.038 64 158 7
10:37:09.4 11 17 3:46.927 26.969 63 160 4
10:40:06.4 12 18 2:57.064 34.564 62 162 3
10:42:59.0 13 19 2:52.572 35.463 62 161 4
10:47:15.3 14 21 4:16.264 23.882 66 158 6
10:50:14.8 15 23 2:59.567 34.082 65 157 6
10:53:12.2 16 24 2:57.353 34.507 63 158 4
10:56:14.3 17 26 3:02.114 33.605 65 163 1
10:59:19.0 18 27 3:04.671 33.140 64 159 1
11:02:58.0 19 29 3:39.027 27.942 60 159 2
11:05:28.5 20 30 2:30.495 40.666 59 156 0
11:08:05.1 21 31 2:36.608 39.078 62 157 0
11:10:40.1 22 32 2:35.015 39.480 62 157 0
11:13:22.8 23 34 2:42.627 37.632 64 158 2
11:16:07.8 24 35 2:45.014 37.088 64 156 2
11:18:51.5 25 36 2:43.780 37.367 62 158 0
11:21:27.1 26 38 2:35.539 39.347 63 157 1
11:24:24.5 27 39 2:57.457 34.487 64 156 1
11:27:22.7 28 40 2:58.111 34.361 64 160 1
11:30:18.8 29 42 2:56.168 34.740 67 158 1
11:35:00.8 30 44 4:42.011 21.701 68 162 1
11:38:29.1 31 46 3:28.256 29.387 71 160 1
11:42:16.1 32 47 3:47.010 26.959 70 161 1
11:45:48.3 33 49 3:32.239 28.835 68 160 1
11:49:24.7 34 51 3:36.350 28.287 70 161 0
11:53:01.1 35 53 3:36.392 28.282 69 160 0
11:57:15.9 36 55 4:14.788 24.020 59 155 0
11:59:54.1 37 56 2:38.188 38.688 63 158 0
12:02:42.7 38 57 2:48.691 36.279 69 160 0
12:05:42.8 39 59 3:00.071 33.987 68 157 0
12:08:50.6 40 60 3:07.777 32.592 69 158 0
12:12:09.1 41 62 3:18.497 30.832 73 159 0
12:16:38.9 42 63 4:29.830 22.681 65 163 0
12:19:34.6 43 65 2:55.706 34.831 63 162 0
12:22:37.8 44 66 3:03.138 33.417 64 161 0
12:25:33.5 45 68 2:55.732 34.826 64 158 0
12:28:34.6 46 69 3:01.084 33.796 65 160 0
12:31:34.3 47 71 2:59.724 34.052 64 162 0
12:34:28.7 48 72 2:54.350 35.102 66 161 0
12:37:29.3 49 73 3:00.610 33.885 66 162 0
12:40:32.9 50 74 3:03.656 33.323 65 159 0
12:43:37.0 51 76 3:04.122 33.239 65 160 0
12:48:09.5 52 78 4:32.493 22.459 66 158 0
12:51:18.0 53 79 3:08.422 32.480 61 163 0
12:54:21.3 54 81 3:03.294 33.389 63 158 0
12:57:28.5 55 82 3:07.264 32.681 65 157 0
13:00:30.5 56 83 3:01.944 33.637 64 159 0
13:03:42.3 57 84 3:11.863 31.898 68 158 0
13:06:50.3 58 86 3:08.003 32.553 65 159 0
13:11:19.4 59 88 4:29.110 22.742 68 157 0
13:14:33.4 60 90 3:14.000 31.546 66 158 0
13:17:56.0 61 91 3:22.524 30.219 66 157 0
13:21:05.7 62 93 3:09.775 32.249 65 158 0
13:24:36.4 63 94 3:30.662 29.051 68 159 0
13:28:53.6 64 96 4:17.172 23.797 61 155 0
13:31:30.8 65 98 2:37.193 38.933 64 157 0
13:34:08.5 66 99 2:37.758 38.794 64 157 0
13:36:50.4 67 100 2:41.860 37.810 63 157 0
13:39:35.7 68 102 2:45.336 37.016 65 157 0
13:42:26.2 69 103 2:50.465 35.902 64 156 0
13:45:19.1 70 104 2:52.938 35.388 63 157 0
13:47:59.2 71 105 2:40.068 38.234 60 157 0
13:50:43.9 72 107 2:44.746 37.148 65 156 0
13:53:53.6 73 108 3:09.667 32.267 73 157 0
13:59:17.6 74 111 5:24.017 18.888 69 157 0
14:03:05.3 75 112 3:47.650 26.883 67 160 0
14:06:58.8 76 113 3:53.543 26.205 71 162 0
14:10:49.3 77 115 3:50.539 26.546 72 162 0
14:15:03.9 78 117 4:14.568 24.041 73 159 0
14:19:28.9 79 119 4:24.976 23.096 69 159 0
14:24:30.4 80 121 5:01.492 20.299 67 157 0
14:27:41.9 81 123 3:11.522 31.955 67 157 0
14:31:01.9 82 124 3:20.017 30.597 67 157 0
14:34:31.3 83 125 3:29.390 29.228 69 157 0
14:38:01.0 84 127 3:29.728 29.181 67 157 0
14:41:39.0 85 129 3:37.945 28.080 73 158 0
14:45:24.0 86 131 3:44.968 27.204 69 157 0
14:50:07.7 87 133 4:43.705 21.572 68 160 0
14:53:25.2 88 134 3:17.546 30.980 63 155 0
14:56:40.5 89 136 3:15.268 31.342 67 160 0
15:00:05.3 90 138 3:24.875 29.872 67 160 0
15:03:28.5 91 139 3:23.184 30.120 65 161 0
15:06:44.3 92 140 3:15.742 31.266 66 159 0
15:11:35.3 93 143 4:51.009 21.030 67 160 1
15:15:12.5 94 145 3:37.186 28.179 64 160 1
15:20:28.0 95 147 5:15.518 19.397 71 159 1
15:24:46.6 96 149 4:18.635 23.663 70 156 2
15:29:04.4 97 151 4:17.799 23.739 72 159 3
15:33:38.1 98 154 4:33.650 22.364 72 158 1
15:38:50.6 99 156 5:12.493 19.584 68 155 0
15:42:18.5 100 157 3:27.900 29.437 67 155 2
15:45:50.5 101 159 3:32.001 28.868 67 156 1
15:49:44.5 102 161 3:54.045 26.149 60 155 3
15:52:27.6 103 163 2:43.105 37.522 61 154 1
15:55:25.7 104 164 2:58.060 34.370 63 155 5
15:58:20.9 105 166 2:55.191 34.933 60 155 5
16:01:19.7 106 167 2:58.787 34.231 63 155 6
16:04:15.7 107 169 2:56.068 34.759 62 155 3
87 - Gecko 1 Gecko R seymour - Vet
10:05:16.1 1 1 2:47.826 36.466 58 169 9
10:08:03.2 2 2 2:47.093 36.626 55 169 6
10:10:53.0 3 4 2:49.744 36.054 58 168 8
10:13:44.2 4 5 2:51.282 35.731 60 168 7
10:16:39.2 5 7 2:55.009 34.970 58 168 6
10:19:36.7 6 8 2:57.495 34.480 60 169 9
10:22:32.1 7 10 2:55.378 34.896 61 168 7
10:25:22.5 8 11 2:50.428 35.910 60 165 5
10:29:57.8 9 13 4:35.274 22.232 65 172 6
10:33:24.8 10 15 3:27.024 29.562 59 171 7
10:36:54.5 11 17 3:29.676 29.188 65 171 4
10:40:33.3 12 18 3:38.743 27.978 63 172 4
10:43:58.3 13 20 3:25.013 29.852 67 172 5
10:47:24.3 14 22 3:25.999 29.709 62 173 5
10:51:49.1 15 24 4:24.820 23.110 64 167 6
10:55:15.6 16 25 3:26.534 29.632 69 169 1
10:59:05.5 17 27 3:49.841 26.627 70 170 3
11:02:57.6 18 29 3:52.136 26.364 70 169 2
11:06:50.3 19 31 3:52.675 26.303 70 170 3
11:11:22.1 20 33 4:31.832 22.514 59 168 2
11:14:13.3 21 34 2:51.162 35.756 58 168 0
11:17:08.4 22 36 2:55.169 34.938 61 167 0
11:20:00.4 23 37 2:51.941 35.594 58 167 2
11:22:58.6 24 38 2:58.168 34.350 62 167 0
11:26:05.9 25 40 3:07.392 32.659 62 168 2
11:30:05.6 26 42 3:59.645 25.538 61 169 2
11:32:53.6 27 43 2:47.970 36.435 61 168 2
11:35:40.8 28 44 2:47.249 36.592 60 167 1
11:38:36.1 29 46 2:55.262 34.919 60 169 1
11:41:27.7 30 47 2:51.675 35.649 61 170 2
11:44:28.9 31 48 3:01.130 33.788 62 168 0
11:47:28.8 32 50 2:59.916 34.016 61 168 1
11:50:18.3 33 51 2:49.513 36.103 60 167 1
11:53:14.6 34 53 2:56.312 34.711 60 168 0
11:57:29.2 35 55 4:14.596 24.038 64 169 0
12:00:49.4 36 56 3:20.216 30.567 64 171 0
12:04:05.5 37 58 3:16.115 31.206 61 171 0
12:07:32.0 38 59 3:26.489 29.638 65 169 0
12:10:55.4 39 61 3:23.407 30.087 66 170 0
12:14:20.6 40 63 3:25.138 29.834 67 169 0
12:17:42.6 41 64 3:22.058 30.288 64 167 0
12:22:19.0 42 66 4:36.399 22.142 69 169 0
12:25:56.7 43 68 3:37.618 28.123 70 169 0
12:29:48.6 44 70 3:51.907 26.390 69 169 0
12:33:49.7 45 72 4:01.104 25.383 75 171 0
12:37:54.9 46 73 4:05.278 24.951 73 169 0
12:42:42.0 47 75 4:47.094 21.317 63 171 0
12:45:33.7 48 77 2:51.714 35.641 63 169 0
12:48:37.9 49 78 3:04.126 33.238 60 166 0
12:51:33.0 50 80 2:55.157 34.940 63 170 0
12:54:42.5 51 81 3:09.469 32.301 62 170 0
12:57:40.0 52 82 2:57.450 34.489 62 169 0
13:02:01.6 53 84 4:21.660 23.389 62 168 0
13:04:59.9 54 85 2:58.288 34.326 59 171 0
13:07:56.2 55 86 2:56.288 34.716 60 168 0
13:10:54.1 56 88 2:57.944 34.393 61 168 0
13:13:49.0 57 89 2:54.827 35.006 59 167 0
13:16:55.5 58 91 3:06.578 32.801 63 169 0
13:19:52.4 59 92 2:56.905 34.595 62 167 0
13:24:43.0 60 94 4:50.602 21.060 66 170 0
13:28:08.0 61 96 3:24.951 29.861 59 171 0
13:31:39.8 62 98 3:31.849 28.889 67 168 0
13:35:13.2 63 100 3:33.322 28.689 64 171 0
13:38:35.1 64 101 3:21.901 30.312 62 170 0
13:41:57.8 65 103 3:22.734 30.187 63 170 0
13:45:11.1 66 104 3:13.348 31.653 64 170 0
13:49:50.0 67 106 4:38.850 21.947 67 168 0
13:53:36.3 68 108 3:46.297 27.044 68 167 0
13:57:39.3 69 110 4:02.977 25.188 69 170 0
14:01:43.0 70 112 4:03.707 25.112 74 170 0
14:05:49.4 71 112 4:06.429 24.835 67 169 0
14:10:34.7 72 115 4:45.262 21.454 62 170 0
14:13:45.7 73 116 3:10.988 32.044 63 168 0
14:17:00.6 74 118 3:14.908 31.399 65 167 0
14:20:04.9 75 119 3:04.373 33.194 62 166 0
14:23:09.0 76 120 3:04.092 33.244 65 168 0
14:26:09.0 77 122 2:59.950 34.009 64 167 0
14:29:18.2 78 123 3:09.241 32.340 64 169 0
14:32:38.6 79 124 3:20.385 30.541 64 169 0
14:37:04.2 80 127 4:25.544 23.047 62 167 0
14:39:58.8 81 128 2:54.672 35.037 61 169 0
14:43:02.1 82 129 3:03.231 33.400 62 171 0
14:46:08.2 83 131 3:06.173 32.873 62 168 0
14:49:08.7 84 132 3:00.440 33.917 62 168 0
14:52:14.2 85 134 3:05.539 32.985 62 168 0
14:55:16.3 86 135 3:02.083 33.611 61 167 0
14:58:15.5 87 137 2:59.211 34.150 63 169 0
15:01:13.3 88 138 2:57.759 34.429 60 167 0
15:04:09.3 89 139 2:56.034 34.766 61 167 0
15:08:36.8 90 141 4:27.498 22.879 65 169 0
15:12:08.6 91 143 3:31.786 28.897 63 171 0
15:15:35.4 92 145 3:26.801 29.594 63 169 2
15:19:03.3 93 147 3:27.927 29.433 65 171 5
15:22:34.0 94 148 3:30.675 29.049 66 169 1
15:25:53.1 95 150 3:19.074 30.742 61 166 3
15:30:38.8 96 152 4:45.782 21.415 63 167 1
15:34:06.1 97 154 3:27.298 29.523 66 168 0
15:38:20.8 98 156 4:14.698 24.028 68 168 1
15:42:58.9 99 158 4:38.058 22.010 60 168 0
15:45:44.5 100 159 2:45.582 36.961 60 167 1
15:48:49.3 101 161 3:04.864 33.105 60 168 1
15:51:41.5 102 162 2:52.115 35.558 60 170 3
15:54:37.6 103 164 2:56.108 34.751 61 168 1
15:57:41.7 104 165 3:04.126 33.238 61 167 4
16:01:40.6 105 167 3:58.874 25.620 58 167 4
16:04:16.8 106 169 2:36.219 39.176 57 164 3
37 - Surge Padua College - Open
10:06:08.3 1 2 3:25.372 29.800 61 160 7
10:09:37.1 2 3 3:28.817 29.308 63 159 8
10:13:10.1 3 5 3:33.010 28.731 60 158 8
10:16:49.8 4 7 3:39.749 27.850 65 161 6
10:20:35.3 5 9 3:45.471 27.143 65 163 7
10:24:27.2 6 11 3:51.933 26.387 66 160 5
10:30:29.1 7 14 6:01.841 16.914 69 164 6
10:33:52.1 8 15 3:22.997 30.148 63 163 7
10:37:32.3 9 17 3:40.188 27.794 64 159 5
10:41:17.0 10 19 3:44.767 27.228 66 165 3
10:45:06.7 11 21 3:49.626 26.652 69 163 5
10:49:29.4 12 23 4:22.751 23.292 68 163 6
10:54:16.6 13 25 4:47.216 21.308 68 162 0
10:59:16.9 14 27 5:00.241 20.384 70 163 1
11:01:59.3 15 28 2:42.405 37.684 59 158 3
11:05:06.4 16 30 3:07.093 32.711 63 157 2
11:08:19.5 17 31 3:13.089 31.695 60 156 2
11:11:34.4 18 33 3:14.992 31.386 61 157 1
11:15:02.4 19 35 3:27.968 29.428 63 160 2
11:18:34.1 20 36 3:31.659 28.914 63 158 0
11:21:55.1 21 38 3:21.027 30.444 63 159 0
11:26:00.1 22 40 4:05.009 24.979 75 164 1
11:28:50.9 23 41 2:50.824 35.826 58 153 1
11:31:48.9 24 42 2:58.009 34.380 57 159 1
11:34:50.4 25 44 3:01.502 33.719 58 158 2
11:37:56.3 26 45 3:05.894 32.922 59 155 0
11:40:57.1 27 47 3:00.768 33.856 61 154 2
11:44:02.4 28 48 3:05.297 33.028 57 156 1
11:47:11.1 29 50 3:08.718 32.429 61 155 0
11:50:28.2 30 51 3:17.084 31.053 59 154 1
11:53:37.3 31 53 3:09.113 32.362 63 157 0
11:57:55.8 32 55 4:18.491 23.676 79 166 0
12:00:53.6 33 56 2:57.803 34.420 60 156 0
12:03:53.4 34 58 2:59.778 34.042 60 156 0
12:06:51.1 35 59 2:57.702 34.440 60 155 0
12:09:49.3 36 61 2:58.191 34.345 61 157 0
12:12:48.9 37 62 2:59.618 34.072 61 155 0
12:15:48.1 38 63 2:59.196 34.153 61 156 0
12:18:51.3 39 64 3:03.194 33.407 58 154 0
12:21:56.2 40 66 3:04.918 33.096 62 157 0
12:25:04.8 41 67 3:08.593 32.451 61 154 0
12:30:34.3 42 70 5:29.459 18.576 74 164 0
12:33:51.1 43 72 3:16.854 31.089 60 155 0
12:37:03.1 44 73 3:12.003 31.875 64 159 0
12:40:20.0 45 74 3:16.834 31.092 61 157 0
12:43:49.4 46 76 3:29.489 29.214 61 158 0
12:47:13.6 47 77 3:24.173 29.975 59 154 0
12:50:58.4 48 79 3:44.745 27.231 66 159 0
12:54:49.5 49 81 3:51.116 26.480 67 156 0
13:00:33.6 50 83 5:44.157 17.783 75 165 0
13:03:32.9 51 84 2:59.218 34.148 60 160 0
13:06:28.7 52 86 2:55.859 34.801 60 157 0
13:09:32.8 53 87 3:04.056 33.251 61 157 0
13:12:37.1 54 89 3:04.331 33.201 62 155 0
13:15:41.4 55 90 3:04.303 33.206 61 158 0
13:18:46.6 56 92 3:05.207 33.044 64 155 0
13:22:02.3 57 93 3:15.658 31.279 65 157 0
13:25:28.8 58 95 3:26.545 29.630 65 157 0
13:30:44.7 59 97 5:15.852 19.376 83 167 0
13:34:47.5 60 99 4:02.830 25.203 65 161 0
13:38:40.6 61 101 3:53.132 26.251 67 158 0
13:42:56.5 62 103 4:15.831 23.922 67 158 0
13:46:50.1 63 105 3:53.616 26.197 67 158 0
13:51:08.1 64 107 4:18.031 23.718 61 156 0
13:55:40.9 65 109 4:32.781 22.436 67 157 0
14:01:49.3 66 112 6:08.438 16.611 74 165 0
14:05:36.3 67 112 3:46.947 26.967 64 163 1
14:09:25.5 68 114 3:49.273 26.693 68 163 0
14:13:41.9 69 116 4:16.325 23.876 69 163 0
14:18:12.9 70 118 4:31.045 22.579 70 160 0
14:22:39.8 71 120 4:26.873 22.932 61 158 0
14:26:42.3 72 122 4:02.485 25.239 67 162 0
14:31:30.9 73 124 4:48.624 21.204 75 164 0
14:34:43.4 74 125 3:12.539 31.786 61 155 0
14:37:42.6 75 127 2:59.143 34.163 56 153 0
14:40:46.0 76 128 3:03.426 33.365 59 156 0
14:43:47.7 77 130 3:01.719 33.678 60 155 0
14:47:03.9 78 131 3:16.167 31.198 63 158 0
14:50:25.2 79 133 3:21.324 30.399 64 156 0
14:54:07.3 80 135 3:42.136 27.551 64 154 0
14:59:12.6 81 137 5:05.278 20.047 75 165 0
15:02:18.2 82 139 3:05.574 32.979 60 157 0
15:05:22.1 83 140 3:03.948 33.270 60 157 0
15:08:31.0 84 141 3:08.808 32.414 60 157 0
15:11:40.5 85 143 3:09.553 32.286 60 154 1
15:14:53.5 86 144 3:13.038 31.704 59 156 3
15:18:06.7 87 146 3:13.201 31.677 61 157 1
15:21:27.0 88 148 3:20.217 30.567 64 158 3
15:24:50.2 89 149 3:23.197 30.119 64 156 2
15:28:23.2 90 151 3:33.058 28.725 61 157 3
15:32:09.9 91 153 3:46.677 26.999 65 158 1
15:35:45.8 92 155 3:35.910 28.345 65 158 2
15:39:23.3 93 156 3:37.515 28.136 62 157 2
15:43:59.7 94 158 4:36.418 22.140 82 167 0
15:47:04.1 95 160 3:04.348 33.198 59 159 2
15:50:01.8 96 161 2:57.668 34.446 62 158 0
15:53:11.8 97 163 3:10.082 32.197 60 157 2
15:56:22.8 98 165 3:10.976 32.046 61 156 5
15:59:44.3 99 166 3:21.485 30.374 63 156 8
16:03:20.2 100 168 3:35.850 28.353 64 158 3
16:06:58.6 101 169 3:38.437 28.017 63 159 1
54 - Open Wizard Wonthaggi SC - Open
10:05:37.2 1 1 3:00.791 33.851 63 148 7
10:08:46.3 2 3 3:09.172 32.352 60 150 7
10:12:00.2 3 4 3:13.850 31.571 61 154 9
10:15:14.8 4 6 3:14.632 31.444 61 149 7
10:18:29.8 5 8 3:14.968 31.390 64 152 7
10:23:03.6 6 10 4:33.841 22.349 56 148 5
10:25:52.5 7 11 2:48.865 36.242 59 149 6
10:28:52.1 8 13 2:59.615 34.073 62 155 7
10:31:57.7 9 14 3:05.555 32.982 60 153 7
10:35:00.1 10 16 3:02.424 33.548 61 154 4
10:38:02.8 11 17 3:02.753 33.488 62 152 5
10:41:03.6 12 19 3:00.747 33.859 62 149 5
10:44:03.1 13 20 2:59.532 34.089 63 155 6
10:47:02.8 14 21 2:59.731 34.051 60 153 7
10:52:22.9 15 24 5:20.050 19.122 61 147 4
10:55:42.7 16 25 3:19.826 30.627 64 148 1
10:59:11.6 17 27 3:28.874 29.300 61 149 2
11:02:40.6 18 28 3:29.002 29.282 65 152 4
11:06:05.3 19 30 3:24.667 29.902 66 152 4
11:09:56.1 20 32 3:50.799 26.517 60 153 0
11:13:17.6 21 34 3:21.527 30.368 63 152 2
11:16:45.7 22 35 3:28.073 29.413 64 150 0
11:20:06.6 23 37 3:20.941 30.457 58 147 2
11:25:20.7 24 39 5:14.054 19.487 71 159 2
11:29:54.3 25 41 4:33.650 22.364 70 152 0
11:34:27.5 26 44 4:33.174 22.403 68 158 1
11:38:46.5 27 46 4:19.025 23.627 63 156 2
11:43:01.8 28 48 4:15.257 23.976 60 148 0
11:45:46.1 29 49 2:44.330 37.242 61 147 1
11:48:40.3 30 50 2:54.234 35.125 60 149 0
11:51:32.9 31 52 2:52.613 35.455 65 151 1
11:54:27.7 32 53 2:54.749 35.022 64 153 0
11:57:27.4 33 55 2:59.705 34.056 61 150 0
12:00:30.0 34 56 3:02.599 33.516 63 150 0
12:03:26.7 35 58 2:56.723 34.630 64 151 0
12:06:27.6 36 59 3:00.903 33.830 61 152 0
12:09:23.4 37 60 2:55.800 34.812 64 152 0
12:14:30.2 38 63 5:06.765 19.950 65 155 0
12:18:01.4 39 64 3:31.238 28.972 68 155 0
12:21:49.7 40 66 3:48.280 26.809 69 153 0
12:25:49.6 41 68 3:59.857 25.515 72 157 0
12:29:51.7 42 70 4:02.129 25.276 71 156 0
12:35:06.9 43 72 5:15.253 19.413 66 153 0
12:38:44.8 44 73 3:37.846 28.093 68 152 0
12:43:05.2 45 76 4:20.372 23.505 64 150 0
12:46:55.0 46 77 3:49.818 26.630 68 154 0
12:52:45.7 47 80 5:50.696 17.451 64 157 0
12:56:42.5 48 82 3:56.863 25.838 71 158 0
13:03:06.2 49 84 6:23.718 15.949 63 149 0
13:06:24.6 50 86 3:18.303 30.862 62 152 0
13:09:38.7 51 87 3:14.099 31.530 67 153 0
13:13:00.4 52 89 3:21.701 30.342 64 150 0
13:16:26.9 53 90 3:26.540 29.631 63 150 0
13:19:56.6 54 92 3:29.679 29.187 69 152 0
13:23:26.1 55 93 3:29.504 29.212 64 152 0
13:28:55.6 56 96 5:29.545 18.571 63 148 0
13:32:07.8 57 98 3:12.223 31.838 65 157 0
13:35:40.1 58 100 3:32.211 28.839 65 152 0
13:39:16.3 59 102 3:36.287 28.296 63 153 0
13:42:28.0 60 103 3:11.655 31.932 61 154 0
13:46:00.0 61 104 3:32.020 28.865 65 154 0
13:49:33.9 62 106 3:33.921 28.609 61 153 0
13:53:04.4 63 108 3:30.493 29.075 66 155 0
13:56:43.1 64 110 3:38.657 27.989 63 153 0
14:00:17.5 65 111 3:34.377 28.548 62 152 0
14:03:47.6 66 112 3:30.153 29.122 63 151 0
14:07:33.2 67 113 3:45.601 27.128 67 154 0
14:10:54.9 68 115 3:21.652 30.349 66 152 0
14:16:03.5 69 117 5:08.672 19.827 63 159 0
14:19:59.0 70 119 3:55.502 25.987 67 150 0
14:24:06.9 71 121 4:07.821 24.695 71 157 0
14:28:32.9 72 123 4:26.007 23.007 69 154 0
14:33:05.6 73 125 4:32.775 22.436 65 158 0
14:37:16.1 74 127 4:10.483 24.433 66 151 0
14:41:04.1 75 129 3:48.006 26.841 65 152 0
14:44:55.8 76 130 3:51.657 26.418 62 151 0
14:47:39.8 77 132 2:43.974 37.323 62 149 0
14:50:24.9 78 133 2:45.134 37.061 61 149 0
14:53:10.6 79 134 2:45.726 36.928 59 150 0
14:55:57.6 80 136 2:47.002 36.646 62 150 0
14:58:51.6 81 137 2:54.006 35.171 63 152 0
15:01:47.0 82 138 2:55.325 34.907 63 152 0
15:04:52.3 83 139 3:05.321 33.024 62 149 0
15:08:02.2 84 141 3:09.919 32.224 62 154 0
15:13:01.5 85 143 4:59.311 20.447 65 157 0
15:16:43.0 86 145 3:41.476 27.633 67 153 1
15:20:31.5 87 147 3:48.510 26.782 68 155 2
15:24:06.6 88 149 3:35.123 28.449 64 152 2
15:28:48.2 89 151 4:41.620 21.731 62 150 3
15:32:15.8 90 153 3:27.557 29.486 67 152 2
15:35:57.6 91 155 3:41.846 27.587 65 152 3
15:39:42.0 92 156 3:44.380 27.275 68 156 4
15:44:04.0 93 158 4:22.021 23.357 62 155 0
15:46:59.9 94 160 2:55.855 34.801 60 151 0
15:49:46.4 95 161 2:46.540 36.748 60 154 3
15:52:45.1 96 163 2:58.710 34.245 60 151 3
15:55:48.3 97 164 3:03.163 33.413 59 153 4
15:58:49.9 98 166 3:01.631 33.695 59 149 6
16:01:45.7 99 167 2:55.779 34.816 59 153 4
16:04:27.8 100 169 2:42.039 37.769 54 150 1
30 - Jaffa St Pauls AGS - Open
10:05:38.8 1 1 3:02.531 33.529 68 195 7
10:08:44.8 2 3 3:06.025 32.899 63 204 7
10:12:02.9 3 4 3:18.117 30.891 66 193 9
10:15:21.1 4 6 3:18.179 30.881 64 200 8
10:18:36.2 5 8 3:15.166 31.358 68 198 5
10:21:55.9 6 9 3:19.686 30.648 66 199 8
10:25:25.6 7 11 3:29.713 29.183 68 197 5
10:28:56.7 8 13 3:31.091 28.992 68 201 6
10:33:02.1 9 15 4:05.401 24.939 64 197 8
10:36:00.0 10 16 2:57.862 34.409 69 193 4
10:39:04.2 11 18 3:04.198 33.225 67 198 4
10:42:09.7 12 19 3:05.457 33.000 61 198 5
10:46:36.6 13 21 4:26.987 22.922 65 195 5
10:49:49.4 14 23 3:12.779 31.746 68 193 5
10:53:06.3 15 24 3:16.864 31.087 72 196 4
10:56:32.7 16 26 3:26.403 29.651 70 195 1
11:00:00.0 17 27 3:27.265 29.527 72 198 3
11:08:26.8 18 31 8:26.832 12.075 69 197 0
11:11:41.1 19 33 3:14.282 31.501 70 195 0
11:14:58.2 20 35 3:17.097 31.051 70 199 0
11:18:24.5 21 36 3:26.346 29.659 70 198 0
11:21:45.9 22 38 3:21.398 30.388 70 196 1
11:25:24.2 23 39 3:38.295 28.035 74 202 2
11:31:12.8 24 42 5:48.616 17.555 69 194 1
11:34:27.8 25 44 3:14.971 31.389 66 190 1
11:37:41.5 26 45 3:13.679 31.599 72 195 0
11:41:10.6 27 47 3:29.133 29.264 67 196 1
11:44:38.2 28 48 3:27.579 29.483 73 196 1
11:48:11.0 29 50 3:32.802 28.759 70 193 0
11:51:33.7 30 52 3:22.710 30.191 71 196 1
11:55:28.8 31 54 3:55.062 26.036 66 191 0
11:58:24.1 32 55 2:55.318 34.908 68 194 0
12:01:17.7 33 57 2:53.620 35.249 70 190 0
12:04:23.3 34 58 3:05.609 32.973 71 196 0
12:07:24.6 35 59 3:01.297 33.757 69 197 0
12:10:30.4 36 61 3:05.763 32.945 70 194 0
12:13:27.9 37 62 2:57.556 34.468 67 194 0
12:17:59.6 38 64 4:31.678 22.527 71 196 0
12:21:32.7 39 66 3:33.080 28.722 76 198 0
12:24:56.0 40 67 3:23.298 30.104 71 198 0
12:28:16.3 41 69 3:20.360 30.545 71 197 0
12:31:32.7 42 71 3:16.415 31.159 72 194 0
12:36:24.9 43 72 4:52.200 20.945 72 199 0
12:39:53.3 44 74 3:28.347 29.374 72 200 0
12:43:25.3 45 76 3:32.014 28.866 73 198 0
12:46:57.1 46 77 3:31.830 28.891 73 199 0
12:50:33.7 47 79 3:36.545 28.262 72 196 0
12:55:23.1 48 81 4:49.437 21.144 66 190 0
12:58:34.6 49 82 3:11.495 31.959 70 194 0
13:01:51.1 50 84 3:16.479 31.148 71 193 0
13:05:10.1 51 85 3:18.991 30.755 70 195 0
13:08:28.6 52 87 3:18.509 30.830 73 197 0
13:11:33.8 53 88 3:05.229 33.040 65 194 0
13:16:17.5 54 90 4:43.658 21.575 70 196 0
13:19:36.0 55 92 3:18.502 30.831 68 195 0
13:22:45.6 56 93 3:09.618 32.275 67 197 0
13:25:57.8 57 95 3:12.155 31.849 72 200 0
13:29:12.5 58 96 3:14.726 31.429 73 193 0
13:33:39.1 59 99 4:26.593 22.956 70 195 0
13:36:44.8 60 100 3:05.772 32.944 69 188 0
13:39:46.3 61 102 3:01.442 33.730 73 189 0
13:42:58.1 62 104 3:11.848 31.900 66 190 0
13:46:05.2 63 104 3:07.099 32.710 70 194 0
13:52:20.3 64 107 6:15.034 16.319 62 193 0
13:55:39.4 65 109 3:19.167 30.728 72 192 0
13:59:10.5 66 111 3:31.084 28.993 68 195 0
14:02:33.1 67 112 3:22.611 30.206 60 198 0
14:05:52.7 68 112 3:19.614 30.659 66 199 1
14:09:35.8 69 114 3:43.012 27.442 72 195 0
14:13:17.9 70 116 3:42.170 27.546 71 195 0
14:17:00.8 71 118 3:42.849 27.463 70 195 0
14:22:48.5 72 120 5:47.759 17.598 71 196 0
14:26:29.6 73 122 3:41.100 27.680 73 198 0
14:30:10.4 74 124 3:40.720 27.727 71 197 0
14:33:53.0 75 125 3:42.650 27.487 74 198 0
14:37:41.8 76 127 3:48.799 26.748 70 197 0
14:42:27.0 77 129 4:45.168 21.461 69 192 0
14:45:39.2 78 131 3:12.211 31.840 70 192 0
14:48:51.1 79 132 3:11.907 31.890 71 195 0
14:52:11.6 80 134 3:20.486 30.526 69 196 0
14:55:27.1 81 135 3:15.504 31.304 72 196 0
14:59:41.6 82 137 4:14.563 24.041 65 195 0
15:02:49.3 83 139 3:07.665 32.611 68 192 0
15:05:58.8 84 140 3:09.487 32.298 70 190 1
15:09:03.6 85 141 3:04.761 33.124 68 199 0
15:12:21.2 86 143 3:17.608 30.970 71 196 0
15:17:07.1 87 146 4:45.955 21.402 71 193 4
15:20:33.0 88 147 3:25.907 29.722 70 194 2
15:23:51.0 89 149 3:17.925 30.921 68 196 2
15:27:21.8 90 151 3:30.879 29.021 68 195 1
15:30:50.3 91 152 3:28.477 29.356 66 196 2
15:36:32.3 92 155 5:42.011 17.894 68 196 2
15:40:18.4 93 157 3:46.109 27.067 70 193 0
15:43:33.4 94 158 3:14.971 31.389 67 194 0
15:46:30.4 95 160 2:56.991 34.578 62 196 3
15:51:40.7 96 162 5:10.292 19.723 67 201 3
15:55:29.9 97 164 3:49.221 26.699 71 196 5
15:59:12.6 98 166 3:42.674 27.484 68 198 5
16:02:47.4 99 168 3:34.804 28.491 66 198 3
16:06:05.7 100 169 3:18.286 30.865 66 195 3
117 - Bert Weeroona C - Middle
10:05:32.4 1 1 2:59.161 34.159 55 114 8
10:08:01.5 2 2 2:29.157 41.031 55 113 6
10:10:39.5 3 4 2:37.992 38.736 55 114 9
10:13:23.0 4 5 2:43.497 37.432 57 116 7
10:16:10.6 5 7 2:47.543 36.528 55 116 6
10:19:13.2 6 8 3:02.621 33.512 63 120 5
10:23:22.3 7 10 4:09.142 24.564 78 120 5
10:26:52.6 8 12 3:30.303 29.101 62 124 9
10:30:05.1 9 13 3:12.482 31.795 64 123 6
10:33:32.4 10 15 3:27.268 29.527 61 125 8
10:36:52.0 11 17 3:19.647 30.654 65 123 4
10:40:11.1 12 18 3:19.047 30.747 63 123 4
10:43:21.7 13 20 3:10.647 32.101 62 121 4
10:46:29.5 14 21 3:07.825 32.584 65 122 6
10:49:46.4 15 23 3:16.823 31.094 65 122 5
10:55:11.0 16 25 5:24.668 18.850 81 121 2
10:59:07.7 17 27 3:56.664 25.859 68 122 3
11:03:12.2 18 29 4:04.545 25.026 67 118 4
11:08:13.5 19 31 5:01.274 20.314 82 120 0
11:11:34.6 20 33 3:21.051 30.440 58 113 1
11:14:49.3 21 34 3:14.719 31.430 65 119 0
11:18:07.7 22 36 3:18.382 30.850 64 121 0
11:21:23.5 23 37 3:15.875 31.244 58 120 1
11:25:15.4 24 39 3:51.814 26.400 65 122 2
11:31:19.0 25 42 6:03.670 16.828 78 119 1
11:34:33.5 26 44 3:14.516 31.463 60 112 2
11:37:48.9 27 45 3:15.319 31.333 67 120 0
11:41:18.5 28 47 3:29.596 29.199 69 122 1
11:45:03.7 29 49 3:45.264 27.168 69 119 0
11:48:55.0 30 51 3:51.329 26.456 68 115 1
11:54:27.3 31 53 5:32.299 18.417 77 121 0
11:58:02.4 32 55 3:35.072 28.456 62 122 0
12:01:49.7 33 57 3:47.286 26.926 65 123 0
12:05:45.3 34 59 3:55.641 25.972 65 125 0
12:11:27.0 35 61 5:41.620 17.915 79 119 0
12:15:00.2 36 63 3:33.225 28.702 62 119 0
12:18:51.0 37 64 3:50.858 26.510 65 121 0
12:24:23.2 38 67 5:32.122 18.427 76 119 0
12:27:07.0 39 68 2:43.872 37.346 57 118 0
12:29:50.3 40 70 2:43.289 37.480 62 118 0
12:32:47.4 41 71 2:57.046 34.567 63 117 0
12:35:49.8 42 72 3:02.389 33.555 60 115 0
12:38:57.7 43 74 3:07.889 32.572 66 122 0
12:44:20.8 44 76 5:23.184 18.937 77 118 0
12:47:03.7 45 77 2:42.836 37.584 58 114 0
12:49:39.9 46 79 2:36.207 39.179 60 113 0
12:52:27.9 47 80 2:48.035 36.421 62 117 0
12:57:17.4 48 82 4:49.478 21.142 84 122 0
13:07:05.0 49 86 9:47.628 10.415 82 122 0
13:10:22.0 50 88 3:16.990 31.068 63 118 0
13:13:33.1 51 89 3:11.040 32.035 64 119 0
13:16:55.9 52 91 3:22.836 30.172 68 124 0
13:20:26.9 53 92 3:30.999 29.005 69 117 0
13:24:11.3 54 94 3:44.419 27.270 70 125 0
13:29:30.7 55 97 5:19.422 19.160 81 122 0
13:33:08.4 56 98 3:37.636 28.120 64 122 0
13:36:55.2 57 100 3:46.852 26.978 66 122 0
13:40:46.1 58 102 3:50.845 26.511 66 120 0
13:44:48.3 59 104 4:02.273 25.261 70 122 0
13:52:19.1 60 107 7:30.764 13.577 81 120 0
13:55:51.2 61 109 3:32.135 28.850 66 119 0
13:59:41.7 62 111 3:50.439 26.558 64 120 0
14:03:05.2 63 112 3:23.574 30.063 61 115 0
14:06:09.6 64 113 3:04.316 33.204 63 123 0
14:10:54.1 65 115 4:44.553 21.507 79 119 0
14:14:23.5 66 116 3:29.365 29.231 63 113 0
14:17:56.9 67 118 3:33.419 28.676 65 116 0
14:21:38.5 68 120 3:41.588 27.619 70 121 0
14:25:30.9 69 121 3:52.374 26.337 67 114 0
14:29:20.9 70 123 3:50.080 26.599 69 118 0
14:34:23.6 71 125 5:02.645 20.222 82 119 0
14:39:16.4 72 128 4:52.835 20.899 66 123 0
14:43:08.5 73 130 3:52.081 26.370 68 122 0
14:48:50.3 74 132 5:41.832 17.904 79 118 0
14:52:21.4 75 134 3:31.049 28.998 65 121 0
14:55:45.3 76 136 3:23.872 30.019 65 119 0
14:59:11.8 77 137 3:26.516 29.635 63 119 0
15:02:34.0 78 139 3:22.243 30.261 62 118 0
15:05:52.0 79 140 3:17.976 30.913 64 120 0
15:09:18.6 80 142 3:26.610 29.621 64 122 1
15:13:57.9 81 144 4:39.329 21.910 78 118 1
15:16:47.3 82 145 2:49.392 36.129 60 112 1
15:19:28.6 83 147 2:41.240 37.956 59 112 2
15:22:09.6 84 148 2:40.987 38.015 60 118 0
15:25:06.5 85 149 2:56.956 34.585 53 116 1
15:29:23.0 86 152 4:16.485 23.861 79 121 3
15:32:46.1 87 153 3:23.104 30.132 64 119 2
15:35:51.8 88 155 3:05.726 32.952 63 117 4
15:38:55.7 89 156 3:03.871 33.284 65 118 1
15:43:42.4 90 158 4:46.697 21.347 77 119 2
15:46:50.0 91 160 3:07.570 32.628 64 114 2
15:50:45.9 92 162 3:55.917 25.941 72 119 3
15:53:32.4 93 163 2:46.554 36.745 55 116 1
15:56:15.7 94 165 2:43.220 37.495 58 116 6
15:59:10.9 95 166 2:55.230 34.926 57 115 5
16:01:59.6 96 168 2:48.742 36.268 56 118 3
16:04:47.6 97 169 2:47.995 36.430 56 119 1
121 - Fast 5 Frankston High - Middle
10:10:13.2 1 4 7:39.661 13.314 73 161 10
10:13:03.9 2 5 2:50.756 35.841 62 152 11
10:16:04.8 3 6 3:00.851 33.840 60 157 6
10:19:16.0 4 8 3:11.216 32.006 61 154 5
10:22:21.2 5 10 3:05.221 33.042 61 153 8
10:26:38.6 6 12 4:17.419 23.774 79 161 7
10:31:34.1 7 14 4:55.493 20.711 55 155 7
10:35:28.9 8 16 3:54.777 26.067 60 154 4
10:40:14.1 9 18 4:45.176 21.460 76 162 3
10:43:13.6 10 20 2:59.511 34.093 59 156 5
10:46:27.2 11 21 3:13.594 31.613 62 154 6
10:49:38.9 12 23 3:11.734 31.919 63 158 5
10:52:56.0 13 24 3:17.063 31.056 63 155 4
10:57:09.0 14 26 4:12.974 24.192 83 162 3
10:59:55.3 15 27 2:46.330 36.794 58 155 4
11:02:32.3 16 28 2:36.975 38.987 59 151 2
11:05:12.1 17 30 2:39.797 38.299 56 155 0
11:07:58.2 18 31 2:46.169 36.830 61 155 0
11:10:45.2 19 32 2:46.970 36.653 59 158 0
11:14:36.7 20 34 3:51.504 26.436 83 163 0
11:17:38.0 21 36 3:01.274 33.761 60 154 0
11:20:41.2 22 37 3:03.225 33.402 61 158 1
11:23:48.7 23 39 3:07.477 32.644 62 157 1
11:29:16.0 24 41 5:27.307 18.698 76 162 1
11:32:22.5 25 43 3:06.539 32.808 61 156 4
11:35:31.7 26 44 3:09.211 32.345 62 151 1
11:38:42.4 27 46 3:10.690 32.094 61 154 1
11:42:00.2 28 47 3:17.806 30.939 66 151 1
11:45:10.1 29 49 3:09.830 32.239 63 152 0
11:51:03.8 30 52 5:53.720 17.302 71 159 0
11:54:15.7 31 53 3:11.955 31.882 61 151 0
11:57:13.1 32 55 2:57.365 34.505 62 152 0
12:00:58.4 33 56 3:45.288 27.165 61 154 0
12:04:04.5 34 58 3:06.072 32.890 61 150 0
12:07:18.0 35 59 3:13.520 31.625 61 152 0
12:16:04.3 36 63 8:46.312 11.628 70 159 0
12:19:14.8 37 65 3:10.524 32.122 63 157 0
12:22:36.8 38 66 3:21.931 30.307 65 157 0
12:26:08.1 39 68 3:31.382 28.952 64 159 0
12:30:43.8 40 70 4:35.619 22.205 69 159 0
12:33:28.9 41 72 2:45.146 37.058 60 152 0
12:36:10.0 42 72 2:41.133 37.981 60 154 0
12:38:57.0 43 74 2:46.921 36.664 61 151 0
12:41:50.8 44 75 2:53.889 35.195 61 156 0
12:46:06.6 45 77 4:15.740 23.931 81 163 0
12:49:38.4 46 79 3:31.772 28.899 64 154 0
12:53:31.6 47 80 3:53.262 26.237 70 155 0
12:58:24.6 48 82 4:52.983 20.889 75 161 0
13:01:43.5 49 84 3:18.921 30.766 64 153 0
13:05:00.4 50 85 3:16.857 31.089 64 152 0
13:15:06.3 51 90 10:05.920 10.100 76 162 0
13:18:14.4 52 91 3:08.145 32.528 64 156 0
13:39:32.3 53 102 21:17.840 4.789 83 163 0
13:42:58.5 54 104 3:26.230 29.676 61 157 0
13:46:33.4 55 105 3:34.927 28.475 64 154 0
13:51:40.4 56 107 5:06.951 19.938 75 160 0
13:54:36.5 57 109 2:56.071 34.759 61 158 0
13:57:29.0 58 110 2:52.543 35.469 58 153 0
14:00:17.7 59 111 2:48.652 36.288 60 156 0
14:03:01.5 60 112 2:43.873 37.346 58 155 0
14:05:52.5 61 112 2:50.949 35.800 58 151 1
14:09:56.3 62 114 4:03.789 25.104 76 163 0
14:13:27.2 63 116 3:30.953 29.011 62 153 0
14:16:47.7 64 118 3:20.482 30.526 63 151 0
14:20:15.0 65 119 3:27.330 29.518 62 151 0
14:23:18.6 66 120 3:03.603 33.333 64 152 0
14:27:45.0 67 123 4:26.372 22.975 79 161 0
14:31:05.4 68 124 3:20.427 30.535 60 151 0
14:34:28.4 69 125 3:23.006 30.147 61 153 0
14:37:37.7 70 127 3:09.300 32.330 60 154 0
14:40:41.9 71 128 3:04.133 33.237 62 156 0
14:43:40.8 72 130 2:58.903 34.208 61 155 0
14:47:45.7 73 132 4:04.934 24.986 78 162 0
14:50:53.4 74 133 3:07.677 32.609 59 156 0
14:53:56.3 75 135 3:02.918 33.458 62 156 0
14:57:56.0 76 137 3:59.646 25.538 77 162 0
15:01:24.4 77 138 3:28.428 29.363 62 155 0
15:04:49.7 78 139 3:25.365 29.801 64 157 0
15:09:05.0 79 141 4:15.304 23.971 76 162 0
15:11:51.9 80 143 2:46.819 36.686 58 156 0
15:14:42.3 81 144 2:50.454 35.904 60 158 0
15:17:35.8 82 146 2:53.498 35.274 61 157 5
15:24:24.5 83 149 6:48.668 14.975 75 160 1
15:27:48.7 84 151 3:24.257 29.962 62 155 2
15:31:16.7 85 153 3:27.987 29.425 64 155 1
15:34:36.6 86 154 3:19.840 30.624 61 153 0
15:38:50.9 87 156 4:14.288 24.067 77 161 0
15:42:00.4 88 157 3:09.493 32.297 59 151 1
15:45:06.2 89 159 3:05.839 32.932 60 151 0
15:48:12.0 90 160 3:05.798 32.939 62 153 0
15:52:15.6 91 163 4:03.611 25.122 73 160 1
15:55:49.3 92 164 3:33.714 28.636 61 156 4
15:59:20.0 93 166 3:30.684 29.048 59 151 5
16:03:07.0 94 168 3:46.984 26.962 62 155 5
16:06:56.7 95 169 3:49.764 26.636 62 155 1
53 - Mario Kooweerup SC - Open
10:06:07.0 1 2 3:00.449 33.915 59 145 7
10:09:14.9 2 3 3:07.926 32.566 62 144 8
10:12:32.2 3 5 3:17.292 31.020 64 143 10
10:15:55.6 4 6 3:23.343 30.097 62 143 11
10:19:04.0 5 8 3:08.434 32.478 63 143 7
10:22:16.5 6 10 3:12.503 31.792 61 144 8
10:26:49.6 7 12 4:33.120 22.408 79 157 9
10:30:52.3 8 14 4:02.703 25.216 61 144 5
10:35:25.1 9 16 4:32.790 22.435 71 147 4
10:41:07.8 10 19 5:42.698 17.858 78 157 5
10:44:18.8 11 20 3:10.981 32.045 62 144 5
10:47:34.2 12 22 3:15.447 31.313 61 146 5
10:50:51.1 13 23 3:16.913 31.080 64 143 4
10:54:10.7 14 25 3:19.545 30.670 63 143 2
10:57:27.6 15 26 3:16.912 31.080 63 144 2
11:00:49.2 16 28 3:21.568 30.362 63 144 3
11:04:11.1 17 29 3:21.909 30.311 62 143 2
11:08:35.1 18 31 4:24.059 23.177 77 158 0
11:11:54.9 19 33 3:19.798 30.631 59 142 2
11:15:24.6 20 35 3:29.645 29.192 64 144 0
11:18:53.4 21 36 3:28.791 29.312 62 144 0
11:22:19.3 22 38 3:25.967 29.713 62 144 1
11:25:41.1 23 40 3:21.803 30.327 62 145 1
11:30:20.0 24 42 4:38.824 21.949 73 156 1
11:33:29.2 25 43 3:09.260 32.336 60 144 1
11:36:55.4 26 45 3:26.197 29.680 63 143 0
11:40:30.8 27 47 3:35.337 28.421 65 142 1
11:44:20.1 28 48 3:49.392 26.679 69 144 1
11:48:08.2 29 50 3:48.070 26.834 63 143 0
11:51:58.2 30 52 3:49.968 26.612 67 143 0
11:57:03.0 31 55 5:04.850 20.075 75 156 0
12:00:25.3 32 56 3:22.287 30.254 63 144 0
12:04:05.9 33 58 3:40.549 27.749 67 144 0
12:07:50.7 34 60 3:44.779 27.227 65 145 0
12:12:45.0 35 62 4:54.333 20.793 70 156 0
12:16:21.7 36 63 3:36.678 28.245 65 145 0
12:21:30.2 37 66 5:08.493 19.838 65 146 0
12:25:33.3 38 68 4:03.107 25.174 66 146 0
12:31:09.1 39 70 5:35.787 18.226 77 157 0
12:34:23.3 40 72 3:14.261 31.504 63 143 0
12:37:40.4 41 73 3:17.061 31.056 64 144 0
12:40:48.7 42 74 3:08.345 32.494 61 143 0
12:43:56.8 43 76 3:08.051 32.544 62 143 0
12:47:14.7 44 78 3:17.891 30.926 63 144 0
12:50:28.3 45 79 3:13.610 31.610 62 143 0
12:53:46.9 46 81 3:18.672 30.805 65 144 0
12:57:07.4 47 82 3:20.474 30.528 65 143 0
13:00:26.2 48 83 3:18.747 30.793 63 143 0
13:03:48.8 49 84 3:22.678 30.196 62 143 0
13:07:14.7 50 86 3:25.902 29.723 68 145 0
13:10:53.4 51 88 3:38.692 27.985 63 144 0
13:15:46.5 52 90 4:53.089 20.881 76 156 0
13:20:13.0 53 92 4:26.480 22.966 67 147 0
13:25:02.7 54 94 4:49.736 21.123 70 148 0
13:30:06.3 55 97 5:03.527 20.163 69 148 0
13:35:58.9 56 100 5:52.584 17.358 76 157 0
13:39:32.4 57 102 3:33.546 28.659 64 144 0
13:43:03.7 58 104 3:31.344 28.958 64 144 0
13:46:37.7 59 105 3:33.947 28.605 62 143 0
13:49:59.2 60 106 3:21.511 30.371 63 143 0
13:53:23.6 61 108 3:24.352 29.948 65 144 0
13:56:53.3 62 110 3:29.745 29.178 62 145 0
14:00:17.0 63 111 3:23.694 30.045 60 143 0
14:04:35.2 64 112 4:18.194 23.703 69 155 0
14:08:25.7 65 114 3:50.561 26.544 63 143 0
14:12:16.9 66 116 3:51.195 26.471 67 144 0
14:16:26.6 67 117 4:09.702 24.509 64 144 0
14:22:13.5 68 120 5:46.900 17.642 72 156 0
14:26:00.0 69 122 3:46.455 27.025 65 143 0
14:29:51.1 70 123 3:51.123 26.479 67 143 0
14:33:46.4 71 125 3:55.326 26.006 67 143 0
14:37:32.9 72 127 3:46.443 27.027 63 143 0
14:41:11.3 73 129 3:38.419 28.020 62 144 0
14:46:00.1 74 131 4:48.805 21.191 76 156 0
14:49:45.4 75 133 3:45.317 27.162 66 143 0
14:53:18.1 76 134 3:32.686 28.775 63 143 0
14:56:51.7 77 136 3:33.547 28.659 67 144 0
15:00:26.3 78 138 3:34.659 28.510 64 143 0
15:03:56.3 79 139 3:30.005 29.142 64 143 0
15:07:30.4 80 141 3:34.061 28.590 67 143 0
15:11:15.6 81 143 3:45.175 27.179 64 143 0
15:16:14.5 82 145 4:58.959 20.471 79 156 4
15:20:20.3 83 147 4:05.776 24.901 64 143 3
15:24:30.6 84 149 4:10.272 24.453 65 145 2
15:28:46.7 85 151 4:16.106 23.896 63 144 3
15:34:28.2 86 154 5:41.527 17.920 76 155 1
15:37:54.9 87 156 3:26.741 29.602 60 144 3
15:41:20.8 88 157 3:25.906 29.722 64 145 0
15:44:52.2 89 159 3:31.309 28.962 62 143 0
15:48:19.2 90 160 3:27.076 29.554 63 145 2
15:51:41.9 91 162 3:22.676 30.196 63 143 3
15:56:29.9 92 165 4:48.006 21.250 80 157 6
16:00:37.8 93 167 4:07.853 24.692 63 143 5
16:05:16.6 94 169 4:38.839 21.948 63 145 0
102 - Emerald Velocity TomKat HPV - Comm
10:05:35.1 1 1 3:09.996 32.211 68 176 7
10:08:58.0 2 3 3:22.868 30.167 70 179 8
10:12:40.7 3 5 3:42.714 27.479 71 177 9
10:16:30.4 4 7 3:49.732 26.640 69 177 8
10:20:39.8 5 9 4:09.377 24.541 68 177 6
10:24:04.1 6 10 3:24.349 29.949 70 176 5
10:27:37.8 7 12 3:33.680 28.641 67 177 7
10:31:18.7 8 14 3:40.861 27.710 70 179 7
10:35:10.2 9 16 3:51.562 26.429 71 176 4
10:39:20.1 10 18 4:09.830 24.497 71 176 5
10:42:37.7 11 19 3:17.692 30.957 70 180 5
10:45:48.0 12 21 3:10.277 32.164 70 176 6
10:49:12.2 13 22 3:24.170 29.975 69 176 5
10:52:54.3 14 24 3:42.133 27.551 66 172 4
10:55:48.5 15 26 2:54.168 35.138 69 175 1
10:58:49.2 16 27 3:00.722 33.864 69 176 3
11:01:55.7 17 28 3:06.492 32.816 71 175 3
11:05:01.2 18 30 3:05.514 32.989 71 177 0
11:08:08.6 19 31 3:07.353 32.666 71 176 0
11:11:24.8 20 33 3:16.247 31.185 70 177 1
11:16:08.8 21 35 4:44.011 21.548 72 178 2
11:20:02.4 22 37 3:53.560 26.203 75 178 2
11:24:11.0 23 39 4:08.555 24.622 72 180 1
11:29:19.6 24 41 5:08.692 19.826 71 180 1
11:33:30.8 25 43 4:11.148 24.368 76 178 1
11:37:42.9 26 45 4:12.146 24.272 75 180 0
11:41:44.8 27 47 4:01.902 25.300 76 176 0
11:45:49.6 28 49 4:04.739 25.006 76 184 1
11:50:18.1 29 51 4:28.472 22.796 72 180 1
11:54:52.8 30 54 4:34.767 22.273 72 176 0
11:58:38.7 31 55 3:45.835 27.099 78 180 0
12:02:37.1 32 57 3:58.434 25.667 73 177 0
12:06:37.0 33 59 3:59.904 25.510 78 180 0
12:11:30.8 34 61 4:53.820 20.829 73 179 0
12:15:15.3 35 63 3:44.497 27.261 77 181 0
12:19:10.7 36 64 3:55.418 25.996 72 178 0
12:23:22.1 37 67 4:11.381 24.346 77 180 0
12:28:06.9 38 69 4:44.775 21.491 72 177 0
12:31:44.7 39 71 3:37.780 28.102 71 177 0
12:35:30.9 40 72 3:46.218 27.054 71 178 0
12:39:12.2 41 74 3:41.337 27.650 72 177 0
12:43:20.5 42 76 4:08.328 24.645 73 178 0
12:47:49.7 43 78 4:29.180 22.736 72 178 0
12:51:17.9 44 79 3:28.154 29.401 70 177 0
12:54:48.8 45 81 3:30.876 29.022 72 177 0
12:58:35.9 46 82 3:47.117 26.946 68 175 0
13:02:22.6 47 84 3:46.684 26.998 72 178 0
13:07:01.9 48 86 4:39.344 21.908 72 179 0
13:10:30.4 49 88 3:28.497 29.353 73 181 0
13:13:43.8 50 89 3:13.448 31.636 69 176 0
13:17:15.0 51 91 3:31.161 28.983 70 180 0
13:20:45.7 52 93 3:30.688 29.048 70 177 0
13:24:43.9 53 94 3:58.169 25.696 68 174 0
13:27:40.1 54 96 2:56.213 34.731 69 176 0
13:30:44.0 55 97 3:03.925 33.274 70 179 0
13:34:04.1 56 99 3:20.062 30.591 71 177 0
13:37:21.1 57 101 3:17.077 31.054 71 174 0
13:40:39.8 58 102 3:18.669 30.805 71 178 0
13:43:57.9 59 104 3:18.101 30.893 67 178 0
13:47:18.2 60 105 3:20.323 30.551 72 180 0
13:52:35.6 61 108 5:17.360 19.284 73 179 0
13:56:40.9 62 110 4:05.355 24.943 70 178 0
14:00:38.3 63 112 3:57.359 25.784 72 179 0
14:04:35.9 64 112 3:57.594 25.758 70 180 0
14:10:12.2 65 115 5:36.265 18.200 73 178 0
14:14:16.7 66 116 4:04.528 25.028 72 179 0
14:18:27.1 67 118 4:10.381 24.443 77 181 0
14:22:39.3 68 120 4:12.228 24.264 74 178 0
14:26:29.8 69 122 3:50.474 26.554 71 176 0
14:30:57.3 70 124 4:27.546 22.875 77 182 0
14:35:46.7 71 126 4:49.347 21.151 76 180 0
14:40:09.1 72 128 4:22.395 23.324 70 175 0
14:44:53.9 73 130 4:44.885 21.482 72 176 0
14:48:41.4 74 132 3:47.427 26.910 69 177 0
14:52:39.3 75 134 3:57.878 25.727 73 176 0
14:56:43.6 76 136 4:04.310 25.050 76 179 0
15:01:53.5 77 138 5:09.925 19.747 69 180 0
15:06:04.3 78 140 4:10.788 24.403 77 180 1
15:10:20.6 79 142 4:16.322 23.876 75 179 1
15:14:56.6 80 144 4:36.016 22.173 72 176 1
15:18:46.2 81 146 3:49.561 26.660 69 177 2
15:22:40.0 82 148 3:53.823 26.174 72 177 3
15:26:49.7 83 150 4:09.658 24.514 71 176 2
15:31:18.9 84 153 4:29.193 22.735 70 179 3
15:34:51.0 85 154 3:32.162 28.846 70 176 2
15:38:23.8 86 156 3:32.774 28.763 67 178 2
15:42:29.9 87 157 4:06.161 24.862 71 176 0
15:45:42.4 88 159 3:12.441 31.802 71 174 1
15:49:10.7 89 161 3:28.349 29.374 73 176 2
15:53:26.6 90 163 4:15.907 23.915 69 176 2
15:56:46.5 91 165 3:19.886 30.617 66 176 6
16:00:05.4 92 167 3:18.916 30.767 67 178 5
16:03:19.4 93 168 3:13.938 31.556 62 177 3
16:06:10.8 94 169 2:51.366 35.713 61 173 2
9 - Cassiopea SMS/BGS - Female
10:05:38.3 1 1 3:06.304 32.850 61 164 7
10:08:53.6 2 3 3:15.305 31.336 65 164 8
10:12:15.9 3 5 3:22.331 30.247 63 165 11
10:15:38.8 4 6 3:22.853 30.170 64 165 16
10:19:10.8 5 8 3:31.986 28.870 63 163 5
10:22:45.3 6 10 3:34.567 28.523 65 162 7
10:27:35.0 7 12 4:49.624 21.131 74 167 7
10:31:04.3 8 14 3:29.278 29.243 61 165 6
10:34:23.7 9 15 3:19.475 30.681 64 165 5
10:37:51.4 10 17 3:27.689 29.467 64 165 4
10:41:16.7 11 19 3:25.249 29.817 64 160 3
10:46:15.6 12 21 4:58.924 20.473 71 166 4
10:49:14.7 13 22 2:59.087 34.173 57 163 7
10:52:24.4 14 24 3:09.772 32.249 64 165 4
10:55:43.7 15 25 3:19.252 30.715 65 164 1
10:59:11.4 16 27 3:27.676 29.469 62 165 2
11:02:45.6 17 28 3:34.259 28.564 65 166 2
11:07:37.7 18 31 4:52.098 20.952 84 170 0
11:11:06.5 19 33 3:28.783 29.313 66 162 1
11:14:47.8 20 34 3:41.331 27.651 66 163 0
11:18:31.0 21 36 3:43.116 27.430 65 161 0
11:22:05.5 22 38 3:34.503 28.531 66 163 0
11:27:22.1 23 40 5:16.648 19.327 75 168 1
11:30:51.8 24 42 3:29.637 29.193 66 163 1
11:34:34.8 25 44 3:43.017 27.442 67 166 2
11:38:20.7 26 46 3:45.962 27.084 67 163 1
11:42:12.3 27 47 3:51.572 26.428 67 163 1
11:47:33.9 28 50 5:21.578 19.031 82 169 1
11:50:58.3 29 52 3:24.381 29.944 63 162 1
11:54:23.5 30 53 3:25.270 29.814 64 162 0
11:57:59.6 31 55 3:36.088 28.322 67 164 0
12:01:51.9 32 57 3:52.331 26.342 66 162 0
12:05:55.6 33 59 4:03.631 25.120 67 162 0
12:12:33.8 34 62 6:38.235 15.368 83 168 0
12:16:56.3 35 63 4:22.444 23.319 68 165 0
12:21:23.2 36 66 4:26.936 22.927 73 166 0
12:26:27.4 37 68 5:04.239 20.116 76 169 0
12:32:12.1 38 71 5:44.679 17.756 79 168 0
12:40:22.8 39 74 8:10.663 12.473 80 169 0
12:46:49.5 40 77 6:26.721 15.825 77 168 0
12:55:15.8 41 81 8:26.273 12.088 83 168 0
13:03:10.2 42 84 7:54.443 12.899 76 167 0
13:07:14.0 43 86 4:03.812 25.101 69 162 0
13:12:39.3 44 89 5:25.274 18.815 75 167 0
13:21:40.6 45 93 9:01.302 11.306 76 168 0
13:24:25.6 46 94 2:45.024 37.086 60 158 0
13:27:24.7 47 96 2:59.073 34.176 61 161 0
13:30:25.6 48 97 3:00.867 33.837 61 161 0
13:33:28.7 49 99 3:03.181 33.410 63 161 0
13:36:29.0 50 100 3:00.264 33.950 61 162 0
13:39:34.4 51 102 3:05.343 33.020 64 161 0
13:44:22.0 52 104 4:47.600 21.280 80 168 0
13:47:25.0 53 105 3:03.052 33.433 61 159 0
13:50:30.5 54 106 3:05.488 32.994 61 159 0
13:53:38.4 55 108 3:07.909 32.569 63 161 0
13:56:51.6 56 110 3:13.237 31.671 62 164 0
14:00:05.7 57 111 3:14.098 31.530 63 160 0
14:04:56.5 58 112 4:50.736 21.050 77 168 0
14:08:04.4 59 114 3:07.957 32.561 62 161 0
14:11:28.8 60 115 3:24.329 29.952 68 162 0
14:15:08.7 61 117 3:39.937 27.826 65 161 0
14:18:52.9 62 118 3:44.246 27.291 70 162 0
14:24:00.7 63 121 5:07.712 19.889 78 168 0
14:27:06.6 64 122 3:05.937 32.914 60 163 0
14:30:08.1 65 124 3:01.490 33.721 62 163 0
14:33:11.5 66 125 3:03.431 33.364 60 162 0
14:36:13.1 67 126 3:01.591 33.702 61 163 0
14:40:37.8 68 128 4:24.736 23.117 84 168 0
14:43:31.9 69 130 2:54.099 35.152 58 160 0
14:46:34.4 70 131 3:02.484 33.537 61 160 0
14:49:34.8 71 133 3:00.408 33.923 60 163 0
14:52:43.9 72 134 3:09.077 32.368 61 161 0
14:55:48.6 73 136 3:04.682 33.138 62 160 0
15:00:26.9 74 138 4:38.284 21.992 74 167 0
15:03:20.4 75 139 2:53.565 35.261 61 159 0
15:06:24.6 76 140 3:04.152 33.233 62 161 0
15:09:32.7 77 142 3:08.117 32.533 63 160 1
15:12:40.9 78 143 3:08.156 32.526 62 159 3
15:17:38.3 79 146 4:57.452 20.575 73 166 5
15:20:45.2 80 147 3:06.887 32.747 60 160 4
15:23:58.0 81 149 3:12.834 31.737 64 166 1
15:28:57.0 82 151 4:59.007 20.468 80 169 2
15:32:08.7 83 153 3:11.682 31.928 60 159 1
15:35:13.7 84 154 3:04.942 33.091 61 162 3
15:38:23.2 85 156 3:09.569 32.284 61 161 2
15:41:36.6 86 157 3:13.394 31.645 63 162 0
15:46:21.3 87 159 4:44.715 21.495 84 170 2
15:49:35.9 88 161 3:14.585 31.452 62 159 3
15:52:51.1 89 163 3:15.177 31.356 61 161 1
15:56:14.3 90 165 3:23.152 30.125 58 157 6
15:59:38.2 91 166 3:23.960 30.006 64 163 2
16:03:16.8 92 168 3:38.545 28.003 64 162 5
16:07:00.3 93 169 3:43.499 27.383 64 160 1
116 - Chuky Padua - Open
10:06:12.5 1 2 3:25.789 29.739 66 173 7
10:09:38.5 2 3 3:26.007 29.708 68 172 8
10:13:19.8 3 5 3:41.330 27.651 67 173 7
10:17:00.7 4 7 3:40.917 27.703 66 173 7
10:20:35.4 5 9 3:34.714 28.503 67 175 7
10:24:01.0 6 10 3:25.557 29.773 69 173 4
10:29:07.7 7 13 5:06.724 19.953 71 181 5
10:32:02.3 8 14 2:54.623 35.047 62 176 8
10:35:15.1 9 16 3:12.754 31.750 64 176 4
10:38:26.5 10 17 3:11.421 31.971 66 175 4
10:41:46.4 11 19 3:19.916 30.613 66 176 4
10:44:57.4 12 20 3:11.008 32.041 64 175 5
10:48:16.9 13 22 3:19.494 30.678 66 176 6
10:51:44.8 14 24 3:27.840 29.446 64 175 6
10:56:19.1 15 26 4:34.333 22.309 77 183 1
11:00:18.4 16 27 3:59.287 25.576 66 176 1
11:04:14.0 17 29 3:55.601 25.976 69 177 2
11:08:17.8 18 31 4:03.755 25.107 71 176 2
11:12:55.1 19 34 4:37.361 22.065 77 179 2
11:17:18.6 20 36 4:23.464 23.229 70 177 0
11:21:38.9 21 38 4:20.313 23.510 71 179 2
11:27:41.5 22 40 6:02.587 16.879 73 182 1
11:30:39.5 23 42 2:57.976 34.387 62 175 2
11:33:34.1 24 43 2:54.666 35.038 65 174 1
11:36:26.3 25 45 2:52.131 35.554 64 175 3
11:39:27.5 26 46 3:01.282 33.760 63 176 1
11:43:45.3 27 48 4:17.738 23.745 77 183 1
11:48:59.8 28 51 5:14.546 19.457 70 177 1
11:56:48.0 29 55 7:48.212 13.071 79 186 0
12:00:09.8 30 56 3:21.817 30.325 69 175 0
12:03:33.9 31 58 3:24.077 29.989 70 176 0
12:06:49.9 32 59 3:15.933 31.235 65 176 0
12:10:02.4 33 61 3:12.570 31.781 65 180 0
12:13:27.0 34 62 3:24.596 29.913 66 174 0
12:17:04.8 35 63 3:37.790 28.100 72 177 0
12:21:09.0 36 65 4:04.150 25.067 69 182 0
12:25:29.6 37 68 4:20.596 23.485 69 178 0
12:32:32.8 38 71 7:03.209 14.461 77 184 0
12:36:34.7 39 72 4:01.960 25.293 69 176 0
12:40:30.1 40 74 3:55.341 26.005 72 176 0
12:44:27.1 41 76 3:57.025 25.820 73 176 0
12:48:28.0 42 78 4:00.939 25.401 71 178 0
12:52:24.0 43 80 3:55.948 25.938 69 176 0
12:57:45.3 44 82 5:21.343 19.045 78 184 0
13:01:03.0 45 83 3:17.651 30.964 64 180 0
13:04:16.4 46 85 3:13.446 31.637 65 182 0
13:07:35.3 47 86 3:18.850 30.777 68 181 0
13:10:53.9 48 88 3:18.616 30.813 66 181 0
13:14:09.7 49 89 3:15.769 31.261 66 180 0
13:17:31.6 50 91 3:21.932 30.307 68 180 0
13:20:59.5 51 93 3:27.932 29.433 67 176 0
13:24:30.2 52 94 3:30.707 29.045 70 179 0
13:28:03.9 53 96 3:33.710 28.637 65 180 0
13:32:45.3 54 98 4:41.397 21.749 84 186 0
13:36:13.8 55 100 3:28.437 29.361 68 176 0
13:39:29.2 56 102 3:15.454 31.312 66 176 0
13:42:59.4 57 104 3:30.221 29.112 69 176 0
13:46:25.9 58 104 3:26.429 29.647 70 176 0
13:50:03.7 59 106 3:37.797 28.100 70 176 0
13:53:49.8 60 108 3:46.078 27.070 72 176 0
13:59:01.5 61 111 5:11.765 19.630 73 184 0
14:02:25.0 62 112 3:23.475 30.077 65 180 0
14:05:49.4 63 112 3:24.360 29.947 63 181 0
14:09:09.7 64 114 3:20.391 30.540 67 179 0
14:12:39.6 65 116 3:29.869 29.161 66 180 0
14:16:09.4 66 117 3:29.816 29.168 65 178 0
14:19:37.3 67 119 3:27.870 29.441 69 181 0
14:23:06.7 68 120 3:29.354 29.233 67 179 0
14:28:39.9 69 123 5:33.276 18.363 78 186 0
14:32:36.9 70 124 3:57.005 25.822 68 179 0
14:36:16.6 71 126 3:39.717 27.854 69 181 0
14:40:11.5 72 128 3:54.861 26.058 68 181 0
14:44:05.2 73 130 3:53.739 26.183 71 180 0
14:48:09.7 74 132 4:04.478 25.033 72 178 0
14:52:38.1 75 134 4:28.353 22.806 64 176 0
14:59:03.6 76 137 6:25.524 15.874 77 186 0
15:03:03.0 77 139 3:59.446 25.559 70 177 1
15:07:05.2 78 140 4:02.116 25.277 72 180 0
15:11:19.4 79 143 4:14.246 24.071 72 180 2
15:15:36.7 80 145 4:17.251 23.790 72 180 2
15:20:03.7 81 147 4:26.994